[[{"header":{"parameterUnit":"m.s-1","parameterCategory":1,"la1":31.0,"la2":29.5877,"lo1":-88.7671,"lo2":-86.6584,"dx":0.0162,"dy":0.0185,"nx":115,"ny":88,"refTime":"2022-12-09T06:00:00:Z","depth":0,"parameterNumber":2,"parameterNumberName":"U-component_of_WINDS"},"data":[0.0,0.0,0.0,0.0,0.0,0.0,0.0,0.0,0.0,0.0,0.0,0.0,0.0,0.0,0.0,0.0,0.0,0.0,0.0,0.0,0.0,0.0,0.0,0.0,0.0,0.0,0.0,0.0,0.0,0.0,0.0,0.0,0.0,0.0,0.0,0.0,0.0,0.0,0.0,0.0,0.0,0.0,0.0,0.0,0.0,0.0,0.0,0.0,0.0,0.0,0.0,0.0,0.0,0.0,0.0,0.0,0.0,0.0,0.0,0.0,0.0,0.0,0.0,0.0,0.0,0.0,0.0,0.0,0.0,0.0,0.0,0.0,0.0,0.0,0.0,0.0,0.0,0.0,0.0,0.0,0.0,0.0,0.0,0.0,0.0,0.0,0.0,0.0,0.0,0.0,0.0,0.0,0.0,0.0,0.0,0.0,0.0,0.0,0.0,0.0,0.0,0.0,0.0,0.0,0.0,0.0,0.0,0.0,0.0,0.0,0.0,0.0,0.0,0.0,0.0,0.0,0.0,0.0,0.0,0.0,0.0,0.0,0.0,0.0,0.0,0.0,0.0,0.0,0.0,0.0,0.0,0.0,0.0,0.0,0.0,0.0,0.0,0.0,0.0,0.0,0.0,0.0,0.0,0.0,0.0,0.0,0.0,0.0,0.0,0.0,0.0,0.0,0.0,0.0,0.0,0.0,0.0,0.0,0.0,0.0,0.0,0.0,0.0,0.0,0.0,0.0,0.0,0.0,0.0,0.0,0.0,0.0,0.0,0.0,0.0,0.0,0.0,0.0,0.0,0.0,0.0,0.0,0.0,0.0,0.0,0.0,0.0,0.0,0.0,0.0,0.0,0.0,0.0,0.0,0.0,0.0,0.0,0.0,0.0,0.0,0.0,0.0,0.0,0.0,0.0,0.0,0.0,0.0,0.0,0.0,0.0,0.0,0.0,0.0,0.0,0.0,0.0,0.0,0.0,0.0,0.0,0.0,0.0,0.0,0.0,0.0,0.0,0.0,0.0,0.0,0.0,0.0,0.0,0.0,0.0,0.0,0.0,0.0,0.0,0.0,0.0,0.0,0.0,0.0,0.0,0.0,0.0,0.0,0.0,0.0,0.0,0.0,0.0,0.0,0.0,0.0,0.0,0.0,0.0,0.0,0.0,0.0,0.0,0.0,0.0,0.0,0.0,0.0,0.0,0.0,0.0,0.0,0.0,0.0,0.0,0.0,0.0,0.0,0.0,0.0,0.0,0.0,0.0,0.0,0.0,0.0,0.0,0.0,0.0,0.0,0.0,0.0,0.0,0.0,0.0,0.0,0.0,0.0,0.0,0.0,0.0,0.0,0.0,0.0,0.0,0.0,0.0,0.0,0.0,0.0,0.0,0.0,0.0,0.0,0.0,0.0,0.0,0.0,0.0,0.0,0.0,0.0,0.0,0.0,0.0,0.0,0.0,0.0,0.0,0.0,0.0,0.0,0.0,0.0,0.0,0.0,0.0,0.0,0.0,0.0,0.0,0.0,0.0,0.0,0.0,0.0,0.0,0.0,0.0,0.0,0.0,0.0,0.0,0.0,0.0,0.0,0.0,0.0,0.0,0.0,0.0,0.0,0.0,0.0,0.0,0.0,0.0,0.0,0.0,0.0,0.0,0.0,0.0,0.0,0.0,0.0,0.0,0.0,0.0,0.0,0.0,0.0,0.0,0.0,0.0,0.0,0.0,0.0,0.0,0.0,0.0,0.0,0.0,0.0,0.0,0.0,0.0,0.0,0.0,0.0,0.0,0.0,0.0,0.0,0.0,0.0,0.0,0.0,0.0,0.0,0.0,0.0,0.0,0.0,0.0,0.0,0.0,0.0,0.0,0.0,0.0,0.0,0.0,0.0,0.0,0.0,0.0,0.0,0.0,0.0,0.0,0.0,0.0,0.0,0.0,0.0,0.0,0.0,0.0,0.0,0.0,0.0,0.0,0.0,0.0,0.0,0.0,0.0,0.0,0.0,0.0,0.0,0.0,0.0,0.0,0.0,0.0,0.0,0.0,0.0,0.0,0.0,0.0,0.0,0.0,0.0,0.0,0.0,0.0,0.0,0.0,0.0,0.0,0.0,0.0,0.0,0.0,0.0,0.0,0.0,0.0,0.0,0.0,0.0,0.0,0.0,0.0,0.0,0.0,0.0,0.0,0.0,0.0,0.0,0.0,0.0,0.0,0.0,0.0,0.0,0.0,0.0,0.0,0.0,0.0,0.0,0.0,0.0,0.0,0.0,0.0,0.0,0.0,0.0,0.0,0.0,0.0,0.0,0.0,0.0,0.0,0.0,0.0,0.0,0.0,0.0,0.0,0.0,0.0,0.0,0.0,0.0,0.0,0.0,0.0,0.0,0.0,0.0,0.0,0.0,0.0,0.0,0.0,0.0,0.0,0.0,0.0,0.0,0.0,0.0,0.0,0.0,0.0,0.0,0.0,0.0,0.0,0.0,0.0,0.0,0.0,0.0,0.0,0.0,0.0,0.0,0.0,0.0,0.0,0.0,0.0,0.0,0.0,0.0,0.0,0.0,0.0,0.0,0.0,0.0,0.0,0.0,0.0,0.0,0.0,0.0,0.0,0.0,0.0,0.0,0.0,0.0,0.0,0.0,0.0,0.0,0.0,0.0,0.0,0.0,0.0,0.0,0.0,0.0,0.0,0.0,0.0,0.0,0.0,0.0,0.0,0.0,0.0,0.0,0.0,0.0,0.0,0.0,0.0,0.0,0.0,0.0,0.0,0.0,0.0,0.0,0.0,0.0,0.0,0.0,0.0,0.0,0.0,0.0,0.0,0.0,0.0,0.0,0.0,0.0,0.0,0.0,0.0,0.0,0.0,0.0,0.0,0.0,0.0,0.0,0.0,0.0,0.0,0.0,0.0,0.0,0.0,0.0,0.0,0.0,0.0,0.0,0.0,0.0,0.0,0.0,0.0,0.0,0.0,0.0,0.0,0.0,0.0,0.0,0.0,0.0,0.0,0.0,0.0,0.0,0.0,0.0,0.0,0.0,0.0,0.0,0.0,0.0,0.0,0.0,0.0,0.0,0.0,0.0,0.0,0.0,0.0,0.0,0.0,0.0,0.0,0.0,0.0,0.0,0.0,0.0,0.0,0.0,0.0,0.0,0.0,0.0,0.0,0.0,0.0,0.0,0.0,0.0,0.0,0.0,0.0,0.0,0.0,0.0,0.0,0.0,0.0,0.0,0.0,0.0,0.0,0.0,0.0,0.0,0.0,0.0,0.0,0.0,0.0,0.0,0.0,0.0,0.0,0.0,0.0,0.0,0.0,0.0,0.0,0.0,0.0,0.0,0.0,0.0,0.0,0.0,0.0,0.0,0.0,0.0,0.0,0.0,0.0,0.0,0.0,0.0,0.0,0.0,0.0,0.0,0.0,0.0,0.0,0.0,0.0,0.0,0.0,0.0,0.0,0.0,0.0,0.0,0.0,0.0,0.0,0.0,0.0,0.0,0.0,0.0,0.0,0.0,0.0,0.0,0.0,0.0,0.0,0.0,0.0,0.0,0.0,0.0,0.0,0.0,0.0,0.0,0.0,0.0,0.0,0.0,0.0,0.0,0.0,0.0,0.0,0.0,0.0,0.0,0.0,0.0,0.0,0.0,0.0,0.0,0.0,0.0,0.0,0.0,0.0,0.0,0.0,0.0,0.0,0.0,0.0,0.0,0.0,0.0,0.0,0.0,0.0,0.0,0.0,0.0,0.0,0.0,0.0,0.0,0.0,0.0,0.0,0.0,0.0,0.0,0.0,0.0,0.0,0.0,0.0,0.0,0.0,0.0,0.0,0.0,0.0,0.0,0.0,0.0,0.0,0.0,0.0,0.0,0.0,0.0,0.0,0.0,0.0,0.0,0.0,0.0,0.0,0.0,0.0,0.0,0.0,0.0,0.0,0.0,0.0,0.0,0.0,0.0,0.0,0.0,0.0,0.0,0.0,0.0,0.0,0.0,0.0,0.0,0.0,0.0,0.0,0.0,0.0,0.0,0.0,0.0,0.0,0.0,0.0,0.0,0.0,0.0,0.0,0.0,0.0,0.0,0.0,0.0,0.0,0.0,0.0,0.0,0.0,0.0,0.0,0.0,0.0,0.0,0.0,0.0,0.0,0.0,0.0,0.0,0.0,0.0,0.0,0.0,0.0,0.0,0.0,0.0,0.0,0.0,0.0,0.0,0.0,0.0,0.0,0.0,0.0,0.0,0.0,0.0,0.0,0.0,0.0,0.0,0.3323,0.0,0.0,0.0,0.3584,0.0,0.0,0.0,0.0,0.0,0.0,0.0,0.0,0.0,0.0,0.0,0.0,0.0,0.0,0.0,0.0,0.0,0.0,0.0,0.0,0.0,0.0,0.0,0.0,0.0,0.0,0.0,0.0,0.0,0.0,0.0,0.0,0.0,0.0,0.0,0.0,0.0,0.0,0.0,0.0,0.0,0.0,0.0,0.0,0.0,0.0,0.0,0.0,0.0,0.0,0.0,0.0,0.0,0.0,0.0,0.0,0.0,0.0,0.0,0.0,0.0,0.0,0.0,0.0,0.0,0.0,0.0,0.0,0.0,0.0,0.0,0.0,0.0,0.0,0.0,0.0,0.0,0.0,0.0,0.0,0.0,0.0,0.0,0.0,0.0,0.0,0.0,0.0,0.0,0.0,0.0,0.0,0.0,0.0,0.0,0.0,0.0,0.0,0.0,0.0,0.0,0.0,0.0,0.0,0.0,0.0,0.0,0.0,0.0,0.0,0.3387,0.3454,0.3514,0.3579,0.365,0.0,0.0,0.0,0.0,0.0,0.0,0.0,0.0,0.0,0.0,0.0,0.0,0.0,0.0,0.0,0.0,0.0,0.0,0.0,0.0,0.0,0.0,0.0,0.0,0.0,0.0,0.0,0.0,0.0,0.0,0.0,0.0,0.0,0.0,0.0,0.0,0.0,0.0,0.0,0.0,0.0,0.0,0.0,0.0,0.0,0.0,0.0,0.0,0.0,0.0,0.0,0.0,0.0,0.0,0.0,0.0,0.0,0.0,0.0,0.0,0.0,0.0,0.0,0.0,0.0,0.0,0.0,0.0,0.0,0.0,0.0,0.0,0.0,0.0,0.0,0.0,0.0,0.0,0.0,0.0,0.0,0.0,0.0,0.0,0.0,0.0,0.0,0.0,0.0,0.0,0.0,0.0,0.0,0.0,0.0,0.0,0.0,0.0,0.0,0.0,0.0,0.0,0.0,0.0,0.0,0.0,0.0,0.0,0.0,0.0,0.0,0.0,0.3541,0.3624,0.3735,0.0,0.0,0.0,0.0,0.0,0.0,0.0,0.0,0.0,0.0,0.0,0.0,0.0,0.0,0.0,0.0,0.0,0.0,0.0,0.0,0.0,0.0,0.0,0.0,0.0,0.0,0.0,0.0,0.0,0.0,0.0,0.0,0.0,0.0,0.0,0.0,0.0,0.0,0.0,0.0,0.0,0.0,0.0,0.0,0.0,0.0,0.0,0.0,0.0,0.0,0.0,0.0,0.0,0.0,0.0,0.0,0.0,0.0,0.0,0.0,0.0,0.0,0.0,0.0,0.0,0.0,0.0,0.0,0.0,0.0,0.0,0.0,0.0,0.0,0.0,0.0,0.0,0.0,0.0,0.0,0.0,0.0,0.0,0.0,0.0,0.0,0.0,0.0,0.0,0.0,0.0,0.0,0.0,0.0,0.0,0.0,0.0,0.0,0.0,0.0,0.0,0.0,0.0,0.0,0.0,0.0,0.0,0.0,0.0,0.0,0.3382,0.3501,0.3511,0.0,0.3847,0.0,0.0,0.0,0.0,0.0,0.0,0.0,0.0,0.0,0.0,0.0,0.0,0.0,0.0,0.0,0.0,0.0,0.0,0.0,0.0,0.0,0.0,0.0,0.0,0.0,0.0,0.0,0.0,0.0,0.0,0.0,0.0,0.0,0.0,0.0,0.0,0.0,0.0,0.0,0.0,0.0,0.0,0.0,0.0,0.0,0.0,0.0,0.0,0.0,0.0,0.0,0.0,0.0,0.0,0.0,0.0,0.0,0.0,0.0,0.0,0.0,0.0,0.0,0.0,0.0,0.0,0.0,0.0,0.0,0.0,0.0,0.0,0.0,0.0,0.0,0.0,0.0,0.0,0.0,0.0,0.0,0.0,0.0,0.0,0.0,0.0,0.0,0.0,0.0,0.0,0.0,0.0,0.0,0.0,0.0,0.0,0.0,0.0,0.0,0.0,0.0,0.0,0.0,0.0,0.0,0.0,0.0,0.0,0.0,0.0,0.3432,0.3509,0.3536,0.363,0.0,0.0,0.0,0.0,0.0,0.0,0.0,0.0,0.0,0.0,0.0,0.0,0.0,0.0,0.0,0.0,0.0,0.0,0.0,0.0,0.0,0.0,0.0,0.0,0.0,0.0,0.0,0.0,0.0,0.0,0.0,0.0,0.0,0.0,0.0,0.0,0.0,0.0,0.0,0.0,0.0,0.0,0.0,0.0,0.0,0.0,0.0,0.0,0.0,0.0,0.0,0.0,0.0,0.0,0.0,0.0,0.0,0.0,0.0,0.0,0.0,0.0,0.0,0.0,0.0,0.0,0.0,0.0,0.0,0.0,0.0,0.0,0.0,0.0,0.0,0.0,0.0,0.0,0.0,0.0,0.0,0.0,0.0,0.0,0.0,0.0,0.0,0.0,0.0,0.0,0.0,0.0,0.0,0.0,0.0,0.0,0.0,0.0,0.0,0.0,0.0,0.0,0.0,0.0,0.0,0.0,0.0,0.0,0.0,0.0,0.3008,0.3432,0.3419,0.347,0.3552,0.3628,0.0,0.0,0.0,0.0,0.0,0.0,0.0,0.0,0.0,0.0,0.0,0.0,0.0,0.0,0.0,0.0,0.0,0.0,0.0,0.0,0.0,0.0,0.0,0.0,0.0,0.0,0.0,0.0,0.0,0.0,0.0,0.0,0.0,0.0,0.0,0.0,0.0,0.0,0.0,0.0,0.0,0.0,0.0,0.0,0.0,0.0,0.0,0.0,0.0,0.0,0.0,0.0,0.0,0.0,0.0,0.0,0.0,0.0,0.0,0.0,0.0,0.0,0.0,0.0,0.0,0.0,0.0,0.0,0.0,0.0,0.0,0.0,0.0,0.0,0.0,0.0,0.0,0.0,0.0,0.0,0.0,0.0,0.0,0.0,0.0,0.0,0.0,0.0,0.0,0.0,0.0,0.0,0.0,0.0,0.0,0.0,0.0,0.0,0.0,0.0,0.0,0.0,0.0,0.0,0.0,0.0,0.0,0.0,0.2045,0.2857,0.3281,0.322,0.3203,0.3319,0.0,0.0,0.0,0.0,0.0,0.0,0.0,0.0,0.0,0.0,0.0,0.0,0.0,0.0,0.0,0.0,0.0,0.0,0.0,0.0,0.0,0.0,0.0,0.0,0.0,0.0,0.0,0.0,0.0,0.0,0.0,0.0,0.0,0.0,0.0,0.0,0.0,0.0,0.0,0.0,0.0,0.0,0.0,0.0,0.0,0.0,0.0,0.0,0.0,0.0,0.0,0.0,0.0,0.0,0.0,0.0,0.0,0.0,0.0,0.0,0.0,0.0,0.0,0.0,0.0,0.0,0.0,0.0,0.0,0.0,0.0,0.0,0.0,0.0,0.0,0.0,0.0,0.0,0.0,0.0,0.0,0.0,0.0,0.0,0.0,0.0,0.0,0.0,0.0,0.0,0.0,0.0,0.0,0.0,0.0,0.0,0.0,0.0,0.0,0.0,0.0,0.0,0.0,0.0,0.0,0.0,0.0,0.0,0.0,0.2057,0.2904,0.3251,0.3026,0.308,0.3171,0.0,0.0,0.0,0.0,0.0,0.0,0.0,0.0,0.0,0.0,0.0,0.0,0.0,0.0,0.0,0.0,0.0,0.0,0.0,0.0,0.0,0.0,0.0,0.0,0.0,0.0,0.0,0.0,0.0,0.0,0.0,0.0,0.0,0.0,0.0,0.0,0.0,0.0,0.0,0.0,0.0,0.0,0.0,0.0,0.0,0.0,0.0,0.0,0.0,0.0,0.0,0.0,0.0,0.0,0.0,0.0,0.0,0.0,0.0,0.0,0.0,0.0,0.0,0.0,0.0,0.0,0.0,0.0,0.0,0.0,0.0,0.0,0.0,0.0,0.0,0.0,0.0,0.0,0.0,0.0,0.0,0.0,0.0,0.0,0.0,0.0,0.0,0.0,0.0,0.0,0.0,0.0,0.0,0.0,0.0,0.0,0.0,0.0,0.0,0.0,0.0,0.0,0.0,0.0,0.0,0.0,0.0,0.0,0.0,0.2424,0.3029,0.3196,0.2861,0.2919,0.2835,0.0,0.0,0.0,0.0,0.0,0.0,0.0,0.0,0.0,0.0,0.0,0.0,0.0,0.0,0.0,0.0,0.0,0.0,0.0,0.0,0.0,0.0,0.0,0.0,0.0,0.0,0.0,0.0,0.0,0.0,0.0,0.0,0.0,0.0,0.0,0.0,0.0,0.0,0.0,0.0,0.0,0.0,0.0,0.0,0.0,0.0,0.0,0.0,0.0,0.0,0.0,0.0,0.0,0.0,0.0,0.0,0.0,0.0,0.0,0.0,0.0,0.0,0.0,0.0,0.0,0.0,0.0,0.0,0.0,0.0,0.0,0.0,0.0,0.0,0.0,0.0,0.0,0.0,0.0,0.0,0.0,0.0,0.0,0.0,0.0,0.0,0.0,0.0,0.0,0.0,0.0,0.0,0.0,0.0,0.0,0.0,0.0,0.0,0.0,0.0,0.0,0.0,0.0,0.0,0.0,0.0,0.0,0.0,0.2488,0.3271,0.3319,0.3145,0.2743,0.2714,0.2332,0.0,0.0,0.0,0.0,0.0,0.0,0.0,0.0,0.0,0.0,0.0,0.0,0.0,0.0,0.0,0.0,0.0,0.0,0.0,0.0,0.0,0.0,0.0,0.0,0.0,0.0,0.0,0.0,0.0,0.0,0.0,0.0,0.0,0.0,0.0,0.0,0.0,0.0,0.0,0.0,0.0,0.0,0.0,0.0,0.0,0.0,0.0,0.0,0.0,0.0,0.0,0.0,0.0,0.0,0.0,0.0,0.0,0.0,0.0,0.0,0.0,0.0,0.0,0.0,0.0,0.0,0.0,0.0,0.0,0.0,0.0,0.0,0.0,0.0,0.0,0.0,0.0,0.0,0.0,0.0,0.0,0.0,0.0,0.0,0.0,0.0,0.0,0.0,0.0,0.0,0.0,0.0,0.0,0.0,0.0,0.0,0.0,0.0,0.0,0.0,0.0,0.0,0.0,0.0,0.0,0.0,0.0,0.0,0.0,0.393,0.3681,0.3395,0.3064,0.2827,0.2303,0.0,0.0,0.0,0.0,0.0,0.0,0.0,0.0,0.0,0.0,0.0,0.0,0.0,0.0,0.0,0.0,0.0,0.0,0.0,0.0,0.0,0.0,0.0,0.0,0.0,0.0,0.0,0.0,0.0,0.0,0.0,0.0,0.0,0.0,0.0,0.0,0.0,0.0,0.0,0.0,0.0,0.0,0.0,0.0,0.0,0.0,0.0,0.0,0.0,0.0,0.0,0.0,0.0,0.0,0.0,0.0,0.0,0.0,0.0,0.0,0.0,0.0,0.0,0.0,0.0,0.0,0.0,0.0,0.0,0.0,0.0,0.0,0.0,0.0,0.0,0.0,0.0,0.0,0.0,0.0,0.0,0.0,0.0,0.0,0.0,0.0,0.0,0.0,0.0,0.0,0.0,0.0,0.0,0.0,0.0,0.0,0.0,0.0,0.0,0.0,0.0,0.0,0.0,0.0,0.0,0.0,0.0,0.0,0.0,0.4672,0.4159,0.3683,0.3241,0.2871,0.2463,0.1994,0.0,0.0,0.0,0.0,0.0,0.0,0.0,0.0,0.0,0.0,0.0,0.0,0.0,0.0,0.0,0.0,0.0,0.0,0.0,0.0,0.0,0.0,0.0,0.0,0.0,0.0,0.0,0.0,0.0,0.0,0.0,0.0,0.0,0.0,0.0,0.0,0.0,0.0,0.0,0.0,0.0,0.0,0.0,0.0,0.0,0.0,0.0,0.0,0.0,0.0,0.0,0.0,0.0,0.0,0.0,0.0,0.0,0.0,0.0,0.0,0.0,0.0,0.0,0.0,0.0,0.0,0.0,0.0,0.0,0.0,0.0,0.0,0.0,0.0,0.0,0.0,0.0,0.0,0.0,0.0,0.0,0.0,0.0,0.0,0.0,0.0,0.0,0.0,0.0,0.0,0.0,0.0,0.0,0.0,0.0,0.0,0.0,0.0,0.0,0.0,0.0,0.0,0.0,0.0,0.0,0.0,0.0,0.0,0.5457,0.4707,0.4025,0.3386,0.2959,0.2776,0.0,0.0,0.0,0.0,0.0,0.0,0.0,0.0,0.0,0.0,0.0,0.0,0.0,0.0,0.0,0.0,0.0,0.0,0.0,0.0,0.0,0.0,0.0,0.0,0.0,0.0,0.0,0.0,0.0,0.0,0.0,0.0,0.0,0.0,0.0,0.0,0.0,0.0,0.0,0.0,0.0,0.0,0.0,0.0,0.0,0.0,0.0,0.0,0.0,0.0,0.0,0.0,0.0,0.0,0.0,0.0,0.0,0.0,0.0,0.0,0.0,0.0,0.0,0.0,0.0,0.0,0.0,0.0,0.0,0.0,0.0,0.0,0.0,0.0,0.0,0.0,0.0,0.0,0.0,0.0,0.0,0.0,0.0,0.0,0.0,0.0,0.0,0.0,0.0,0.0,0.0,0.0,0.0,0.0,0.0,0.0,0.0,0.0,0.0,0.0,0.0,0.0,0.0,0.0,0.0,0.0,0.0,0.0,0.0,0.5068,0.5472,0.5174,0.4162,0.3936,0.3455,0.0,0.0,0.0,0.0,0.0,0.0,0.0,0.0,0.0,0.0,0.0,0.0,0.0,0.0,0.0,0.0,0.0,0.0,0.0,0.0,0.0,0.0,0.0,0.0,0.0,0.0,0.0,0.0,0.0,0.0,0.0,0.0,0.0,0.0,0.0,0.0,0.0,0.0,0.0,0.0,0.0,0.0,0.0,0.0,0.0,0.0,0.0,0.0,0.0,0.0,0.0,0.0,0.0,0.0,0.0,0.0,0.0,0.0,0.0,0.0,0.0,0.0,0.0,0.0,0.0,0.0,0.0,0.0,0.0,0.0,0.0,0.0,0.0,0.0,0.0,0.0,0.0,0.0,0.0,0.0,0.0,0.0,0.0,0.0,0.0,0.0,0.0,0.0,0.0,0.0,0.0,0.0,0.0,0.0,0.0,0.0,0.0,0.0,0.0,0.0,0.0,0.0,0.0,0.0,0.0,0.0,0.0,0.0,0.5171,0.5312,0.5672,0.5609,0.5082,0.4565,0.3935,0.0,0.0,0.0,0.0,0.0,0.0,0.0,0.0,0.0,0.0,0.0,0.0,0.0,0.0,0.0,0.0,0.0,0.0,0.0,0.0,0.0,0.0,0.0,0.0,0.0,0.0,0.0,0.0,0.0,0.0,0.0,0.0,0.0,0.0,0.0,0.0,0.0,0.0,0.0,0.0,0.0,0.0,0.0,0.0,0.0,0.0,0.0,0.0,0.0,0.0,0.0,0.0,0.0,0.0,0.0,0.0,0.0,0.0,0.0,0.0,0.0,0.0,0.0,0.0,0.0,0.0,0.0,0.0,0.0,0.0,0.0,0.0,0.0,0.0,0.0,0.0,0.0,0.0,0.0,0.0,0.0,0.0,0.0,0.0,0.0,0.0,0.0,0.0,0.0,0.0,0.0,0.0,0.0,0.0,0.0,0.0,0.0,0.0,0.0,0.0,0.0,0.0,0.0,0.0,0.0,0.0,0.0,0.0,0.5356,0.5945,0.5697,0.5707,0.6029,0.5003,0.4271,0.0,0.0,0.0,0.0,0.0,0.0,0.0,0.0,0.0,0.0,0.0,0.0,0.0,0.0,0.0,0.0,0.0,0.0,0.0,0.0,0.0,0.0,0.0,0.0,0.0,0.0,0.0,0.0,0.0,0.0,0.0,0.0,0.0,0.0,0.0,0.0,0.0,0.0,0.0,0.0,0.0,0.0,0.0,0.0,0.0,0.0,0.0,0.0,0.0,0.0,0.0,0.0,0.0,0.0,0.0,0.0,0.0,0.0,0.0,0.0,0.0,0.0,0.0,0.0,0.0,0.0,0.0,0.0,0.0,0.0,0.0,0.0,0.0,0.0,0.0,0.0,0.0,0.0,0.0,0.0,0.0,0.0,0.0,0.0,0.0,0.0,0.0,0.0,0.0,0.0,0.0,0.0,0.0,0.0,0.0,0.0,0.0,0.0,0.0,0.0,0.0,0.0,0.0,0.0,0.0,0.0,0.0,0.0,0.5797,0.6296,0.6421,0.6529,0.6631,0.569,0.4793,0.0,0.0,0.0,0.0,0.0,0.0,0.0,0.0,0.0,0.0,0.0,0.0,0.0,0.0,0.0,0.0,0.0,0.0,0.0,0.0,0.0,0.0,0.0,0.0,0.0,0.0,0.0,0.0,0.0,0.0,0.0,0.0,0.0,0.0,0.0,0.0,0.0,0.0,0.0,0.0,0.0,0.0,0.0,0.0,0.0,0.0,0.0,0.0,0.3049,0.0,0.0,0.0,0.0,0.0,0.0,0.0,0.0,0.0,0.0,0.0,0.0,0.0,0.0,0.0,0.0,0.0,0.0,0.0,0.0,0.0,0.0,0.0,0.0,0.0,0.0,0.0,0.0,0.0,0.0,0.0,0.0,0.0,0.0,0.0,0.0,0.0,0.0,0.0,0.0,0.0,0.0,0.0,0.0,0.0,0.0,0.0,0.0,0.0,0.0,0.0,0.0,0.0,0.0,0.0,0.0,0.0,0.0,0.0,0.6114,0.6475,0.6888,0.7035,0.6978,0.6117,0.5189,0.0,0.0,0.0,0.0,0.0,0.0,0.0,0.0,0.0,0.0,0.0,0.0,0.0,0.0,0.0,0.0,0.0,0.0,0.0,0.0,0.0,0.0,0.0,0.0,0.0,0.0,0.0,0.0,0.0,0.0,0.0,0.0,0.0,0.0,0.0,0.0,0.0,0.0,0.0,0.0,0.0,0.0,0.0,0.0,0.0,0.0,0.0,0.0,0.0,0.0,0.0,0.0,0.0,0.0,0.0,0.0,0.0,0.0,0.0,0.0,0.0,0.0,0.0,0.0,0.0,0.0,0.0,0.0,0.0,0.0,0.0,0.0,0.0,0.0,0.0,0.0,0.0,0.0,0.0,0.0,0.0,0.0,0.0,0.0,0.0,0.0,0.0,0.0,0.0,0.0,0.0,0.0,0.0,0.0,0.0,0.0,0.0,0.0,0.0,0.0,0.0,0.0,0.0,0.0,0.0,0.0,0.0,0.5793,0.6398,0.6721,0.7195,0.7372,0.7246,0.6384,0.5532,0.472,0.0,0.0,0.0,0.0,0.0,0.0,0.0,0.0,0.0,0.0,0.0,0.0,0.0,0.0,0.0,0.0,0.0,0.0,0.0,0.0,0.0,0.0,0.0,0.0,0.0,0.0,0.0,0.0,0.0,0.0,0.0,0.0,0.0,0.0,0.0,0.0,0.0,0.0,0.5437,0.6091,0.0,0.0,0.0,0.0,0.0,0.0,0.0,0.0,0.447,0.0,0.0,0.0,0.0,0.0,0.0,0.0,0.0,0.0,0.0,0.0,0.0,0.0,0.0,0.0,0.0,0.0,0.0,0.0,0.0,0.0,0.0,0.0,0.0,0.0,0.0,0.0,0.0,0.0,0.0,0.0,0.0,0.0,0.0,0.0,0.0,0.0,0.0,0.0,0.0,0.0,0.0,0.0,0.0,0.0,0.0,0.0,0.0,0.0,0.0,0.0,0.0,0.0,0.0,0.0,0.0,0.5462,0.6074,0.6668,0.726,0.752,0.7578,0.7423,0.6497,0.5681,0.5019,0.0,0.0,0.0,0.0,0.0,0.0,0.0,0.0,0.0,0.0,0.0,0.0,0.0,0.0,0.0,0.0,0.0,0.0,0.0,0.0,0.0,0.0,0.0,0.0,0.0,0.0,0.0,0.0,0.0,0.0,0.0,0.0,0.0,0.0,0.0,0.0,0.0,0.0,0.0,0.7729,0.8469,0.0,0.0,0.0,0.0,0.0,0.0,0.0,0.0,0.4824,0.0,0.0,0.0,0.0,0.0,0.0,0.0,0.0,0.0,0.0,0.0,0.0,0.0,0.0,0.0,0.0,0.0,0.0,0.0,0.0,0.0,0.0,0.0,0.0,0.0,0.0,0.0,0.0,0.0,0.0,0.0,0.0,0.0,0.0,0.0,0.0,0.0,0.0,0.0,0.0,0.0,0.0,0.0,0.0,0.0,0.0,0.0,0.0,0.0,0.0,0.0,0.0,0.0,0.0,0.0,0.5627,0.6102,0.6706,0.7481,0.7627,0.7666,0.7588,0.6787,0.5996,0.0,0.0,0.0,0.0,0.0,0.0,0.0,0.0,0.0,0.0,0.0,0.0,0.0,0.0,0.0,0.0,0.0,0.0,0.0,0.0,0.0,0.0,0.0,0.0,0.0,0.0,0.0,0.0,0.0,0.0,0.0,0.0,0.0,0.0,0.0,0.0,0.0,0.0,0.0,0.0,0.8479,0.9522,0.9033,0.0,0.0,0.0,0.0,0.0,0.0,0.6716,0.6026,0.0,0.0,0.0,0.0,0.0,0.0,0.0,0.0,0.0,0.0,0.0,0.0,0.0,0.0,0.0,0.0,0.0,0.0,0.0,0.0,0.0,0.0,0.0,0.0,0.0,0.0,0.0,0.0,0.0,0.0,0.0,0.0,0.0,0.0,0.0,0.0,0.0,0.0,0.0,0.0,0.0,0.0,0.0,0.0,0.0,0.0,0.0,0.0,0.0,0.0,0.0,0.0,0.0,0.0,0.0,0.5667,0.6112,0.6742,0.754,0.7656,0.7695,0.7676,0.705,0.6229,0.0,0.0,0.0,0.0,0.0,0.0,0.0,0.0,0.0,0.0,0.0,0.0,0.0,0.0,0.0,0.0,0.0,0.0,0.0,0.0,0.0,0.0,0.0,0.0,0.0,0.0,0.0,0.0,0.0,0.0,0.0,0.0,0.0,0.0,0.0,0.0,0.0,0.0,0.0,0.0,0.0,1.0312,1.0405,0.9358,0.0,0.0,0.0,0.0,0.888,0.8414,0.0,0.0,0.0,0.0,0.0,0.0,0.0,0.0,0.0,0.0,0.0,0.0,0.0,0.0,0.0,0.0,0.0,0.0,0.0,0.0,0.0,0.0,0.0,0.0,0.0,0.0,0.0,0.0,0.0,0.0,0.0,0.0,0.0,0.0,0.0,0.0,0.0,0.0,0.0,0.0,0.0,0.0,0.0,0.0,0.0,0.0,0.0,0.0,0.0,0.0,0.0,0.0,0.0,0.0,0.0,0.0,0.5686,0.6154,0.6804,0.756,0.7656,0.7695,0.7686,0.6979,0.6186,0.0,0.0,0.0,0.0,0.0,0.0,0.0,0.0,0.0,0.0,0.0,0.0,0.0,0.0,0.0,0.0,0.0,0.0,0.0,0.0,0.0,0.0,0.0,0.0,0.0,0.0,0.0,0.0,0.0,0.0,0.0,0.0,0.0,0.0,0.0,0.0,0.0,0.0,0.0,0.0,0.0,1.1002,1.0554,1.091,1.0851,0.0,0.0,1.0367,1.0446,0.9887,0.0,0.0,0.0,0.0,0.0,0.0,0.0,0.0,0.0,0.0,0.0,0.0,0.0,0.0,0.0,0.0,0.0,0.0,0.0,0.0,0.0,0.0,0.0,0.0,0.0,0.0,0.0,0.0,0.0,0.0,0.0,0.0,0.0,0.0,0.0,0.0,0.0,0.0,0.0,0.0,0.0,0.0,0.0,0.0,0.0,0.0,0.0,0.0,0.0,0.0,0.0,0.0,0.0,0.0,0.0,0.4903,0.5734,0.6169,0.682,0.7618,0.7695,0.7695,0.7695,0.7014,0.6274,0.0,0.0,0.0,0.0,0.0,0.0,0.0,0.0,0.0,0.0,0.0,0.0,0.0,0.0,0.0,0.0,0.0,0.0,0.0,0.0,0.0,0.0,0.0,0.0,0.0,0.0,0.0,0.0,0.0,0.0,0.0,0.0,0.0,0.0,0.0,0.0,0.0,0.0,0.0,0.0,0.0,0.0,1.1024,1.1785,0.0,0.0,0.0,1.2611,1.296,0.0,0.0,0.0,0.0,0.0,0.0,0.0,0.0,0.0,0.0,0.0,0.0,0.0,0.0,0.0,0.0,0.0,0.0,0.0,0.0,0.0,0.0,0.0,0.0,0.0,0.0,0.0,0.0,0.0,0.0,0.0,0.0,0.0,0.0,0.0,0.0,0.0,0.0,0.0,0.0,0.0,0.0,0.0,0.0,0.0,0.0,0.0,0.0,0.0,0.0,0.0,0.0,0.0,0.0,0.0,0.0,0.0,0.5774,0.6215,0.68,0.7656,0.7695,0.7695,0.7686,0.7114,0.0,0.0,0.0,0.0,0.0,0.0,0.0,0.0,0.0,0.0,0.0,0.0,0.0,0.0,0.0,0.0,0.0,0.0,0.0,0.0,0.0,0.0,0.0,0.0,0.0,0.0,0.0,0.0271,0.0,0.0,0.0,0.0,0.0,0.0,0.0,0.0,0.0,0.0,0.0,0.0,0.0,0.0,1.0799,1.1732,1.2971,1.3765,0.0,0.0,1.4722,1.5229,1.5007,1.424,0.0,0.0,0.0,0.0,0.0,0.0,0.0,0.0,0.0,0.0,0.0,0.0,0.0,0.0,0.0,0.0,0.0,0.0,0.0,0.0,0.0,0.0,0.0,0.0,0.0,0.0,0.0,0.0,0.0,0.0,0.0,0.0,0.0,0.0,0.0,0.0,0.0,0.0,0.0,0.0,0.0,0.0,0.0,0.0,0.0,0.0,0.0,0.0,0.0,0.0,0.0,0.0,0.0,0.0,0.4933,0.5785,0.6183,0.682,0.7656,0.7695,0.7695,0.7686,0.7368,0.6605,0.0,0.0,0.0,0.0,0.0,0.0,0.0,0.0,0.0,0.0,0.0,0.0,0.0,0.0,0.0,0.0,0.0,0.0,0.0,0.0,0.0,0.0,0.0,0.0,0.0,0.0,0.0,0.0,0.0,0.0,0.0,0.0,0.0,0.0,0.0,0.0,0.0,0.0,0.0,0.0,0.0,1.2594,1.2873,1.4939,1.6234,0.0,1.6129,1.6563,1.6744,1.7164,1.6668,1.4333,0.0,0.0,0.0,0.0,0.0,0.0,0.0,0.0,0.0,0.0,0.0,0.0,0.0,0.0,0.0,0.0,0.0,0.0,0.0,0.0,0.0,0.0,0.0,0.0,0.0,0.0,0.0,0.0,0.0,0.0,0.0,0.0,0.0,0.0,0.0,0.0,0.0,0.0,0.0,0.0,0.0,0.0,0.0,0.0,0.0,0.0,0.0,0.0,0.0,0.0,0.0,0.0,0.0,0.4933,0.5803,0.6477,0.7256,0.8096,0.8379,0.8516,0.8516,0.7891,0.7166,0.0,0.0,0.0,0.0,0.0,0.0,0.0,0.0,0.0,0.0,0.0,0.0,0.0,0.0,0.0,0.0,0.0,0.0,0.0,0.0,0.0,0.0,0.0,0.0,0.0,0.0,0.0,0.0,0.5731,0.5415,0.4143,0.0,0.0,0.0,0.0,0.0,0.0,0.0,0.0,0.0,0.0,1.3515,1.5208,1.6608,0.0,0.0,1.7135,1.7378,1.7015,1.8163,1.812,1.5213,1.2251,0.0,0.0,0.0,0.0,0.0,0.0,0.0,0.0,0.0,0.0,0.0,0.0,0.0,0.0,0.0,0.0,0.0,0.0,0.0,0.0,0.0,0.0,0.0,0.0,0.0,0.0,0.0,0.0,0.0,0.0,0.0,0.0,0.0,0.0,0.0,0.0,0.0,0.0,0.0,0.0,0.0,0.0,0.0,0.0,0.0,0.0,0.0,0.0,0.0,0.0,0.0,0.0,0.5263,0.5989,0.6849,0.7705,0.8577,0.8857,0.9004,0.8984,0.844,0.7781,0.0,0.0,0.0,0.0,0.0,0.0,0.0,0.0,0.0,0.0,0.0,0.0,0.0,0.0,0.0,0.0,0.0,0.0,0.0,0.0,0.0,0.0,0.0,0.0,0.0,0.0,0.0,0.0,0.5921,0.5401,0.4517,0.0,0.0,0.0,0.0,0.0,0.0,0.0,0.0,0.0,0.0,1.4449,1.7055,1.805,1.8268,1.768,1.8015,1.8078,1.7441,1.8488,1.8472,1.5839,0.0,0.0,0.0,0.0,0.0,0.0,0.0,0.0,0.0,0.0,0.0,0.0,0.0,0.0,0.0,0.0,0.0,0.0,0.0,0.0,0.0,0.0,0.0,0.0,0.0,0.0,0.0,0.0,0.0,0.0,0.0,0.0,0.0,0.0,0.0,0.0,0.0,0.0,0.0,0.0,0.0,0.0,0.0,0.0,0.0,0.0,0.0,0.0,0.0,0.0,0.0,0.0,0.0,0.5997,0.6492,0.7285,0.8104,0.8931,0.9004,0.9033,0.9033,0.8984,0.8411,0.7233,0.0,0.0,0.0,0.0,0.0,0.0,0.0,0.0,0.0,0.0,0.0,0.0,0.0,0.0,0.0,0.0,0.0,0.0,0.0,0.0,0.0,0.0,0.0,0.0,0.0,0.0,0.6193,0.5629,0.533,0.0,0.0,0.0,0.0,0.0,0.0,0.0,0.0,0.0,0.0,1.5175,1.5505,1.8002,1.9196,1.9461,1.857,1.8758,1.8748,1.8097,1.805,1.7608,0.0,0.0,0.0,0.0,0.0,0.0,0.0,0.0,0.0,0.0,0.0,0.0,0.0,0.0,0.0,0.0,0.0,0.0,0.0,0.0,0.0,0.0,0.0,0.0,0.0,0.0,0.0,0.3785,0.3578,0.0,0.0,0.0,0.0,0.0,0.0,0.0,0.0,0.0,0.0,0.0,0.3615,0.3534,0.0,0.0,0.0,0.0,0.0,0.0,0.0,0.0,0.0,0.0,0.0,0.0,0.6112,0.688,0.7649,0.8379,0.9128,0.9496,0.9639,0.9554,0.9398,0.8852,0.7812,0.0,0.0,0.0,0.0,0.0,0.0,0.0,0.0,0.0,0.0,0.0,0.0,0.0,0.0,0.0,0.0,0.0,0.0,0.0,0.0,0.0,0.0,0.0,0.0,0.0,0.7277,0.0,0.0,0.0,0.0,0.0,0.0,0.0,0.0,0.0,0.0,0.0,1.3259,1.6698,1.6728,1.694,1.8407,1.9331,1.9496,0.0,0.0,0.0,0.0,0.0,0.0,0.0,0.0,0.0,0.0,0.0,0.0,0.0,0.0,1.2215,0.9127,0.9142,1.0088,1.155,0.0,0.0,0.0,0.0,0.0,0.0,0.0,0.0,0.0,0.0,0.0,0.0,0.0,0.0,0.4525,0.0,0.3374,0.0,0.0,0.0,0.0,0.0,0.0,0.0,0.0,0.441,0.4147,0.3747,0.3655,0.3634,0.0,0.3692,0.4371,0.0,0.0,0.0,0.0,0.0,0.0,0.0,0.0,0.6681,0.7377,0.8073,0.8697,0.9281,0.9644,0.9813,0.9774,0.9583,0.9248,0.8787,0.8035,0.7303,0.0,0.0,0.0,0.0,0.0,0.0,0.0,0.0,0.0,0.0,0.0,0.0,0.0,0.0,0.0,0.0,0.0,0.0,0.0,0.0,0.0,0.0,0.0,0.7081,0.0,0.0,0.0,0.0,0.0,0.0,0.0,0.0,0.0,1.0503,1.2084,1.46,1.7942,1.7857,1.7844,1.8916,0.0,0.0,0.0,0.0,0.0,0.0,0.0,1.6585,1.6496,1.7394,1.7649,1.6127,1.5704,1.6259,1.8238,0.0,0.0,1.2546,1.1931,1.2553,1.471,1.4109,1.3351,1.3946,1.4325,1.47,0.0,0.0,0.0,0.0,0.0,0.0,0.0,0.0,0.336,0.3693,0.0,0.3788,0.0,0.0,0.0,0.0,0.0,0.4039,0.0,0.0,0.3772,0.358,0.3614,0.3688,0.3763,0.3912,0.4242,0.4794,0.547,0.5542,0.0,0.0,0.0,0.0,0.0,0.0,0.7695,0.791,0.8443,0.8996,0.9421,0.9478,0.9576,0.9713,0.9601,0.9668,0.9965,0.9117,0.8318,0.7682,0.6457,0.0,0.0,0.0,0.0,0.0,0.0,0.0,0.0,0.0,0.0,0.0,0.0,0.0,0.0,0.0,0.0,0.0,0.0,0.0,0.0,0.8257,0.0,0.0,0.0,0.0,0.0,0.0,0.0,0.0,0.0,0.0,1.2968,1.4194,1.627,1.9276,0.0,0.0,0.0,0.0,1.9747,1.9854,1.9394,1.8624,1.7578,1.7395,1.7364,1.7273,0.0,0.0,1.7817,1.736,1.7633,1.9426,1.9261,1.8245,1.6248,1.5214,1.5366,1.7354,1.6831,1.6219,1.6574,1.6654,1.6713,0.1224,0.0,0.0,0.0,0.0,0.309,0.3046,0.2745,0.3399,0.355,0.3367,0.2978,0.0,0.0,0.0,0.0,0.0,0.0,0.3991,0.4144,0.4059,0.3888,0.3742,0.3846,0.3982,0.4082,0.4479,0.4969,0.5481,0.567,0.5625,0.5411,0.0,0.0,0.0,0.0,0.718,0.7942,0.8324,0.86,0.8732,0.8886,0.9226,0.9683,0.9711,0.9877,1.0164,0.9633,0.9193,0.8879,0.7855,0.0,0.0,0.0,0.0,0.0,0.0,0.0,0.0,0.0,0.0,0.0,0.0,0.0,0.0,0.0,0.0,0.0,0.0,0.0,1.0825,0.9875,0.8379,0.0,0.0,0.0,0.0,0.0,0.0,0.0,0.0,0.0,1.7273,1.7303,1.7725,0.0,0.0,1.9256,1.963,1.9705,1.9726,1.9762,1.9325,0.0,1.7562,1.7818,1.818,1.8132,1.8786,1.9271,1.9151,1.9396,1.9936,2.0946,2.0923,2.0258,1.8927,1.8407,1.8663,1.9886,1.9952,1.9575,1.9258,1.9357,1.9473,0.0139,0.0946,0.1734,0.2177,0.2346,0.2528,0.2462,0.2221,0.2552,0.2571,0.2327,0.1904,0.2092,0.2741,0.3226,0.0,0.0,0.0,0.3714,0.3913,0.3898,0.3854,0.3757,0.3959,0.4118,0.4278,0.4703,0.522,0.5815,0.5906,0.6179,0.6546,0.0,0.0,0.6356,0.6748,0.7323,0.804,0.8202,0.8238,0.8234,0.8529,0.8984,0.9585,0.9901,1.0226,1.0537,1.0439,1.0251,0.9884,0.9386,0.8433,0.0,0.0,0.0,0.0,0.0,0.0,0.0,0.0,0.0,0.0,0.0,0.7364,0.6614,0.0,0.0,0.0,0.7457,0.9554,1.1985,1.1255,0.0,0.0,0.0,0.0,0.0,0.0,0.0,1.338,1.4231,1.6021,1.9246,1.9071,1.8876,1.9621,1.9705,1.9705,1.9705,0.0,1.9869,2.0393,2.0038,1.9336,1.8465,1.914,1.9782,1.9767,2.013,2.0228,1.9779,2.0468,2.1395,2.2143,2.1958,2.1268,2.0466,2.0317,2.0448,2.098,2.148,2.1481,2.0573,2.0482,2.0486,-0.1027,-0.0509,0.0886,0.176,0.2166,0.1924,0.1608,0.1329,0.1245,0.1153,0.103,0.0789,0.0838,0.1144,0.2312,0.0,0.265,0.2861,0.315,0.3551,0.3548,0.3576,0.3746,0.4046,0.4304,0.4569,0.4921,0.5559,0.6344,0.6355,0.6755,0.75,0.7049,0.6727,0.6717,0.7323,0.7792,0.8163,0.8093,0.8074,0.8097,0.8372,0.8839,0.9533,1.015,1.0637,1.0928,1.1371,1.1318,1.0733,1.0805,1.0193,0.8709,0.0,0.0,0.0,0.0,0.0,0.0,0.0,0.0,0.0,0.0,0.0,0.0,0.0,0.0,0.5145,1.0722,0.0,1.3385,1.259,0.0,0.0,0.0,1.2567,1.2763,1.424,1.5503,1.6053,0.0,0.0,1.948,1.969,1.9705,1.9801,1.9705,1.9705,1.9705,1.9809,2.0288,2.1455,2.1171,2.0557,1.9995,2.0955,2.1665,2.1515,2.1695,2.1201,2.0273,2.0917,2.2188,2.331,2.2524,2.1643,2.1506,2.1451,2.1301,2.0884,2.1711,2.2124,2.1054,2.0612,2.0348,-0.1837,-0.1729,-0.0804,-0.0,0.0643,0.0793,0.0771,0.0777,0.1157,0.1048,0.0565,0.054,0.0638,0.0844,0.1436,0.1777,0.1937,0.2306,0.27,0.308,0.3457,0.3734,0.3872,0.4492,0.4947,0.5226,0.5878,0.6513,0.7002,0.7363,0.7736,0.8115,0.8151,0.7968,0.7454,0.7571,0.7757,0.8061,0.8277,0.8488,0.8739,0.8766,0.9062,0.978,1.0266,1.0647,1.0918,1.1456,1.1626,1.1297,1.0891,1.0702,1.0764,0.942,0.0,0.0,0.0,0.0,0.0,0.0,0.0,0.0,0.0,0.6914,0.7855,0.0,0.8367,0.0,1.3755,1.6383,1.5274,1.4986,0.0,0.0,1.5025,1.5232,1.518,1.6044,1.7182,1.8602,1.8074,1.8104,1.9546,1.9705,1.9884,2.0378,2.0019,1.9705,1.9756,2.0602,2.1321,2.1635,2.1575,2.1395,2.1335,2.2308,2.2787,2.1844,2.171,2.1575,2.1276,2.1889,2.2697,2.3415,2.3213,2.2861,2.2803,2.2644,2.2291,2.1703,2.1801,2.196,2.1685,2.1351,2.0989,-0.2277,-0.219,-0.1657,-0.1089,-0.05,0.0043,0.0346,0.0522,0.0935,0.09,0.0538,0.0483,0.0557,0.0711,0.1002,0.1281,0.1554,0.1956,0.2409,0.2973,0.3488,0.3904,0.4245,0.4854,0.5377,0.5766,0.6448,0.6995,0.7486,0.8048,0.856,0.9038,0.9045,0.9027,0.8878,0.8396,0.8322,0.8595,0.8692,0.88,0.8964,0.8826,0.9148,0.9947,1.052,1.0999,1.1561,1.2119,1.2246,1.1913,1.1511,1.1352,1.1474,1.1108,0.9901,0.0,0.0,0.0,0.0,0.0,0.0,0.0,0.0,0.0,0.0,0.0,1.0017,1.3313,1.6623,1.7984,1.6518,1.6353,1.6548,1.6923,1.7091,1.7182,1.7181,1.7832,1.8646,1.9591,1.9046,1.8867,1.96,2.0197,2.0489,2.0303,2.0602,2.0572,1.9974,2.0991,2.2084,2.2473,2.2203,2.2113,2.2473,2.3131,2.337,2.2727,2.2532,2.2547,2.2547,2.2847,2.3206,2.352,2.3523,2.354,2.3732,2.3287,2.2893,2.3035,2.2647,2.2133,2.1712,2.1361,2.1006,-0.2368,-0.2235,-0.1938,-0.1626,-0.1355,-0.05,0.0045,0.0405,0.0629,0.0719,0.0719,0.0539,0.0586,0.077,0.086,0.1065,0.139,0.1776,0.2344,0.3063,0.3614,0.4118,0.4668,0.5278,0.5834,0.6319,0.6927,0.7487,0.7929,0.8634,0.93,0.9953,0.9853,0.9978,1.0381,0.96,0.9253,0.9464,0.924,0.91,0.9089,0.8914,0.9288,1.017,1.0795,1.1545,1.2361,1.2929,1.2991,1.2477,1.235,1.2057,1.1619,1.2555,1.2188,0.0,0.9498,0.0,0.0,0.0,0.0,0.0,0.0,0.0,0.0,1.0015,1.1525,1.7221,1.8912,1.9046,1.755,1.7447,1.7747,1.8497,1.8587,1.8661,1.8822,1.9346,1.9705,1.9705,1.9705,1.972,1.9936,2.0888,2.1122,2.046,2.1365,2.1739,2.0692,2.1575,2.2757,2.352,2.2966,2.2742,2.331,2.355,2.358,2.3565,2.3625,2.3699,2.3535,2.3684,2.3804,2.3879,2.3894,2.397,2.4378,2.3722,2.3573,2.438,2.3765,2.2777,2.1773,2.1289,2.0832,-0.2233,-0.2105,-0.1859,-0.1602,-0.1368,-0.1023,-0.062,-0.018,0.0405,0.0719,0.0719,0.0855,0.0962,0.1035,0.1083,0.1299,0.1647,0.1995,0.255,0.3268,0.3863,0.4458,0.5071,0.5921,0.6609,0.7075,0.7986,0.8514,0.8631,0.9504,1.0069,1.032,1.0637,1.0871,1.092,0.0,0.0,0.0,0.9906,0.986,1.0181,0.9821,0.9933,1.0657,1.111,0.0,1.2361,1.3128,1.3232,1.269,1.2721,0.0,0.0,0.0,0.0,0.0,0.0,0.0,0.0,0.0,0.0,0.0,1.3516,1.2459,1.2976,1.2796,1.4053,1.7369,1.8912,1.9591,1.9226,1.9196,1.9256,1.9405,1.9435,1.9486,1.951,1.9615,1.9705,1.9705,1.9705,1.9959,2.0617,2.1,2.1315,2.1689,2.2263,2.2667,2.2802,2.3056,2.34,2.355,2.3385,2.337,2.3565,2.3595,2.361,2.3655,2.4088,2.4178,2.3834,2.4268,2.4837,2.5136,2.4941,2.4716,2.4695,2.456,2.4514,2.4727,2.4491,2.3939,2.2738,2.2141,2.1794,-0.2093,0.0,-0.17,-0.1519,0.0,-0.1301,-0.0987,-0.0476,0.0381,0.0857,0.1001,0.1144,0.1302,0.1519,0.1567,0.1749,0.2072,0.2378,0.2923,0.3661,0.4233,0.4912,0.5648,0.653,0.7268,0.7847,0.8652,0.9235,0.9629,1.0277,1.082,1.1234,1.1326,1.1472,1.1589,1.1589,1.1336,1.0902,1.0565,1.0468,1.0588,1.004,1.0175,1.1006,1.1382,0.0,0.0,0.0,0.0,0.0,0.0,0.0,0.0,0.0,0.0,1.4826,1.4001,1.3622,1.396,1.3973,1.478,1.6579,1.5744,1.5471,1.6218,1.5905,1.6456,1.8459,1.9316,1.9705,1.9705,1.9705,1.9705,1.9705,1.9705,1.9705,1.9705,1.9705,1.9705,1.975,2.0085,2.052,2.0932,2.1813,2.2114,2.2109,2.2667,2.3236,2.352,2.3595,2.3595,2.3595,2.3595,2.3595,2.3595,2.3595,2.3759,2.4059,2.4403,2.4552,2.4612,2.4971,2.5493,2.6173,2.6198,2.5927,2.5442,2.5194,2.511,2.5289,2.5177,2.4757,2.3792,2.2753,2.1911,-0.1819,-0.1819,-0.1473,-0.1375,-0.1376,-0.1334,-0.0977,-0.0359,0.0,0.0,0.0,0.1462,0.1722,0.209,0.2083,0.2228,0.2626,0.2946,0.3479,0.4242,0.4791,0.5555,0.6372,0.7128,0.7883,0.8527,0.9256,0.9932,1.0557,1.1023,1.1554,1.21,1.1945,1.1927,1.2076,1.2076,1.1862,1.1447,1.1177,1.0967,1.0867,1.0265,1.041,1.1449,1.171,1.226,1.315,1.3563,1.3786,1.3795,1.3871,1.3609,1.318,1.5187,1.6448,1.6459,1.5386,1.5273,1.6396,1.5621,1.5708,1.7066,1.7222,1.7737,1.8907,1.8341,1.8421,1.9477,1.9639,1.9705,1.9705,1.9705,1.9705,1.9705,1.9705,1.9735,1.9839,1.9869,1.9959,2.0115,2.0723,2.1158,2.13,2.2481,2.3156,2.2394,2.2951,2.3595,2.3595,2.3595,2.3595,2.3595,2.3595,2.3595,2.3625,2.3924,2.4118,2.4462,2.4761,2.5136,2.5495,2.5762,2.6183,2.6652,2.6959,2.663,2.6141,2.5839,2.566,2.6019,2.5688,2.5201,2.4557,2.3258,2.224,-0.1262,-0.1164,-0.1149,-0.1004,-0.0848,-0.0928,-0.0332,0.0716,0.1402,0.1666,0.1666,0.1915,0.2205,0.2536,0.2634,0.2951,0.3434,0.3712,0.4278,0.4959,0.5563,0.6218,0.6972,0.783,0.8521,0.9106,0.988,1.0549,1.1167,1.1578,1.2054,1.2438,1.2302,1.2126,1.1977,1.2026,1.1999,1.1837,1.1656,1.1584,1.1538,1.0992,1.1142,1.1943,1.1964,1.2326,1.3188,1.3563,1.3786,1.3839,1.4783,1.503,1.444,1.5482,1.6287,1.6479,1.6211,1.6156,1.6466,1.6325,1.6481,1.7005,1.7286,1.78,1.8542,1.8792,1.8987,1.9199,1.9472,1.9705,1.9705,1.969,1.9705,1.9735,1.972,1.9914,2.0498,2.0572,2.0767,2.1261,2.15,2.1724,2.2064,2.2544,2.305,2.3278,2.3415,2.3595,2.3595,2.3595,2.3595,2.3595,2.3595,2.3595,2.3759,2.4627,2.5016,2.4627,2.557,2.6033,2.5809,2.6381,2.6645,2.6176,2.6111,2.6094,2.6179,2.6666,2.6451,2.6056,2.5467,2.4948,2.4509,2.378,2.3249,-0.1124,-0.0965,-0.0762,-0.0548,-0.0274,-0.0056,0.0561,0.1399,0.19,0.2086,0.2031,0.2401,0.2743,0.3165,0.333,0.3684,0.4128,0.4463,0.4959,0.5618,0.6213,0.6864,0.7557,0.8415,0.9099,0.9658,1.0498,1.1167,1.1628,1.2026,1.2382,1.2656,1.249,1.2283,1.2026,1.2067,1.2135,1.2116,1.1873,1.1762,1.1752,1.1444,1.1562,1.2124,1.2338,1.2684,1.316,1.3573,1.3914,1.4113,1.4903,1.5289,1.526,1.5714,1.6013,1.6132,1.6318,1.6436,1.6479,1.6534,1.662,1.6846,1.7073,1.7365,1.7774,1.8293,1.8606,1.8644,1.9049,1.9398,1.9472,1.9617,1.9869,2.0251,2.058,2.0902,2.1171,2.1246,2.1365,2.168,2.2009,2.2233,2.2293,2.2802,2.3236,2.3565,2.3595,2.3595,2.3595,2.3595,2.3595,2.3595,2.3595,2.3789,2.4118,2.4941,2.554,2.5644,2.6078,2.6482,2.6572,2.7175,2.6768,2.5715,2.5272,2.5384,2.5742,2.6297,2.6272,2.5715,2.5118,2.4721,2.4408,2.3897,2.345,-0.129,-0.1065,-0.0729,-0.0393,0.0056,0.0561,0.1178,0.1797,0.2242,0.2464,0.2519,0.2907,0.3297,0.3793,0.4076,0.4353,0.4791,0.5179,0.5673,0.6273,0.6799,0.7444,0.809,0.8942,0.9562,1.0123,1.0956,1.1569,1.1977,1.2382,1.2578,1.2676,1.2578,1.2382,1.2076,1.2076,1.2126,1.2206,1.2062,1.1997,1.1988,1.1921,1.2025,1.2346,1.2705,1.2968,1.319,1.3525,1.3858,1.4244,1.4697,1.5153,1.5614,1.5659,1.5703,1.5836,1.6132,1.6392,1.6479,1.6534,1.6522,1.6633,1.6846,1.696,1.7073,1.757,1.7909,1.8029,1.8489,1.8912,1.9139,1.9398,1.9872,2.065,2.16,2.2054,2.1949,2.1874,2.1934,2.2113,2.2577,2.2802,2.2772,2.3176,2.355,2.358,2.3595,2.3595,2.3595,2.3595,2.3625,2.3774,2.3714,2.3969,2.4657,2.5585,2.6153,2.6617,2.6617,2.6935,2.7335,2.753,2.6864,2.5425,2.4607,2.465,2.5077,2.5536,2.5605,2.5104,2.4593,2.4261,2.4073,2.3734,2.3343,-0.1847,-0.1679,-0.1288,-0.0673,-0.0,0.0449,0.1066,0.1852,0.2298,0.2798,0.3244,0.3471,0.3858,0.4405,0.4574,0.4963,0.5513,0.5887,0.6426,0.6972,0.7456,0.7937,0.8573,0.9249,0.9829,1.0446,1.1267,1.1868,1.2224,1.2529,1.2676,1.2676,1.2578,1.2372,1.2126,1.2076,1.2126,1.2135,1.2344,1.2521,1.2628,1.2716,1.2822,1.2822,1.2852,1.2978,1.3123,1.3334,1.3563,1.3868,1.4233,1.4697,1.5108,1.5153,1.5334,1.5748,1.5836,1.6044,1.6448,1.6534,1.6522,1.6509,1.6663,1.6675,1.6607,1.6863,1.7128,1.7418,1.7787,1.8268,1.8798,1.9078,1.961,2.0694,2.2241,2.3206,2.2682,2.2424,2.2547,2.3355,2.3385,2.3505,2.3415,2.352,2.358,2.3595,2.3595,2.3595,2.361,2.3714,2.3954,2.4268,2.4059,2.4283,2.5315,2.6587,2.6961,2.6782,2.713,2.7395,2.7494,2.7408,2.6982,2.509,2.4144,2.4015,2.435,2.4708,2.4721,2.4478,2.4073,2.3688,2.3522,2.3501,2.3346,-0.2348,-0.2015,-0.1792,-0.112,-0.0168,0.0505,0.1289,0.2186,0.2517,0.3019,0.363,0.386,0.4193,0.4632,0.4904,0.534,0.5837,0.6431,0.6966,0.7456,0.7943,0.8421,0.9001,0.9562,1.0182,1.0812,1.1569,1.2076,1.2431,1.2676,1.2774,1.2725,1.2627,1.2529,1.2372,1.2323,1.2382,1.248,1.2578,1.2686,1.2783,1.2871,1.2891,1.2891,1.2891,1.2978,1.3075,1.3238,1.3362,1.3573,1.3905,1.4197,1.443,1.4765,1.5176,1.5748,1.6057,1.6306,1.6491,1.6534,1.6534,1.6534,1.6633,1.6633,1.6522,1.6748,1.729,1.8209,1.7885,1.7976,1.9251,1.928,1.9715,2.1289,2.2795,2.349,2.3266,2.3131,2.3251,2.355,2.3595,2.3595,2.3595,2.3595,2.3595,2.3595,2.3595,2.3595,2.3625,2.4029,2.4612,2.5061,2.5151,2.545,2.6138,2.6931,2.7335,2.729,2.738,2.7575,2.7181,2.6803,2.6082,2.4721,2.4028,2.3675,2.3897,2.3969,2.3969,2.3839,2.3721,2.345,2.3403,2.3621,2.3664,-0.274,-0.2352,-0.2071,-0.1288,-0.0224,0.0561,0.1457,0.2352,0.2683,0.3183,0.3796,0.4079,0.4411,0.4798,0.5175,0.5668,0.6218,0.6923,0.7408,0.7836,0.8262,0.8732,0.9204,0.9762,1.0387,1.1065,1.1778,1.2283,1.2578,1.2783,1.2832,1.2774,1.2735,1.2627,1.2569,1.2529,1.2569,1.2676,1.2676,1.2783,1.2881,1.2891,1.2891,1.2891,1.2891,1.2939,1.3027,1.3142,1.3238,1.3334,1.3525,1.3668,1.3773,1.4244,1.4846,1.5703,1.6175,1.6436,1.6479,1.6534,1.6534,1.6522,1.6577,1.6633,1.6565,1.6705,1.7804,1.9664,1.8981,1.9007,1.9665,1.9949,2.0647,2.2031,2.3022,2.3595,2.3551,2.3566,2.3565,2.3595,2.3595,2.3595,2.3595,2.3595,2.3595,2.3595,2.3595,2.3714,2.3909,2.4507,2.5136,2.5749,2.6108,2.6329,2.6782,2.7181,2.7494,2.7575,2.7524,2.7372,2.6817,2.6286,2.5508,2.4549,2.391,2.3556,2.3616,2.3569,2.3509,2.345,2.339,2.3406,2.3561,2.3827,2.4017,-0.3077,-0.2577,-0.202,-0.1234,-0.0224,0.0561,0.1457,0.2465,0.2907,0.3352,0.3796,0.4079,0.4467,0.4897,0.5399,0.5946,0.6647,0.7246,0.7735,0.8162,0.8474,0.8784,0.9211,0.9762,1.0336,1.0972,1.1728,1.2372,1.2822,1.2881,1.2891,1.2881,1.2774,1.2676,1.2676,1.2578,1.2578,1.2735,1.2725,1.2783,1.2881,1.2891,1.2891,1.2891,1.2891,1.2891,1.2939,1.3027,1.3123,1.3133,1.319,1.3218,1.3256,1.3563,1.4408,1.5603,1.6069,1.6318,1.6479,1.6534,1.6534,1.6522,1.6522,1.6572,1.6898,1.6708,1.8096,2.1307,2.1152,2.077,2.0326,2.1128,2.178,2.2091,2.2993,2.3478,2.3494,2.3566,2.3595,2.3595,2.3595,2.3595,2.3595,2.3595,2.3595,2.3595,2.3595,2.3804,2.4433,2.4807,2.5571,2.612,2.6336,2.6391,2.7255,2.7312,2.7321,2.7401,2.7386,2.7321,2.675,2.6125,2.523,2.4434,2.3734,2.3318,2.333,2.3271,2.3198,2.3198,2.3198,2.3251,2.3525,2.3841,2.4167,-0.3023,-0.2465,-0.2021,-0.1178,-0.0,0.101,0.185,0.2521,0.3021,0.3522,0.391,0.4242,0.4629,0.5014,0.5454,0.6,0.6647,0.7402,0.799,0.8321,0.8586,0.8956,0.9361,0.9718,1.0285,1.1006,1.1678,1.2283,1.2832,1.2891,1.2891,1.2891,1.2832,1.2822,1.2832,1.2783,1.2774,1.2832,1.2822,1.2881,1.2881,1.2891,1.2891,1.2891,1.2891,1.2891,1.2891,1.2939,1.2988,1.2978,1.2968,1.3007,1.3104,1.3988,1.4915,1.5703,1.6069,1.6275,1.6479,1.6534,1.6534,1.6534,1.662,1.7454,1.8531,1.7945,1.8345,2.1172,2.1996,2.1671,2.1458,2.1853,2.2285,2.2523,2.3025,2.3436,2.3509,2.3581,2.3595,2.3595,2.3595,2.3595,2.3595,2.3595,2.3595,2.3595,2.3595,2.3924,2.4627,2.5689,2.6602,2.65,2.6668,2.6878,2.7078,2.7078,2.6989,2.7159,2.7196,2.7026,2.6606,2.5729,2.4835,2.439,2.3616,2.3198,2.3198,2.3198,2.3125,2.3125,2.3125,2.3226,2.3389,2.3891,2.4368,-0.2631,-0.2073,-0.157,-0.0785,0.0224,0.1458,0.2186,0.2629,0.3244,0.3747,0.4079,0.4353,0.468,0.5069,0.5395,0.5887,0.6593,0.7396,0.799,0.8368,0.8639,0.8896,0.9256,0.9562,1.0131,1.0913,1.1669,1.2332,1.2783,1.2881,1.2891,1.2891,1.2891,1.2891,1.2891,1.2891,1.2891,1.2891,1.2891,1.2891,1.2891,1.2891,1.2891,1.2891,1.2891,1.2891,1.2891,1.2891,1.2891,1.2891,1.2939,1.2978,1.3104,1.4316,1.53,1.5748,1.6057,1.6318,1.6479,1.6534,1.6534,1.6534,1.6756,1.797,2.0386,1.96,2.021,2.1823,2.2417,2.2324,2.2091,2.2123,2.231,2.2678,2.3038,2.3319,2.3407,2.3523,2.3595,2.3595,2.3595,2.3595,2.3595,2.3595,2.3595,2.3595,2.3595,2.3924,2.4941,2.6363,2.747,2.6867,2.6952,2.6909,2.687,2.6698,2.6592,2.6698,2.6779,2.6659,2.6165,2.5286,2.4607,2.4203,2.3734,2.3305,2.3125,2.3125,2.3125,2.3125,2.3163,2.3238,2.3577,2.4017,2.4443,-0.1906,-0.1403,-0.0729,-0.0112,0.0561,0.1849,0.2517,0.2794,0.3461,0.391,0.4193,0.4408,0.4625,0.4901,0.5171,0.5723,0.6436,0.7139,0.7788,0.8368,0.8527,0.8784,0.9061,0.9406,0.9932,1.0557,1.1719,1.2372,1.2676,1.2822,1.2881,1.2891,1.2881,1.2891,1.2891,1.2891,1.2891,1.2891,1.2891,1.2891,1.2891,1.2891,1.2891,1.2891,1.2891,1.2891,1.2891,1.2891,1.2939,1.2929,1.3027,1.3113,1.3362,1.4444,1.5334,1.5792,1.6144,1.6349,1.6479,1.6534,1.6534,1.6522,1.6735,1.8179,2.0759,2.1572,2.2024,2.2606,2.2783,2.2646,2.2231,2.2184,2.2324,2.2615,2.2949,2.3275,2.3319,2.348,2.3595,2.361,2.361,2.3595,2.3595,2.3595,2.3595,2.3595,2.3729,2.4148,2.5255,2.6617,2.7375,2.7342,2.7086,2.6855,2.6592,2.6365,2.6244,2.6244,2.6272,2.6218,2.5495,2.4721,2.4131,2.3675,2.3556,2.3125,2.3125,2.3125,2.3125,2.3138,2.3128,2.319,2.3552,2.3929,2.4443,-0.1457,-0.0729,-0.0112,0.0617,0.1402,0.2242,0.2742,0.3019,0.3574,0.3965,0.419,0.4411,0.4574,0.4794,0.5069,0.5504,0.6168,0.682,0.7526,0.8215,0.8468,0.8738,0.9001,0.9309,0.9976,1.0863,1.1669,1.2184,1.2431,1.2627,1.2774,1.2783,1.2832,1.2891,1.2891,1.2891,1.2891,1.2891,1.2891,1.2891,1.2891,1.2891,1.2891,1.2891,1.2891,1.2891,1.2891,1.2891,1.2939,1.3036,1.3104,1.3276,1.3658,1.4823,1.578,1.6219,1.6262,1.6349,1.6479,1.6534,1.6534,1.6577,1.6735,1.8455,2.1131,2.1996,2.2417,2.2797,2.2888,2.2661,2.2137,2.2091,2.2231,2.2402,2.2783,2.3068,2.3201,2.3334,2.3392,2.3407,2.3523,2.361,2.3595,2.3595,2.3595,2.3655,2.4059,2.4717,2.5302,2.6572,2.7464,2.7335,2.7026,2.6712,2.6379,2.6042,2.5811,2.5632,2.5646,2.555,2.4878,2.4247,2.3721,2.3365,2.3185,2.3125,2.3125,2.3125,2.3125,2.3125,2.315,2.3263,2.3414,2.3753,2.418,-0.101,-0.0224,0.0449,0.1177,0.1962,0.2465,0.291,0.3294,0.3741,0.4079,0.4301,0.4463,0.4574,0.4743,0.4959,0.5344,0.5946,0.6495,0.7144,0.7949,0.8368,0.8685,0.8956,0.9316,0.9873,1.071,1.1377,1.1828,1.2076,1.2382,1.2578,1.2627,1.2783,1.2832,1.2881,1.2891,1.2891,1.2891,1.2891,1.2891,1.2891,1.2891,1.2891,1.2891,1.2891,1.2891,1.2891,1.2891,1.2929,1.3075,1.3248,1.3515,1.3952,1.5096,1.6001,1.6392,1.6436,1.6436,1.6479,1.6534,1.6534,1.6547,1.6946,1.8582,2.1096,2.203,2.2417,2.2797,2.2888,2.2569,2.1902,2.1807,2.1996,2.2184,2.2463,2.2797,2.3068,2.3142,2.3231,2.3319,2.3436,2.3523,2.3595,2.3595,2.3595,2.3699,2.4073,2.4747,2.5197,2.6531,2.7106,2.7372,2.7115,2.6698,2.6204,2.5825,2.5439,2.5147,2.4921,2.4708,2.4319,2.378,2.3245,2.3245,2.3125,2.3125,2.3125,2.3125,2.3125,2.3125,2.3125,2.3201,2.3301,2.3328,2.3753,-0.0505,0.0112,0.0954,0.1626,0.2127,0.2571,0.3072,0.3627,0.4021,0.4301,0.4463,0.4463,0.4574,0.4684,0.4846,0.5226,0.5773,0.6268,0.6869,0.7568,0.8103,0.858,0.8903,0.9309,0.9777,1.0241,1.0972,1.1377,1.1628,1.2036,1.2332,1.2421,1.2578,1.2783,1.2881,1.2891,1.2891,1.2891,1.2891,1.2891,1.2891,1.2891,1.2891,1.2891,1.2891,1.2891,1.2891,1.2929,1.3027,1.3172,1.3478,1.3905,1.4466,1.5334,1.6088,1.6491,1.6534,1.6491,1.6534,1.6534,1.6534,1.6572,1.7352,1.8924,2.0947,2.1843,2.237,2.2752,2.2843,2.2523,2.1698,2.1375,2.1471,2.165,2.1983,2.2402,2.2889,2.2904,2.2994,2.3187,2.3319,2.3451,2.3551,2.3595,2.361,2.364,2.3789,2.4388,2.5302,2.6501,2.737,2.7423,2.7115,2.6698,2.6218,2.5784,2.5342,2.4637,2.435,2.4073,2.391,2.3437,2.3125,2.3125,2.3125,2.3125,2.3125,2.3125,2.3125,2.3125,2.3125,2.3125,2.3175,2.3215,2.3376,-0.0056,0.0393,0.129,0.1794,0.2127,0.2683,0.3294,0.3738,0.4079,0.4301,0.4463,0.4463,0.4519,0.4574,0.4791,0.5117,0.5555,0.6213,0.6864,0.7521,0.8109,0.8586,0.8956,0.9256,0.9614,0.9976,1.0506,1.0922,1.1124,1.1628,1.1927,1.2076,1.2372,1.2627,1.2735,1.2832,1.2881,1.2891,1.2891,1.2891,1.2891,1.2891,1.2891,1.2891,1.2891,1.2891,1.2929,1.3152,1.3392,1.3631,1.3962,1.4419,1.4915,1.5768,1.6349,1.6436,1.6534,1.6534,1.6534,1.6534,1.6534,1.6584,1.7371,1.8468,1.9766,2.1324,2.2132,2.2555,2.2706,2.2463,2.1554,2.1082,2.0885,2.0772,2.1361,2.1996,2.2263,2.2449,2.2632,2.2933,2.2994,2.3216,2.3436,2.3581,2.3538,2.3656,2.4088,2.4867,2.5736,2.6666,2.756,2.7372,2.7078,2.6659,2.6233,2.5867,2.5244,2.435,2.3897,2.3543,2.3437,2.333,2.3138,2.3125,2.3125,2.3125,2.3125,2.3125,2.3125,2.3125,2.3125,2.3125,2.3125,2.3188,2.3201,0.0168,0.0449,0.1234,0.1793,0.2127,0.2794,0.3408,0.3855,0.419,0.4408,0.446,0.4463,0.4519,0.4574,0.4791,0.5117,0.5555,0.6263,0.6858,0.7521,0.8156,0.8633,0.8903,0.9159,0.9361,0.9562,1.0087,1.0403,1.0667,1.1175,1.1578,1.1877,1.2224,1.2529,1.2735,1.2832,1.2891,1.2891,1.2891,1.2891,1.2891,1.2891,1.2891,1.2891,1.2881,1.2929,1.3027,1.3296,1.3621,1.3952,1.428,1.4651,1.5277,1.6044,1.6491,1.6534,1.6534,1.6534,1.6534,1.6534,1.6534,1.6685,1.746,1.8338,1.9291,2.0718,2.1793,2.217,2.2449,2.2091,2.1361,2.0736,2.0385,2.0334,2.0785,2.1375,2.1712,2.1983,2.2324,2.2646,2.2783,2.2904,2.326,2.3378,2.3494,2.3641,2.3939,2.4957,2.6021,2.6965,2.756,2.7372,2.7181,2.6855,2.6326,2.5853,2.5118,2.4234,2.3662,2.3258,2.3198,2.321,2.3138,2.3125,2.3125,2.3125,2.3125,2.3125,2.3125,2.3125,2.3125,2.3125,2.3125,2.3125,2.3125,0.0168,0.0449,0.1066,0.1625,0.2238,0.2854,0.3463,0.3965,0.4298,0.4463,0.4519,0.4519,0.4629,0.4746,0.4842,0.5222,0.5882,0.6367,0.6966,0.767,0.8315,0.8692,0.8804,0.8956,0.9113,0.9263,0.9614,0.9932,1.03,1.0761,1.1276,1.1678,1.2076,1.2431,1.2627,1.2832,1.2891,1.2891,1.2891,1.2891,1.2891,1.2891,1.2891,1.2891,1.2891,1.2968,1.3162,1.344,1.3763,1.4222,1.4373,1.4789,1.5468,1.6132,1.6479,1.6534,1.6534,1.6534,1.6534,1.6534,1.6534,1.6685,1.7675,1.8528,1.912,2.0245,2.1277,2.1698,2.1996,2.165,2.0885,2.0334,2.0131,2.0131,2.0296,2.0649,2.1118,2.1506,2.1902,2.237,2.2477,2.2615,2.2797,2.3053,2.329,2.3551,2.3894,2.4522,2.5751,2.6876,2.74,2.7575,2.7321,2.7063,2.6418,2.5825,2.4978,2.4176,2.3603,2.3198,2.3138,2.3138,2.3138,2.3125,2.3125,2.3125,2.3125,2.3125,2.3125,2.3125,2.3125,2.3125,2.3125,2.3125,2.3125,0.0168,0.0449,0.1066,0.1569,0.2127,0.2965,0.3522,0.3907,0.4294,0.4463,0.4519,0.4632,0.4739,0.4842,0.4999,0.5437,0.615,0.6632,0.7283,0.8215,0.8586,0.8752,0.8804,0.8956,0.9008,0.9159,0.9465,0.9725,0.9991,1.0514,1.0972,1.1427,1.1927,1.2274,1.2529,1.2783,1.2891,1.2891,1.2891,1.2891,1.2891,1.2891,1.2891,1.2891,1.2891,1.3017,1.319,1.343,1.3858,1.4291,1.4581,1.4949,1.5513,1.612,1.6479,1.6534,1.6534,1.6534,1.6534,1.6534,1.6534,1.6635,1.7592,1.8461,1.8711,1.9934,2.0818,2.1193,2.1375,2.1118,2.0308,2.0182,2.008,1.9965,2.0029,2.0144,2.0334,2.0822,2.1326,2.1616,2.1855,2.2091,2.2324,2.2678,2.3024,2.3421,2.3819,2.4163,2.53,2.6647,2.7215,2.7524,2.7321,2.7011,2.6578,2.5879,2.4978,2.4176,2.3675,2.321,2.3138,2.3125,2.3125,2.3125,2.3125,2.3125,2.3125,2.3125,2.3125,2.3125,2.3125,2.3125,2.3125,2.3125,2.3251,0.0056,0.0449,0.1066,0.1569,0.2071,0.291,0.3463,0.3852,0.4298,0.4463,0.4519,0.4632,0.4849,0.5058,0.5214,0.5706,0.6583,0.7283,0.7877,0.8474,0.8745,0.8857,0.8804,0.8903,0.9008,0.9015,0.9263,0.9517,0.988,1.0403,1.0972,1.1469,1.1977,1.2323,1.2578,1.2774,1.2881,1.2891,1.2891,1.2891,1.2891,1.2891,1.2891,1.2891,1.2929,1.3007,1.3228,1.3467,1.3847,1.4326,1.4673,1.5006,1.5513,1.6132,1.6491,1.6534,1.6534,1.6534,1.6534,1.6534,1.6534,1.6547,1.7655,1.8202,1.8703,1.9628,2.0395,2.0723,2.0934,2.0736,2.0055,2.0029,1.9978,1.9862,1.9862,1.9926,1.9978,2.0385,2.0785,2.1068,2.1313,2.1554,2.1874,2.2296,2.2859,2.3304,2.3581,2.4014,2.506,2.6314,2.7065,2.7386,2.7233,2.6974,2.6592,2.5934,2.5048,2.4319,2.3747,2.333,2.3138,2.3138,2.3125,2.3125,2.3125,2.3125,2.3125,2.3125,2.3125,2.3125,2.3125,2.3125,2.3125,2.3125,2.3364,-0.0112,0.0449,0.1066,0.1569,0.2071,0.2796,0.3352,0.3852,0.4294,0.4463,0.4519,0.4688,0.5014,0.5281,0.5542,0.6195,0.7182,0.7937,0.8421,0.8573,0.8791,0.8857,0.8857,0.891,0.8903,0.8857,0.9113,0.9413,0.9873,1.0395,1.1015,1.1619,1.2067,1.2372,1.2676,1.2832,1.2891,1.2891,1.2891,1.2891,1.2891,1.2891,1.2891,1.2891,1.2929,1.3007,1.3228,1.3457,1.3847,1.4326,1.4638,1.504,1.5513,1.6076,1.6534,1.6534,1.6534,1.6534,1.6534,1.6534,1.6534,1.6572,1.7564,1.8176,1.8561,1.9256,1.9978,2.0372,2.0586,2.0536,2.0233,2.0195,2.0029,1.9914,1.985,1.9798,1.9901,2.0169,2.0422,2.0636,2.097,2.1251,2.1636,2.2123,2.2678,2.3201,2.3422,2.3925,2.503,2.6005,2.684,2.7233,2.7093,2.698,2.6703,2.6042,2.516,2.4465,2.3852,2.3509,2.3198,2.3138,2.3125,2.3125,2.3125,2.3125,2.3125,2.3125,2.3125,2.3125,2.3125,2.3125,2.3125,2.3125,2.3389,-0.0112,0.0449,0.1066,0.1569,0.2071,0.2796,0.3352,0.3852,0.4294,0.4463,0.4574,0.4849,0.5179,0.5618,0.6322,0.709,0.7848,0.8374,0.858,0.8633,0.8798,0.8798,0.8804,0.8857,0.8903,0.8956,0.9159,0.9413,0.988,1.0403,1.1065,1.1678,1.2126,1.2431,1.2676,1.2832,1.2891,1.2891,1.2891,1.2891,1.2891,1.2891,1.2891,1.2891,1.2891,1.3007,1.3218,1.3467,1.3858,1.4337,1.4627,1.504,1.5513,1.6163,1.6479,1.6534,1.6534,1.6534,1.6534,1.6534,1.6534,1.6773,1.7564,1.8179,1.8528,1.9133,1.9864,2.0131,2.0347,2.0347,2.0233,2.0296,2.0246,2.008,1.9978,1.9978,1.9978,2.008,2.0182,2.0435,2.0723,2.1104,2.1602,2.2077,2.2632,2.3053,2.3319,2.3911,2.4821,2.5897,2.6924,2.7041,2.6951,2.6905,2.6789,2.6085,2.5314,2.461,2.4047,2.3616,2.3378,2.3198,2.3125,2.3125,2.3125,2.3125,2.3125,2.3125,2.3125,2.3125,2.3125,2.3125,2.3125,2.3138,2.3213,-0.0112,0.0449,0.1066,0.1569,0.2069,0.2796,0.3352,0.3796,0.4294,0.4574,0.4688,0.4959,0.5344,0.5891,0.6495,0.7365,0.8174,0.8593,0.8692,0.8745,0.885,0.885,0.8804,0.8857,0.8962,0.9061,0.9211,0.9577,1.0035,1.0608,1.1267,1.1828,1.2234,1.2529,1.2735,1.2881,1.2891,1.2891,1.2891,1.2891,1.2891,1.2891,1.2891,1.2891,1.2929,1.3007,1.3228,1.3467,1.3905,1.4395,1.473,1.5074,1.5603,1.6132,1.6534,1.6534,1.6534,1.6534,1.6534,1.6547,1.6672,1.7124,1.7861,1.8412,1.8816,1.9359,1.9837,1.9978,2.0195,2.0398,2.0586,2.0536,2.0385,2.0283,2.0182,2.0131,2.008,2.0131,2.0283,2.0435,2.0709,2.1153,2.1678,2.2152,2.2586,2.2949,2.3216,2.3881,2.4627,2.583,2.6922,2.6817,2.6727,2.6703,2.664,2.6153,2.5481,2.4824,2.4253,2.3884,2.3556,2.3318,2.3198,2.3125,2.3125,2.3125,2.3125,2.3125,2.3125,2.3125,2.3125,2.3125,2.3125,2.3163,2.3226,-0.0168,0.0449,0.1066,0.1569,0.2127,0.2796,0.3408,0.3852,0.4298,0.4574,0.4743,0.5014,0.5454,0.6055,0.6761,0.7563,0.8487,0.8699,0.8804,0.8804,0.891,0.891,0.8857,0.8962,0.9061,0.9159,0.942,0.9784,1.0249,1.0812,1.1469,1.2026,1.2431,1.2686,1.2832,1.2881,1.2891,1.2891,1.2891,1.2891,1.2891,1.2891,1.2891,1.2891,1.2891,1.3007,1.3218,1.3467,1.3905,1.4441,1.4811,1.5131,1.5736,1.6262,1.6479,1.6534,1.6534,1.6534,1.6534,1.6534,1.6798,1.7426,1.808,1.8634,1.9202,1.956,1.9965,2.0016,2.022,2.0498,2.0749,2.0686,2.0573,2.0472,2.0472,2.0409,2.0321,2.0372,2.0536,2.0736,2.0858,2.1251,2.1773,2.2231,2.2709,2.2949,2.326,2.3392,2.4268,2.5903,2.6803,2.6592,2.65,2.6447,2.6422,2.6261,2.5646,2.5036,2.454,2.4118,2.3793,2.3509,2.333,2.3138,2.3125,2.3125,2.3125,2.3125,2.3125,2.3125,2.3125,2.3125,2.3125,2.309,2.3153,-0.0336,0.0449,0.1066,0.1625,0.2238,0.2852,0.3411,0.3965,0.4349,0.4574,0.4743,0.5124,0.5559,0.6213,0.7235,0.7937,0.8374,0.8646,0.8804,0.8811,0.8857,0.8857,0.8804,0.8903,0.9159,0.9368,0.974,1.0102,1.0506,1.1015,1.1628,1.2184,1.2529,1.2783,1.2891,1.2891,1.2891,1.2891,1.2891,1.2891,1.2891,1.2891,1.2891,1.2891,1.2929,1.3007,1.3228,1.3467,1.3952,1.4523,1.4891,1.5289,1.578,1.6219,1.6436,1.6534,1.6534,1.6534,1.6534,1.6534,1.6735,1.74,1.8029,1.8668,1.9377,1.9949,2.0334,2.0612,2.0799,2.0835,2.0898,2.0898,2.0898,2.0835,2.0723,2.061,2.056,2.0759,2.0934,2.1131,2.1313,2.1541,2.1935,2.2342,2.274,2.3024,2.3216,2.3392,2.403,2.5707,2.6442,2.6189,2.6229,2.6233,2.6125,2.6002,2.5687,2.5134,2.4781,2.435,2.4086,2.3747,2.339,2.3198,2.3138,2.3125,2.3125,2.3125,2.3125,2.3125,2.3125,2.3125,2.3125,2.3103,2.3128,-0.0393,0.0449,0.1066,0.1625,0.2127,0.2796,0.3408,0.391,0.4294,0.4629,0.4849,0.5171,0.5773,0.6647,0.7551,0.8037,0.8427,0.8699,0.8804,0.8804,0.891,0.8903,0.8956,0.9106,0.9361,0.9673,1.0035,1.0423,1.0787,1.125,1.1819,1.2274,1.2588,1.2783,1.2891,1.2891,1.2891,1.2891,1.2891,1.2891,1.2891,1.2891,1.2891,1.2891,1.2891,1.3017,1.3228,1.3467,1.3941,1.4547,1.496,1.5367,1.5913,1.6306,1.6534,1.6534,1.6534,1.6534,1.6534,1.6534,1.6748,1.7081,1.7784,1.8708,1.9775,2.0453,2.0785,2.1095,2.1326,2.1326,2.118,2.118,2.118,2.1131,2.097,2.097,2.097,2.1153,2.1361,2.1568,2.1807,2.2077,2.2342,2.2618,2.2979,2.3216,2.3378,2.3524,2.4252,2.5546,2.5893,2.5673,2.5813,2.6002,2.5893,2.5729,2.5439,2.5022,2.4894,2.4536,2.4319,2.4041,2.3569,2.3198,2.3138,2.3125,2.3125,2.3125,2.3125,2.3125,2.3125,2.3125,2.3125,2.3138,2.3103,-0.028,0.0449,0.1066,0.1569,0.2071,0.2738,0.3352,0.3852,0.4242,0.4625,0.4952,0.5332,0.6154,0.702,0.761,0.809,0.8474,0.8692,0.8857,0.891,0.9015,0.9113,0.9211,0.942,0.9673,0.9969,1.0446,1.0838,1.1275,1.1692,1.2126,1.2372,1.2637,1.2783,1.2891,1.2891,1.2891,1.2891,1.2891,1.2891,1.2891,1.2891,1.2891,1.2891,1.2929,1.3017,1.317,1.3467,1.3931,1.4547,1.496,1.5424,1.6057,1.6349,1.6491,1.6534,1.6534,1.6534,1.6534,1.6534,1.6534,1.6898,1.7785,1.9193,2.0322,2.0934,2.1313,2.1616,2.1841,2.1841,2.1664,2.1554,2.1471,2.1375,2.1277,2.1277,2.1277,2.1471,2.1746,2.2077,2.2356,2.2754,2.2934,2.3024,2.3216,2.3407,2.3568,2.3641,2.4341,2.5316,2.5394,2.5226,2.561,2.5825,2.5729,2.5536,2.5204,2.491,2.4794,2.465,2.4434,2.4028,2.3509,2.3318,2.3125,2.3125,2.3125,2.3125,2.3125,2.3125,2.3125,2.3125,2.3125,2.3125,2.3138,0.0112,0.0449,0.1066,0.1569,0.2071,0.2627,0.3239,0.3796,0.4135,0.4519,0.5007,0.5773,0.6431,0.7133,0.767,0.8196,0.8573,0.8844,0.9054,0.9211,0.9316,0.942,0.9577,0.9836,1.0146,1.0446,1.0956,1.1401,1.1801,1.2295,1.251,1.2608,1.2822,1.2881,1.2929,1.2929,1.2939,1.2939,1.2929,1.2929,1.2929,1.2929,1.2929,1.2929,1.2929,1.3017,1.317,1.3467,1.3905,1.4569,1.4891,1.539,1.6013,1.6349,1.6479,1.6534,1.6534,1.6534,1.6534,1.6534,1.6534,1.7093,1.8202,1.9695,2.0729,2.1375,2.1807,2.2137,2.2402,2.2324,2.2184,2.1996,2.1759,2.152,2.1423,2.1423,2.1471,2.1664,2.1983,2.2509,2.2859,2.3127,2.329,2.3348,2.3304,2.3494,2.3553,2.3684,2.3718,2.4435,2.4781,2.4905,2.543,2.5632,2.5674,2.5425,2.5077,2.4838,2.4694,2.4593,2.4434,2.3969,2.3509,2.3258,2.3125,2.3125,2.3125,2.3125,2.3125,2.3125,2.3125,2.3125,2.3125,2.3125,2.3125,0.0617,0.0785,0.1346,0.1738,0.2071,0.274,0.3294,0.3796,0.4242,0.468,0.5222,0.5991,0.6647,0.7295,0.7883,0.8368,0.8738,0.9106,0.9309,0.9465,0.9629,0.9836,1.0095,1.0446,1.0863,1.1217,1.1669,1.2098,1.2463,1.288,1.3162,1.3258,1.32,1.3094,1.3094,1.3065,1.3027,1.3036,1.3027,1.3027,1.3104,1.3027,1.3036,1.3036,1.292,1.3007,1.3218,1.3467,1.3905,1.4373,1.4754,1.53,1.5893,1.6262,1.6479,1.6534,1.6534,1.6534,1.6534,1.6534,1.6534,1.6847,1.8113,1.9738,2.0851,2.1568,2.2296,2.2678,2.2873,2.2752,2.2661,2.2324,2.1983,2.1712,2.1568,2.152,2.1664,2.1902,2.2217,2.2678,2.2994,2.326,2.3436,2.3566,2.3523,2.3523,2.3596,2.3656,2.3689,2.3746,2.413,2.4659,2.519,2.5464,2.5534,2.5287,2.4991,2.4821,2.4637,2.4421,2.4261,2.391,2.3497,2.3258,2.3125,2.3125,2.3125,2.3125,2.3125,2.3125,2.3125,2.3125,2.3125,2.3125,2.3125,0.0954,0.1122,0.1738,0.2018,0.2127,0.2796,0.3408,0.3852,0.4298,0.4901,0.5496,0.6213,0.681,0.7456,0.8096,0.8633,0.9008,0.942,0.9681,0.9991,1.0249,1.0462,1.0761,1.1116,1.1569,1.1968,1.2353,1.2725,1.3054,1.3351,1.361,1.3773,1.3678,1.3515,1.3228,1.319,1.3162,1.3162,1.321,1.32,1.3266,1.3238,1.3162,1.3113,1.2997,1.3084,1.3266,1.3515,1.3858,1.4337,1.4708,1.5165,1.5659,1.61,1.6448,1.6534,1.6534,1.6534,1.6534,1.6534,1.6534,1.6703,1.7958,1.9541,2.077,2.1568,2.2249,2.3334,2.326,2.3098,2.3068,2.2737,2.2324,2.2091,2.1712,2.1664,2.1902,2.2137,2.2449,2.2814,2.3083,2.329,2.3392,2.3523,2.3566,2.3566,2.3566,2.3596,2.354,2.3599,2.3727,2.4322,2.5049,2.5246,2.5364,2.5411,2.537,2.4908,2.461,2.4189,2.391,2.3675,2.3437,2.3198,2.3125,2.3125,2.3125,2.3125,2.3125,2.3125,2.3125,2.3125,2.3125,2.3125,2.3125,0.1178,0.1515,0.213,0.2352,0.235,0.2852,0.3466,0.4021,0.4463,0.5066,0.5828,0.6431,0.7025,0.7622,0.8362,0.889,0.9368,0.9888,1.03,1.0565,1.0905,1.1167,1.1469,1.1769,1.2166,1.2442,1.288,1.3314,1.361,1.3978,1.4176,1.4176,1.4082,1.3789,1.3409,1.3266,1.3266,1.3362,1.3372,1.342,1.3467,1.342,1.3324,1.3228,1.3228,1.3324,1.3409,1.3658,1.3999,1.428,1.4915,1.5322,1.5501,1.612,1.6479,1.6534,1.6534,1.6534,1.6534,1.6534,1.6534,1.6716,1.7946,1.9407,2.058,2.141,2.2249,2.329,2.3465,2.3508,2.3392,2.3187,2.2783,2.2324,2.1949,2.1855,2.2091,2.2231,2.254,2.2799,2.3023,2.3171,2.3319,2.3436,2.3566,2.3566,2.3595,2.3566,2.3509,2.3422,2.3462,2.3865,2.4558,2.4919,2.5123,2.5706,2.5673,2.5148,2.4711,2.4292,2.3852,2.3497,2.3318,2.3138,2.3125,2.3125,2.3125,2.3125,2.3125,2.3125,2.3125,2.3125,2.3125,2.3125,2.3125,0.1961,0.23,0.2631,0.2854,0.3021,0.3297,0.3685,0.4245,0.4908,0.5559,0.6154,0.6804,0.7503,0.815,0.8784,0.9413,0.9888,1.0403,1.082,1.1175,1.1469,1.1719,1.1977,1.2323,1.2666,1.3084,1.3552,1.3931,1.4316,1.4547,1.4628,1.4628,1.4269,1.3941,1.361,1.3467,1.3515,1.3563,1.3621,1.3716,1.3763,1.3647,1.3552,1.3467,1.3583,1.3594,1.3563,1.3905,1.4186,1.4455,1.513,1.5579,1.5856,1.6479,1.6479,1.6534,1.6534,1.6534,1.6534,1.6534,1.6534,1.7017,1.7946,1.936,2.0539,2.1166,2.2156,2.3068,2.3508,2.3566,2.3392,2.3436,2.3068,2.2402,2.2077,2.2077,2.2217,2.231,2.2495,2.2754,2.2949,2.3008,2.3127,2.3216,2.3304,2.3436,2.3465,2.3523,2.3466,2.3245,2.3196,2.3472,2.3927,2.4388,2.4855,2.5702,2.5918,2.5425,2.4951,2.4549,2.4028,2.3556,2.3258,2.3198,2.3125,2.3125,2.3138,2.3138,2.3125,2.3125,2.3125,2.3125,2.3125,2.3125,2.3125,0.2464,0.28,0.3016,0.3297,0.3522,0.3744,0.4132,0.4743,0.5508,0.6105,0.6642,0.7283,0.7978,0.8672,0.9354,0.9932,1.0454,1.1015,1.1377,1.1728,1.1968,1.2224,1.2529,1.2813,1.32,1.3621,1.4035,1.4455,1.4789,1.4971,1.4926,1.4651,1.4373,1.3952,1.3668,1.3563,1.3668,1.3716,1.3821,1.3905,1.3952,1.3941,1.3858,1.3821,1.3842,1.3958,1.3962,1.4129,1.4501,1.4869,1.5367,1.5901,1.6306,1.6534,1.6534,1.6534,1.6534,1.6534,1.6534,1.662,1.6777,1.7288,1.8287,1.9454,2.0594,2.1264,2.2123,2.2904,2.3436,2.348,2.3436,2.3523,2.3083,2.237,2.217,2.217,2.2217,2.2324,2.2509,2.2723,2.2859,2.2918,2.2904,2.3008,2.3053,2.3172,2.329,2.3348,2.3407,2.3186,2.3006,2.3178,2.3525,2.399,2.4897,2.6096,2.6087,2.5631,2.5245,2.4835,2.439,2.391,2.3556,2.3318,2.3318,2.3318,2.3198,2.3138,2.3318,2.3318,2.3318,2.3258,2.3125,2.3138,2.3138,0.2687,0.2961,0.3405,0.3683,0.3852,0.4187,0.4794,0.5622,0.6164,0.6652,0.7139,0.7818,0.8501,0.9131,0.985,1.0482,1.0905,1.1569,1.1927,1.2175,1.2372,1.2676,1.292,1.319,1.3525,1.3952,1.4419,1.4731,1.5108,1.5119,1.4983,1.4569,1.4197,1.3868,1.3668,1.3563,1.3668,1.3773,1.3926,1.401,1.4046,1.4219,1.4067,1.402,1.4031,1.4125,1.4186,1.4466,1.4789,1.5153,1.557,1.6001,1.6306,1.6491,1.6534,1.6534,1.6534,1.6534,1.6534,1.6663,1.7247,1.7816,1.8629,1.9841,2.0955,2.1616,2.2217,2.2949,2.348,2.3494,2.3494,2.3187,2.2843,2.2463,2.2184,2.2184,2.2231,2.237,2.2523,2.2661,2.2721,2.2721,2.2555,2.2586,2.2586,2.2873,2.2994,2.3127,2.3172,2.3127,2.2888,2.2795,2.3169,2.363,2.4708,2.5973,2.6299,2.5892,2.5646,2.5286,2.4778,2.4274,2.391,2.3675,2.3628,2.3569,2.3378,2.3437,2.3675,2.3675,2.3734,2.3497,2.3378,2.3258,2.3258,0.3299,0.3574,0.391,0.4132,0.4405,0.5062,0.5563,0.5946,0.6495,0.7085,0.7717,0.8396,0.9072,0.9755,1.0482,1.1057,1.1569,1.1977,1.2274,1.2529,1.2627,1.2822,1.3065,1.3334,1.3705,1.4129,1.4593,1.5006,1.5232,1.5289,1.4891,1.4477,1.4057,1.3716,1.3525,1.3362,1.3515,1.3668,1.3831,1.3962,1.4067,1.4125,1.402,1.3973,1.4046,1.414,1.4373,1.4651,1.5006,1.5424,1.578,1.6088,1.6231,1.6405,1.6534,1.6534,1.6534,1.6534,1.6522,1.6705,1.7213,1.8096,1.8892,2.0411,2.1518,2.2184,2.2388,2.3038,2.348,2.348,2.3275,2.2963,2.2601,2.2231,2.1935,2.1841,2.1902,2.2184,2.237,2.2569,2.2629,2.2445,2.2278,2.1935,2.1983,2.2356,2.2692,2.2814,2.2994,2.2949,2.2904,2.2766,2.2787,2.323,2.4437,2.5734,2.6045,2.615,2.5934,2.555,2.4835,2.439,2.4157,2.4028,2.4086,2.3852,2.3556,2.3793,2.4189,2.4203,2.4261,2.391,2.3616,2.3556,2.3497,0.3688,0.3965,0.4245,0.4467,0.4846,0.5563,0.605,0.649,0.6977,0.7616,0.8296,0.9079,0.9755,1.0387,1.1057,1.1669,1.2126,1.2323,1.2578,1.2735,1.2774,1.2968,1.3152,1.343,1.381,1.4269,1.4731,1.5096,1.5277,1.5051,1.4697,1.4244,1.3858,1.3525,1.3344,1.3248,1.3248,1.344,1.3583,1.3773,1.3831,1.3879,1.3831,1.3868,1.3988,1.4176,1.4466,1.4777,1.5187,1.5647,1.5913,1.6132,1.6275,1.6436,1.6534,1.6534,1.6534,1.6534,1.6534,1.6693,1.7188,1.7822,1.8759,2.022,2.1457,2.2278,2.2723,2.3231,2.3436,2.3465,2.3127,2.2768,2.231,2.1888,2.165,2.1361,2.165,2.1949,2.2184,2.2431,2.2385,2.2184,2.1902,2.152,2.1423,2.1888,2.231,2.2555,2.2783,2.2963,2.2888,2.2781,2.2698,2.2847,2.4152,2.5243,2.548,2.585,2.6094,2.5659,2.4921,2.4563,2.439,2.4434,2.4607,2.4421,2.4305,2.4523,2.4794,2.4865,2.4878,2.4593,2.4305,2.3956,2.3897,0.3956,0.4245,0.4408,0.4794,0.5183,0.5782,0.6485,0.7192,0.761,0.8196,0.8928,0.971,1.0328,1.0905,1.1569,1.2067,1.2421,1.2627,1.2783,1.2929,1.292,1.3055,1.3238,1.3515,1.3858,1.4373,1.4789,1.5051,1.5074,1.4846,1.4419,1.3962,1.3573,1.3296,1.3113,1.3065,1.3123,1.3162,1.3296,1.343,1.3525,1.3573,1.3621,1.3716,1.3915,1.415,1.4523,1.488,1.5289,1.5703,1.6013,1.6275,1.6392,1.6479,1.6479,1.6534,1.6534,1.6534,1.6577,1.6705,1.6833,1.7388,1.81,1.9666,2.0931,2.2197,2.2814,2.3231,2.3436,2.329,2.2994,2.2402,2.1888,2.1602,2.1313,2.1264,2.1506,2.1855,2.2231,2.237,2.2324,2.2137,2.1807,2.1423,2.1229,2.1602,2.1841,2.2184,2.2601,2.2888,2.2933,2.2872,2.2778,2.2858,2.3692,2.4617,2.4916,2.5272,2.5835,2.5877,2.523,2.4848,2.462,2.4948,2.5272,2.5342,2.5328,2.5481,2.5522,2.5701,2.5591,2.5384,2.5034,2.4694,2.4421,0.4142,0.4467,0.468,0.5066,0.5504,0.6055,0.6853,0.7765,0.8402,0.8869,0.9406,1.0138,1.0804,1.1368,1.1927,1.2421,1.2627,1.292,1.2988,1.3075,1.3104,1.3238,1.3372,1.3621,1.3952,1.4269,1.464,1.4915,1.4834,1.4569,1.415,1.3621,1.3296,1.3123,1.2978,1.2978,1.2988,1.2978,1.3027,1.319,1.3324,1.3276,1.3286,1.342,1.3563,1.3952,1.4362,1.4777,1.5322,1.5824,1.6057,1.6275,1.6479,1.6479,1.6534,1.6534,1.6534,1.6534,1.6577,1.6663,1.6791,1.7153,1.7942,1.9094,2.0398,2.1787,2.268,2.3084,2.329,2.3098,2.2723,2.2063,2.1554,2.1313,2.1131,2.1264,2.1458,2.1841,2.2278,2.2278,2.2278,2.2044,2.1712,2.1471,2.1264,2.1313,2.1471,2.1807,2.2449,2.2873,2.3038,2.2963,2.2904,2.3105,2.3768,2.4133,2.448,2.4988,2.5552,2.5551,2.5425,2.5453,2.5439,2.5729,2.6002,2.6002,2.6056,2.619,2.6297,2.6365,2.6258,2.5988,2.5825,2.5536,2.5216,0.4033,0.4316,0.4632,0.5004,0.5471,0.609,0.6919,0.7893,0.8731,0.9431,1.0072,1.0761,1.1326,1.1828,1.2332,1.2676,1.2871,1.3104,1.32,1.3248,1.3382,1.3467,1.3621,1.3773,1.3952,1.4269,1.4558,1.4697,1.4569,1.4326,1.3905,1.343,1.321,1.3036,1.2939,1.2939,1.2988,1.2978,1.2929,1.3055,1.318,1.3142,1.3055,1.32,1.3362,1.3742,1.4258,1.4674,1.5277,1.5812,1.6188,1.6349,1.6479,1.6534,1.6534,1.6534,1.6534,1.6534,1.6565,1.662,1.6705,1.7068,1.7388,1.8425,1.885,2.0189,2.1598,2.212,2.301,2.2933,2.2449,2.1841,2.1458,2.1131,2.1229,2.1423,2.1698,2.2137,2.2324,2.237,2.2324,2.2278,2.1996,2.1712,2.1506,2.1313,2.1423,2.1712,2.231,2.2859,2.3038,2.3127,2.3068,2.3142,2.3585,2.3878,2.4124,2.4713,2.5271,2.5436,2.557,2.5983,2.6312,2.6486,2.6553,2.6515,2.6606,2.6698,2.6841,2.6893,2.675,2.6553,2.6486,2.6326,2.6042,0.3903,0.4065,0.4473,0.4915,0.5354,0.6113,0.7037,0.803,0.8941,0.9919,1.083,1.1418,1.1828,1.2234,1.2666,1.292,1.3162,1.344,1.3478,1.3563,1.3658,1.38,1.3858,1.3915,1.4046,1.4186,1.443,1.4477,1.4384,1.4104,1.3763,1.343,1.321,1.3036,1.2988,1.3036,1.3075,1.3065,1.3065,1.3094,1.3094,1.3055,1.3055,1.3084,1.3198,1.3521,1.4107,1.4674,1.5187,1.5736,1.6219,1.6392,1.6479,1.6534,1.6534,1.6534,1.6534,1.6534,1.6534,1.662,1.662,1.6718,1.6989,1.735,1.7869,1.881,2.0232,2.1183,2.2061,2.2663,2.2175,2.165,2.1264,2.1166,2.1375,2.1616,2.2044,2.2417,2.2463,2.2463,2.2463,2.2463,2.2324,2.2044,2.1855,2.1602,2.1602,2.1902,2.2278,2.2814,2.3172,2.326,2.3304,2.3393,2.3569,2.3689,2.3879,2.4378,2.4936,2.5301,2.5726,2.6309,2.6803,2.7063,2.713,2.6989,2.6989,2.7078,2.7181,2.7269,2.7167,2.7011,2.6922,2.6817,2.6683,0.4,0.4363,0.4709,0.5193,0.5839,0.6646,0.7647,0.8627,0.9597,1.0535,1.1342,1.2026,1.2431,1.2578,1.2842,1.3132,1.3478,1.3705,1.3952,1.4082,1.4129,1.4233,1.4186,1.4046,1.4129,1.4176,1.4186,1.414,1.4046,1.381,1.3536,1.3162,1.3027,1.2939,1.2978,1.3027,1.3104,1.3152,1.3286,1.3324,1.3525,1.3467,1.317,1.3266,1.342,1.3742,1.4165,1.4628,1.5187,1.5736,1.6231,1.6448,1.6534,1.6534,1.6534,1.6534,1.6534,1.6534,1.6534,1.6577,1.6522,1.6565,1.6808,1.7031,1.7487,1.7936,1.9058,1.976,2.0769,2.2157,2.2002,2.1334,2.0947,2.1313,2.1554,2.1983,2.2417,2.2632,2.2814,2.2783,2.2797,2.2843,2.2797,2.2601,2.2431,2.2184,2.1841,2.2137,2.237,2.2814,2.3319,2.3392,2.3436,2.3523,2.3581,2.3524,2.3733,2.4207,2.4855,2.5725,2.6396,2.6865,2.7233,2.7372,2.7386,2.7284,2.7335,2.7335,2.7423,2.7473,2.7524,2.7473,2.7335,2.7248,2.7063]},{"header":{"parameterUnit":"m.s-1","parameterCategory":1,"la1":31.0,"la2":29.5877,"lo1":-88.7671,"lo2":-86.6584,"dx":0.0162,"dy":0.0185,"nx":115,"ny":88,"refTime":"2022-12-09T06:00:00:Z","depth":0,"parameterNumber":3,"parameterNumberName":"V-component_of_WINDS"},"data":[0.0,0.0,0.0,0.0,0.0,0.0,0.0,0.0,0.0,0.0,0.0,0.0,0.0,0.0,0.0,0.0,0.0,0.0,0.0,0.0,0.0,0.0,0.0,0.0,0.0,0.0,0.0,0.0,0.0,0.0,0.0,0.0,0.0,0.0,0.0,0.0,0.0,0.0,0.0,0.0,0.0,0.0,0.0,0.0,0.0,0.0,0.0,0.0,0.0,0.0,0.0,0.0,0.0,0.0,0.0,0.0,0.0,0.0,0.0,0.0,0.0,0.0,0.0,0.0,0.0,0.0,0.0,0.0,0.0,0.0,0.0,0.0,0.0,0.0,0.0,0.0,0.0,0.0,0.0,0.0,0.0,0.0,0.0,0.0,0.0,0.0,0.0,0.0,0.0,0.0,0.0,0.0,0.0,0.0,0.0,0.0,0.0,0.0,0.0,0.0,0.0,0.0,0.0,0.0,0.0,0.0,0.0,0.0,0.0,0.0,0.0,0.0,0.0,0.0,0.0,0.0,0.0,0.0,0.0,0.0,0.0,0.0,0.0,0.0,0.0,0.0,0.0,0.0,0.0,0.0,0.0,0.0,0.0,0.0,0.0,0.0,0.0,0.0,0.0,0.0,0.0,0.0,0.0,0.0,0.0,0.0,0.0,0.0,0.0,0.0,0.0,0.0,0.0,0.0,0.0,0.0,0.0,0.0,0.0,0.0,0.0,0.0,0.0,0.0,0.0,0.0,0.0,0.0,0.0,0.0,0.0,0.0,0.0,0.0,0.0,0.0,0.0,0.0,0.0,0.0,0.0,0.0,0.0,0.0,0.0,0.0,0.0,0.0,0.0,0.0,0.0,0.0,0.0,0.0,0.0,0.0,0.0,0.0,0.0,0.0,0.0,0.0,0.0,0.0,0.0,0.0,0.0,0.0,0.0,0.0,0.0,0.0,0.0,0.0,0.0,0.0,0.0,0.0,0.0,0.0,0.0,0.0,0.0,0.0,0.0,0.0,0.0,0.0,0.0,0.0,0.0,0.0,0.0,0.0,0.0,0.0,0.0,0.0,0.0,0.0,0.0,0.0,0.0,0.0,0.0,0.0,0.0,0.0,0.0,0.0,0.0,0.0,0.0,0.0,0.0,0.0,0.0,0.0,0.0,0.0,0.0,0.0,0.0,0.0,0.0,0.0,0.0,0.0,0.0,0.0,0.0,0.0,0.0,0.0,0.0,0.0,0.0,0.0,0.0,0.0,0.0,0.0,0.0,0.0,0.0,0.0,0.0,0.0,0.0,0.0,0.0,0.0,0.0,0.0,0.0,0.0,0.0,0.0,0.0,0.0,0.0,0.0,0.0,0.0,0.0,0.0,0.0,0.0,0.0,0.0,0.0,0.0,0.0,0.0,0.0,0.0,0.0,0.0,0.0,0.0,0.0,0.0,0.0,0.0,0.0,0.0,0.0,0.0,0.0,0.0,0.0,0.0,0.0,0.0,0.0,0.0,0.0,0.0,0.0,0.0,0.0,0.0,0.0,0.0,0.0,0.0,0.0,0.0,0.0,0.0,0.0,0.0,0.0,0.0,0.0,0.0,0.0,0.0,0.0,0.0,0.0,0.0,0.0,0.0,0.0,0.0,0.0,0.0,0.0,0.0,0.0,0.0,0.0,0.0,0.0,0.0,0.0,0.0,0.0,0.0,0.0,0.0,0.0,0.0,0.0,0.0,0.0,0.0,0.0,0.0,0.0,0.0,0.0,0.0,0.0,0.0,0.0,0.0,0.0,0.0,0.0,0.0,0.0,0.0,0.0,0.0,0.0,0.0,0.0,0.0,0.0,0.0,0.0,0.0,0.0,0.0,0.0,0.0,0.0,0.0,0.0,0.0,0.0,0.0,0.0,0.0,0.0,0.0,0.0,0.0,0.0,0.0,0.0,0.0,0.0,0.0,0.0,0.0,0.0,0.0,0.0,0.0,0.0,0.0,0.0,0.0,0.0,0.0,0.0,0.0,0.0,0.0,0.0,0.0,0.0,0.0,0.0,0.0,0.0,0.0,0.0,0.0,0.0,0.0,0.0,0.0,0.0,0.0,0.0,0.0,0.0,0.0,0.0,0.0,0.0,0.0,0.0,0.0,0.0,0.0,0.0,0.0,0.0,0.0,0.0,0.0,0.0,0.0,0.0,0.0,0.0,0.0,0.0,0.0,0.0,0.0,0.0,0.0,0.0,0.0,0.0,0.0,0.0,0.0,0.0,0.0,0.0,0.0,0.0,0.0,0.0,0.0,0.0,0.0,0.0,0.0,0.0,0.0,0.0,0.0,0.0,0.0,0.0,0.0,0.0,0.0,0.0,0.0,0.0,0.0,0.0,0.0,0.0,0.0,0.0,0.0,0.0,0.0,0.0,0.0,0.0,0.0,0.0,0.0,0.0,0.0,0.0,0.0,0.0,0.0,0.0,0.0,0.0,0.0,0.0,0.0,0.0,0.0,0.0,0.0,0.0,0.0,0.0,0.0,0.0,0.0,0.0,0.0,0.0,0.0,0.0,0.0,0.0,0.0,0.0,0.0,0.0,0.0,0.0,0.0,0.0,0.0,0.0,0.0,0.0,0.0,0.0,0.0,0.0,0.0,0.0,0.0,0.0,0.0,0.0,0.0,0.0,0.0,0.0,0.0,0.0,0.0,0.0,0.0,0.0,0.0,0.0,0.0,0.0,0.0,0.0,0.0,0.0,0.0,0.0,0.0,0.0,0.0,0.0,0.0,0.0,0.0,0.0,0.0,0.0,0.0,0.0,0.0,0.0,0.0,0.0,0.0,0.0,0.0,0.0,0.0,0.0,0.0,0.0,0.0,0.0,0.0,0.0,0.0,0.0,0.0,0.0,0.0,0.0,0.0,0.0,0.0,0.0,0.0,0.0,0.0,0.0,0.0,0.0,0.0,0.0,0.0,0.0,0.0,0.0,0.0,0.0,0.0,0.0,0.0,0.0,0.0,0.0,0.0,0.0,0.0,0.0,0.0,0.0,0.0,0.0,0.0,0.0,0.0,0.0,0.0,0.0,0.0,0.0,0.0,0.0,0.0,0.0,0.0,0.0,0.0,0.0,0.0,0.0,0.0,0.0,0.0,0.0,0.0,0.0,0.0,0.0,0.0,0.0,0.0,0.0,0.0,0.0,0.0,0.0,0.0,0.0,0.0,0.0,0.0,0.0,0.0,0.0,0.0,0.0,0.0,0.0,0.0,0.0,0.0,0.0,0.0,0.0,0.0,0.0,0.0,0.0,0.0,0.0,0.0,0.0,0.0,0.0,0.0,0.0,0.0,0.0,0.0,0.0,0.0,0.0,0.0,0.0,0.0,0.0,0.0,0.0,0.0,0.0,0.0,0.0,0.0,0.0,0.0,0.0,0.0,0.0,0.0,0.0,0.0,0.0,0.0,0.0,0.0,0.0,0.0,0.0,0.0,0.0,0.0,0.0,0.0,0.0,0.0,0.0,0.0,0.0,0.0,0.0,0.0,0.0,0.0,0.0,0.0,0.0,0.0,0.0,0.0,0.0,0.0,0.0,0.0,0.0,0.0,0.0,0.0,0.0,0.0,0.0,0.0,0.0,0.0,0.0,0.0,0.0,0.0,0.0,0.0,0.0,0.0,0.0,0.0,0.0,0.0,0.0,0.0,0.0,0.0,0.0,0.0,0.0,0.0,0.0,0.0,0.0,0.0,0.0,0.0,0.0,0.0,0.0,0.0,0.0,0.0,0.0,0.0,0.0,0.0,0.0,0.0,0.0,0.0,0.0,0.0,0.0,0.0,0.0,0.0,0.0,0.0,0.0,0.0,0.0,0.0,0.0,0.0,0.0,0.0,0.0,0.0,0.0,0.0,0.0,0.0,0.0,0.0,0.0,0.0,0.0,0.0,0.0,0.0,0.0,0.0,0.0,0.0,0.0,0.0,0.0,0.0,0.0,0.0,0.0,0.0,0.0,0.0,0.0,0.0,0.0,0.0,0.0,0.0,0.0,0.0,0.0,0.0,0.0,0.0,0.0,0.0,0.0,0.0,0.0,0.0,0.0,0.0,0.0,0.0,0.0,0.0,0.0,0.0,0.0,0.0,0.0,0.0,0.0,0.0,0.0,0.0,0.0,0.0,0.0,0.0,0.0,0.0,0.0,0.0,0.0,0.0,0.0,0.0,0.0,0.0,0.0,0.0,0.0,0.0,0.0,0.0,0.0,0.0,0.0,0.0,0.0,0.0,0.0,0.0,0.0,0.0,0.0,0.0,-0.3891,0.0,0.0,0.0,-0.3679,0.0,0.0,0.0,0.0,0.0,0.0,0.0,0.0,0.0,0.0,0.0,0.0,0.0,0.0,0.0,0.0,0.0,0.0,0.0,0.0,0.0,0.0,0.0,0.0,0.0,0.0,0.0,0.0,0.0,0.0,0.0,0.0,0.0,0.0,0.0,0.0,0.0,0.0,0.0,0.0,0.0,0.0,0.0,0.0,0.0,0.0,0.0,0.0,0.0,0.0,0.0,0.0,0.0,0.0,0.0,0.0,0.0,0.0,0.0,0.0,0.0,0.0,0.0,0.0,0.0,0.0,0.0,0.0,0.0,0.0,0.0,0.0,0.0,0.0,0.0,0.0,0.0,0.0,0.0,0.0,0.0,0.0,0.0,0.0,0.0,0.0,0.0,0.0,0.0,0.0,0.0,0.0,0.0,0.0,0.0,0.0,0.0,0.0,0.0,0.0,0.0,0.0,0.0,0.0,0.0,0.0,0.0,0.0,0.0,0.0,-0.3862,-0.3802,-0.372,-0.3658,-0.3587,0.0,0.0,0.0,0.0,0.0,0.0,0.0,0.0,0.0,0.0,0.0,0.0,0.0,0.0,0.0,0.0,0.0,0.0,0.0,0.0,0.0,0.0,0.0,0.0,0.0,0.0,0.0,0.0,0.0,0.0,0.0,0.0,0.0,0.0,0.0,0.0,0.0,0.0,0.0,0.0,0.0,0.0,0.0,0.0,0.0,0.0,0.0,0.0,0.0,0.0,0.0,0.0,0.0,0.0,0.0,0.0,0.0,0.0,0.0,0.0,0.0,0.0,0.0,0.0,0.0,0.0,0.0,0.0,0.0,0.0,0.0,0.0,0.0,0.0,0.0,0.0,0.0,0.0,0.0,0.0,0.0,0.0,0.0,0.0,0.0,0.0,0.0,0.0,0.0,0.0,0.0,0.0,0.0,0.0,0.0,0.0,0.0,0.0,0.0,0.0,0.0,0.0,0.0,0.0,0.0,0.0,0.0,0.0,0.0,0.0,0.0,0.0,-0.3748,-0.364,-0.3498,0.0,0.0,0.0,0.0,0.0,0.0,0.0,0.0,0.0,0.0,0.0,0.0,0.0,0.0,0.0,0.0,0.0,0.0,0.0,0.0,0.0,0.0,0.0,0.0,0.0,0.0,0.0,0.0,0.0,0.0,0.0,0.0,0.0,0.0,0.0,0.0,0.0,0.0,0.0,0.0,0.0,0.0,0.0,0.0,0.0,0.0,0.0,0.0,0.0,0.0,0.0,0.0,0.0,0.0,0.0,0.0,0.0,0.0,0.0,0.0,0.0,0.0,0.0,0.0,0.0,0.0,0.0,0.0,0.0,0.0,0.0,0.0,0.0,0.0,0.0,0.0,0.0,0.0,0.0,0.0,0.0,0.0,0.0,0.0,0.0,0.0,0.0,0.0,0.0,0.0,0.0,0.0,0.0,0.0,0.0,0.0,0.0,0.0,0.0,0.0,0.0,0.0,0.0,0.0,0.0,0.0,0.0,0.0,0.0,0.0,-0.384,-0.3705,-0.3749,0.0,-0.3433,0.0,0.0,0.0,0.0,0.0,0.0,0.0,0.0,0.0,0.0,0.0,0.0,0.0,0.0,0.0,0.0,0.0,0.0,0.0,0.0,0.0,0.0,0.0,0.0,0.0,0.0,0.0,0.0,0.0,0.0,0.0,0.0,0.0,0.0,0.0,0.0,0.0,0.0,0.0,0.0,0.0,0.0,0.0,0.0,0.0,0.0,0.0,0.0,0.0,0.0,0.0,0.0,0.0,0.0,0.0,0.0,0.0,0.0,0.0,0.0,0.0,0.0,0.0,0.0,0.0,0.0,0.0,0.0,0.0,0.0,0.0,0.0,0.0,0.0,0.0,0.0,0.0,0.0,0.0,0.0,0.0,0.0,0.0,0.0,0.0,0.0,0.0,0.0,0.0,0.0,0.0,0.0,0.0,0.0,0.0,0.0,0.0,0.0,0.0,0.0,0.0,0.0,0.0,0.0,0.0,0.0,0.0,0.0,0.0,0.0,-0.3795,-0.3698,-0.3726,-0.3662,0.0,0.0,0.0,0.0,0.0,0.0,0.0,0.0,0.0,0.0,0.0,0.0,0.0,0.0,0.0,0.0,0.0,0.0,0.0,0.0,0.0,0.0,0.0,0.0,0.0,0.0,0.0,0.0,0.0,0.0,0.0,0.0,0.0,0.0,0.0,0.0,0.0,0.0,0.0,0.0,0.0,0.0,0.0,0.0,0.0,0.0,0.0,0.0,0.0,0.0,0.0,0.0,0.0,0.0,0.0,0.0,0.0,0.0,0.0,0.0,0.0,0.0,0.0,0.0,0.0,0.0,0.0,0.0,0.0,0.0,0.0,0.0,0.0,0.0,0.0,0.0,0.0,0.0,0.0,0.0,0.0,0.0,0.0,0.0,0.0,0.0,0.0,0.0,0.0,0.0,0.0,0.0,0.0,0.0,0.0,0.0,0.0,0.0,0.0,0.0,0.0,0.0,0.0,0.0,0.0,0.0,0.0,0.0,0.0,0.0,-0.3283,-0.3795,-0.3781,-0.3787,-0.3711,-0.3581,0.0,0.0,0.0,0.0,0.0,0.0,0.0,0.0,0.0,0.0,0.0,0.0,0.0,0.0,0.0,0.0,0.0,0.0,0.0,0.0,0.0,0.0,0.0,0.0,0.0,0.0,0.0,0.0,0.0,0.0,0.0,0.0,0.0,0.0,0.0,0.0,0.0,0.0,0.0,0.0,0.0,0.0,0.0,0.0,0.0,0.0,0.0,0.0,0.0,0.0,0.0,0.0,0.0,0.0,0.0,0.0,0.0,0.0,0.0,0.0,0.0,0.0,0.0,0.0,0.0,0.0,0.0,0.0,0.0,0.0,0.0,0.0,0.0,0.0,0.0,0.0,0.0,0.0,0.0,0.0,0.0,0.0,0.0,0.0,0.0,0.0,0.0,0.0,0.0,0.0,0.0,0.0,0.0,0.0,0.0,0.0,0.0,0.0,0.0,0.0,0.0,0.0,0.0,0.0,0.0,0.0,0.0,0.0,-0.1786,-0.3131,-0.3927,-0.3977,-0.3991,-0.3921,0.0,0.0,0.0,0.0,0.0,0.0,0.0,0.0,0.0,0.0,0.0,0.0,0.0,0.0,0.0,0.0,0.0,0.0,0.0,0.0,0.0,0.0,0.0,0.0,0.0,0.0,0.0,0.0,0.0,0.0,0.0,0.0,0.0,0.0,0.0,0.0,0.0,0.0,0.0,0.0,0.0,0.0,0.0,0.0,0.0,0.0,0.0,0.0,0.0,0.0,0.0,0.0,0.0,0.0,0.0,0.0,0.0,0.0,0.0,0.0,0.0,0.0,0.0,0.0,0.0,0.0,0.0,0.0,0.0,0.0,0.0,0.0,0.0,0.0,0.0,0.0,0.0,0.0,0.0,0.0,0.0,0.0,0.0,0.0,0.0,0.0,0.0,0.0,0.0,0.0,0.0,0.0,0.0,0.0,0.0,0.0,0.0,0.0,0.0,0.0,0.0,0.0,0.0,0.0,0.0,0.0,0.0,0.0,0.0,-0.1772,-0.3087,-0.3926,-0.4127,-0.4087,-0.4041,0.0,0.0,0.0,0.0,0.0,0.0,0.0,0.0,0.0,0.0,0.0,0.0,0.0,0.0,0.0,0.0,0.0,0.0,0.0,0.0,0.0,0.0,0.0,0.0,0.0,0.0,0.0,0.0,0.0,0.0,0.0,0.0,0.0,0.0,0.0,0.0,0.0,0.0,0.0,0.0,0.0,0.0,0.0,0.0,0.0,0.0,0.0,0.0,0.0,0.0,0.0,0.0,0.0,0.0,0.0,0.0,0.0,0.0,0.0,0.0,0.0,0.0,0.0,0.0,0.0,0.0,0.0,0.0,0.0,0.0,0.0,0.0,0.0,0.0,0.0,0.0,0.0,0.0,0.0,0.0,0.0,0.0,0.0,0.0,0.0,0.0,0.0,0.0,0.0,0.0,0.0,0.0,0.0,0.0,0.0,0.0,0.0,0.0,0.0,0.0,0.0,0.0,0.0,0.0,0.0,0.0,0.0,0.0,0.0,-0.2382,-0.3291,-0.3946,-0.4242,-0.4227,-0.3975,0.0,0.0,0.0,0.0,0.0,0.0,0.0,0.0,0.0,0.0,0.0,0.0,0.0,0.0,0.0,0.0,0.0,0.0,0.0,0.0,0.0,0.0,0.0,0.0,0.0,0.0,0.0,0.0,0.0,0.0,0.0,0.0,0.0,0.0,0.0,0.0,0.0,0.0,0.0,0.0,0.0,0.0,0.0,0.0,0.0,0.0,0.0,0.0,0.0,0.0,0.0,0.0,0.0,0.0,0.0,0.0,0.0,0.0,0.0,0.0,0.0,0.0,0.0,0.0,0.0,0.0,0.0,0.0,0.0,0.0,0.0,0.0,0.0,0.0,0.0,0.0,0.0,0.0,0.0,0.0,0.0,0.0,0.0,0.0,0.0,0.0,0.0,0.0,0.0,0.0,0.0,0.0,0.0,0.0,0.0,0.0,0.0,0.0,0.0,0.0,0.0,0.0,0.0,0.0,0.0,0.0,0.0,0.0,-0.2372,-0.373,-0.3818,-0.4062,-0.4389,-0.4407,-0.3678,0.0,0.0,0.0,0.0,0.0,0.0,0.0,0.0,0.0,0.0,0.0,0.0,0.0,0.0,0.0,0.0,0.0,0.0,0.0,0.0,0.0,0.0,0.0,0.0,0.0,0.0,0.0,0.0,0.0,0.0,0.0,0.0,0.0,0.0,0.0,0.0,0.0,0.0,0.0,0.0,0.0,0.0,0.0,0.0,0.0,0.0,0.0,0.0,0.0,0.0,0.0,0.0,0.0,0.0,0.0,0.0,0.0,0.0,0.0,0.0,0.0,0.0,0.0,0.0,0.0,0.0,0.0,0.0,0.0,0.0,0.0,0.0,0.0,0.0,0.0,0.0,0.0,0.0,0.0,0.0,0.0,0.0,0.0,0.0,0.0,0.0,0.0,0.0,0.0,0.0,0.0,0.0,0.0,0.0,0.0,0.0,0.0,0.0,0.0,0.0,0.0,0.0,0.0,0.0,0.0,0.0,0.0,0.0,0.0,-0.4683,-0.4733,-0.4895,-0.5177,-0.4636,-0.365,0.0,0.0,0.0,0.0,0.0,0.0,0.0,0.0,0.0,0.0,0.0,0.0,0.0,0.0,0.0,0.0,0.0,0.0,0.0,0.0,0.0,0.0,0.0,0.0,0.0,0.0,0.0,0.0,0.0,0.0,0.0,0.0,0.0,0.0,0.0,0.0,0.0,0.0,0.0,0.0,0.0,0.0,0.0,0.0,0.0,0.0,0.0,0.0,0.0,0.0,0.0,0.0,0.0,0.0,0.0,0.0,0.0,0.0,0.0,0.0,0.0,0.0,0.0,0.0,0.0,0.0,0.0,0.0,0.0,0.0,0.0,0.0,0.0,0.0,0.0,0.0,0.0,0.0,0.0,0.0,0.0,0.0,0.0,0.0,0.0,0.0,0.0,0.0,0.0,0.0,0.0,0.0,0.0,0.0,0.0,0.0,0.0,0.0,0.0,0.0,0.0,0.0,0.0,0.0,0.0,0.0,0.0,0.0,0.0,-0.6286,-0.5886,-0.5782,-0.6063,-0.4973,-0.3942,-0.2943,0.0,0.0,0.0,0.0,0.0,0.0,0.0,0.0,0.0,0.0,0.0,0.0,0.0,0.0,0.0,0.0,0.0,0.0,0.0,0.0,0.0,0.0,0.0,0.0,0.0,0.0,0.0,0.0,0.0,0.0,0.0,0.0,0.0,0.0,0.0,0.0,0.0,0.0,0.0,0.0,0.0,0.0,0.0,0.0,0.0,0.0,0.0,0.0,0.0,0.0,0.0,0.0,0.0,0.0,0.0,0.0,0.0,0.0,0.0,0.0,0.0,0.0,0.0,0.0,0.0,0.0,0.0,0.0,0.0,0.0,0.0,0.0,0.0,0.0,0.0,0.0,0.0,0.0,0.0,0.0,0.0,0.0,0.0,0.0,0.0,0.0,0.0,0.0,0.0,0.0,0.0,0.0,0.0,0.0,0.0,0.0,0.0,0.0,0.0,0.0,0.0,0.0,0.0,0.0,0.0,0.0,0.0,0.0,-0.8403,-0.7283,-0.6832,-0.7019,-0.5594,-0.4575,0.0,0.0,0.0,0.0,0.0,0.0,0.0,0.0,0.0,0.0,0.0,0.0,0.0,0.0,0.0,0.0,0.0,0.0,0.0,0.0,0.0,0.0,0.0,0.0,0.0,0.0,0.0,0.0,0.0,0.0,0.0,0.0,0.0,0.0,0.0,0.0,0.0,0.0,0.0,0.0,0.0,0.0,0.0,0.0,0.0,0.0,0.0,0.0,0.0,0.0,0.0,0.0,0.0,0.0,0.0,0.0,0.0,0.0,0.0,0.0,0.0,0.0,0.0,0.0,0.0,0.0,0.0,0.0,0.0,0.0,0.0,0.0,0.0,0.0,0.0,0.0,0.0,0.0,0.0,0.0,0.0,0.0,0.0,0.0,0.0,0.0,0.0,0.0,0.0,0.0,0.0,0.0,0.0,0.0,0.0,0.0,0.0,0.0,0.0,0.0,0.0,0.0,0.0,0.0,0.0,0.0,0.0,0.0,0.0,-0.8779,-0.9672,-0.968,-0.8726,-0.8206,-0.6854,0.0,0.0,0.0,0.0,0.0,0.0,0.0,0.0,0.0,0.0,0.0,0.0,0.0,0.0,0.0,0.0,0.0,0.0,0.0,0.0,0.0,0.0,0.0,0.0,0.0,0.0,0.0,0.0,0.0,0.0,0.0,0.0,0.0,0.0,0.0,0.0,0.0,0.0,0.0,0.0,0.0,0.0,0.0,0.0,0.0,0.0,0.0,0.0,0.0,0.0,0.0,0.0,0.0,0.0,0.0,0.0,0.0,0.0,0.0,0.0,0.0,0.0,0.0,0.0,0.0,0.0,0.0,0.0,0.0,0.0,0.0,0.0,0.0,0.0,0.0,0.0,0.0,0.0,0.0,0.0,0.0,0.0,0.0,0.0,0.0,0.0,0.0,0.0,0.0,0.0,0.0,0.0,0.0,0.0,0.0,0.0,0.0,0.0,0.0,0.0,0.0,0.0,0.0,0.0,0.0,0.0,0.0,0.0,-0.9282,-0.9939,-1.1314,-1.1628,-1.0776,-0.9789,-0.825,0.0,0.0,0.0,0.0,0.0,0.0,0.0,0.0,0.0,0.0,0.0,0.0,0.0,0.0,0.0,0.0,0.0,0.0,0.0,0.0,0.0,0.0,0.0,0.0,0.0,0.0,0.0,0.0,0.0,0.0,0.0,0.0,0.0,0.0,0.0,0.0,0.0,0.0,0.0,0.0,0.0,0.0,0.0,0.0,0.0,0.0,0.0,0.0,0.0,0.0,0.0,0.0,0.0,0.0,0.0,0.0,0.0,0.0,0.0,0.0,0.0,0.0,0.0,0.0,0.0,0.0,0.0,0.0,0.0,0.0,0.0,0.0,0.0,0.0,0.0,0.0,0.0,0.0,0.0,0.0,0.0,0.0,0.0,0.0,0.0,0.0,0.0,0.0,0.0,0.0,0.0,0.0,0.0,0.0,0.0,0.0,0.0,0.0,0.0,0.0,0.0,0.0,0.0,0.0,0.0,0.0,0.0,0.0,-0.9916,-1.1482,-1.2428,-1.2895,-1.2856,-1.0791,-0.9107,0.0,0.0,0.0,0.0,0.0,0.0,0.0,0.0,0.0,0.0,0.0,0.0,0.0,0.0,0.0,0.0,0.0,0.0,0.0,0.0,0.0,0.0,0.0,0.0,0.0,0.0,0.0,0.0,0.0,0.0,0.0,0.0,0.0,0.0,0.0,0.0,0.0,0.0,0.0,0.0,0.0,0.0,0.0,0.0,0.0,0.0,0.0,0.0,0.0,0.0,0.0,0.0,0.0,0.0,0.0,0.0,0.0,0.0,0.0,0.0,0.0,0.0,0.0,0.0,0.0,0.0,0.0,0.0,0.0,0.0,0.0,0.0,0.0,0.0,0.0,0.0,0.0,0.0,0.0,0.0,0.0,0.0,0.0,0.0,0.0,0.0,0.0,0.0,0.0,0.0,0.0,0.0,0.0,0.0,0.0,0.0,0.0,0.0,0.0,0.0,0.0,0.0,0.0,0.0,0.0,0.0,0.0,0.0,-1.0676,-1.229,-1.3166,-1.3613,-1.3672,-1.2065,-1.0221,0.0,0.0,0.0,0.0,0.0,0.0,0.0,0.0,0.0,0.0,0.0,0.0,0.0,0.0,0.0,0.0,0.0,0.0,0.0,0.0,0.0,0.0,0.0,0.0,0.0,0.0,0.0,0.0,0.0,0.0,0.0,0.0,0.0,0.0,0.0,0.0,0.0,0.0,0.0,0.0,0.0,0.0,0.0,0.0,0.0,0.0,0.0,0.0,-0.4158,0.0,0.0,0.0,0.0,0.0,0.0,0.0,0.0,0.0,0.0,0.0,0.0,0.0,0.0,0.0,0.0,0.0,0.0,0.0,0.0,0.0,0.0,0.0,0.0,0.0,0.0,0.0,0.0,0.0,0.0,0.0,0.0,0.0,0.0,0.0,0.0,0.0,0.0,0.0,0.0,0.0,0.0,0.0,0.0,0.0,0.0,0.0,0.0,0.0,0.0,0.0,0.0,0.0,0.0,0.0,0.0,0.0,0.0,0.0,-1.126,-1.2505,-1.3303,-1.3733,-1.3696,-1.2336,-1.0638,0.0,0.0,0.0,0.0,0.0,0.0,0.0,0.0,0.0,0.0,0.0,0.0,0.0,0.0,0.0,0.0,0.0,0.0,0.0,0.0,0.0,0.0,0.0,0.0,0.0,0.0,0.0,0.0,0.0,0.0,0.0,0.0,0.0,0.0,0.0,0.0,0.0,0.0,0.0,0.0,0.0,0.0,0.0,0.0,0.0,0.0,0.0,0.0,0.0,0.0,0.0,0.0,0.0,0.0,0.0,0.0,0.0,0.0,0.0,0.0,0.0,0.0,0.0,0.0,0.0,0.0,0.0,0.0,0.0,0.0,0.0,0.0,0.0,0.0,0.0,0.0,0.0,0.0,0.0,0.0,0.0,0.0,0.0,0.0,0.0,0.0,0.0,0.0,0.0,0.0,0.0,0.0,0.0,0.0,0.0,0.0,0.0,0.0,0.0,0.0,0.0,0.0,0.0,0.0,0.0,0.0,0.0,-0.9984,-1.1661,-1.2641,-1.3251,-1.3577,-1.3556,-1.2134,-1.0684,-0.9213,0.0,0.0,0.0,0.0,0.0,0.0,0.0,0.0,0.0,0.0,0.0,0.0,0.0,0.0,0.0,0.0,0.0,0.0,0.0,0.0,0.0,0.0,0.0,0.0,0.0,0.0,0.0,0.0,0.0,0.0,0.0,0.0,0.0,0.0,0.0,0.0,0.0,0.0,-0.539,-0.6145,0.0,0.0,0.0,0.0,0.0,0.0,0.0,0.0,-0.512,0.0,0.0,0.0,0.0,0.0,0.0,0.0,0.0,0.0,0.0,0.0,0.0,0.0,0.0,0.0,0.0,0.0,0.0,0.0,0.0,0.0,0.0,0.0,0.0,0.0,0.0,0.0,0.0,0.0,0.0,0.0,0.0,0.0,0.0,0.0,0.0,0.0,0.0,0.0,0.0,0.0,0.0,0.0,0.0,0.0,0.0,0.0,0.0,0.0,0.0,0.0,0.0,0.0,0.0,0.0,0.0,-0.833,-1.0159,-1.1846,-1.3371,-1.3428,-1.3463,-1.346,-1.2029,-1.0517,-0.9009,0.0,0.0,0.0,0.0,0.0,0.0,0.0,0.0,0.0,0.0,0.0,0.0,0.0,0.0,0.0,0.0,0.0,0.0,0.0,0.0,0.0,0.0,0.0,0.0,0.0,0.0,0.0,0.0,0.0,0.0,0.0,0.0,0.0,0.0,0.0,0.0,0.0,0.0,0.0,-0.7432,-0.8072,0.0,0.0,0.0,0.0,0.0,0.0,0.0,0.0,-0.5061,0.0,0.0,0.0,0.0,0.0,0.0,0.0,0.0,0.0,0.0,0.0,0.0,0.0,0.0,0.0,0.0,0.0,0.0,0.0,0.0,0.0,0.0,0.0,0.0,0.0,0.0,0.0,0.0,0.0,0.0,0.0,0.0,0.0,0.0,0.0,0.0,0.0,0.0,0.0,0.0,0.0,0.0,0.0,0.0,0.0,0.0,0.0,0.0,0.0,0.0,0.0,0.0,0.0,0.0,0.0,-0.8502,-1.0256,-1.1914,-1.3428,-1.3413,-1.3413,-1.3412,-1.1936,-1.0386,0.0,0.0,0.0,0.0,0.0,0.0,0.0,0.0,0.0,0.0,0.0,0.0,0.0,0.0,0.0,0.0,0.0,0.0,0.0,0.0,0.0,0.0,0.0,0.0,0.0,0.0,0.0,0.0,0.0,0.0,0.0,0.0,0.0,0.0,0.0,0.0,0.0,0.0,0.0,0.0,-0.8117,-0.8919,-0.8498,0.0,0.0,0.0,0.0,0.0,0.0,-0.6457,-0.5794,0.0,0.0,0.0,0.0,0.0,0.0,0.0,0.0,0.0,0.0,0.0,0.0,0.0,0.0,0.0,0.0,0.0,0.0,0.0,0.0,0.0,0.0,0.0,0.0,0.0,0.0,0.0,0.0,0.0,0.0,0.0,0.0,0.0,0.0,0.0,0.0,0.0,0.0,0.0,0.0,0.0,0.0,0.0,0.0,0.0,0.0,0.0,0.0,0.0,0.0,0.0,0.0,0.0,0.0,0.0,-0.8522,-1.0273,-1.1916,-1.3327,-1.3396,-1.3396,-1.3362,-1.185,-1.0316,0.0,0.0,0.0,0.0,0.0,0.0,0.0,0.0,0.0,0.0,0.0,0.0,0.0,0.0,0.0,0.0,0.0,0.0,0.0,0.0,0.0,0.0,0.0,0.0,0.0,0.0,0.0,0.0,0.0,0.0,0.0,0.0,0.0,0.0,0.0,0.0,0.0,0.0,0.0,0.0,0.0,-0.9532,-0.9576,-0.8316,0.0,0.0,0.0,0.0,-0.8031,-0.7643,0.0,0.0,0.0,0.0,0.0,0.0,0.0,0.0,0.0,0.0,0.0,0.0,0.0,0.0,0.0,0.0,0.0,0.0,0.0,0.0,0.0,0.0,0.0,0.0,0.0,0.0,0.0,0.0,0.0,0.0,0.0,0.0,0.0,0.0,0.0,0.0,0.0,0.0,0.0,0.0,0.0,0.0,0.0,0.0,0.0,0.0,0.0,0.0,0.0,0.0,0.0,0.0,0.0,0.0,0.0,0.0,-0.851,-1.0293,-1.1904,-1.3294,-1.3396,-1.3396,-1.3379,-1.1847,-1.0296,0.0,0.0,0.0,0.0,0.0,0.0,0.0,0.0,0.0,0.0,0.0,0.0,0.0,0.0,0.0,0.0,0.0,0.0,0.0,0.0,0.0,0.0,0.0,0.0,0.0,0.0,0.0,0.0,0.0,0.0,0.0,0.0,0.0,0.0,0.0,0.0,0.0,0.0,0.0,0.0,0.0,-1.0081,-0.9586,-0.9568,-0.9309,0.0,0.0,-0.8973,-0.912,-0.8632,0.0,0.0,0.0,0.0,0.0,0.0,0.0,0.0,0.0,0.0,0.0,0.0,0.0,0.0,0.0,0.0,0.0,0.0,0.0,0.0,0.0,0.0,0.0,0.0,0.0,0.0,0.0,0.0,0.0,0.0,0.0,0.0,0.0,0.0,0.0,0.0,0.0,0.0,0.0,0.0,0.0,0.0,0.0,0.0,0.0,0.0,0.0,0.0,0.0,0.0,0.0,0.0,0.0,0.0,0.0,-0.6843,-0.8383,-1.0216,-1.1872,-1.3328,-1.3396,-1.3396,-1.3396,-1.1849,-1.0289,0.0,0.0,0.0,0.0,0.0,0.0,0.0,0.0,0.0,0.0,0.0,0.0,0.0,0.0,0.0,0.0,0.0,0.0,0.0,0.0,0.0,0.0,0.0,0.0,0.0,0.0,0.0,0.0,0.0,0.0,0.0,0.0,0.0,0.0,0.0,0.0,0.0,0.0,0.0,0.0,0.0,0.0,-0.9882,-1.02,0.0,0.0,0.0,-1.0676,-1.102,0.0,0.0,0.0,0.0,0.0,0.0,0.0,0.0,0.0,0.0,0.0,0.0,0.0,0.0,0.0,0.0,0.0,0.0,0.0,0.0,0.0,0.0,0.0,0.0,0.0,0.0,0.0,0.0,0.0,0.0,0.0,0.0,0.0,0.0,0.0,0.0,0.0,0.0,0.0,0.0,0.0,0.0,0.0,0.0,0.0,0.0,0.0,0.0,0.0,0.0,0.0,0.0,0.0,0.0,0.0,0.0,0.0,-0.8284,-1.0142,-1.1838,-1.3328,-1.3396,-1.3396,-1.3379,-1.2017,0.0,0.0,0.0,0.0,0.0,0.0,0.0,0.0,0.0,0.0,0.0,0.0,0.0,0.0,0.0,0.0,0.0,0.0,0.0,0.0,0.0,0.0,0.0,0.0,0.0,0.0,0.0,-0.0224,0.0,0.0,0.0,0.0,0.0,0.0,0.0,0.0,0.0,0.0,0.0,0.0,0.0,0.0,-0.9429,-1.0379,-1.1127,-1.155,0.0,0.0,-1.2354,-1.2722,-1.2592,-1.1896,0.0,0.0,0.0,0.0,0.0,0.0,0.0,0.0,0.0,0.0,0.0,0.0,0.0,0.0,0.0,0.0,0.0,0.0,0.0,0.0,0.0,0.0,0.0,0.0,0.0,0.0,0.0,0.0,0.0,0.0,0.0,0.0,0.0,0.0,0.0,0.0,0.0,0.0,0.0,0.0,0.0,0.0,0.0,0.0,0.0,0.0,0.0,0.0,0.0,0.0,0.0,0.0,0.0,0.0,-0.6821,-0.83,-1.0139,-1.1872,-1.3328,-1.3396,-1.3396,-1.3379,-1.257,-1.1047,0.0,0.0,0.0,0.0,0.0,0.0,0.0,0.0,0.0,0.0,0.0,0.0,0.0,0.0,0.0,0.0,0.0,0.0,0.0,0.0,0.0,0.0,0.0,0.0,0.0,0.0,0.0,0.0,0.0,0.0,0.0,0.0,0.0,0.0,0.0,0.0,0.0,0.0,0.0,0.0,0.0,-1.0756,-1.1092,-1.2703,-1.3682,0.0,-1.3534,-1.3898,-1.3802,-1.4275,-1.3863,-1.1504,0.0,0.0,0.0,0.0,0.0,0.0,0.0,0.0,0.0,0.0,0.0,0.0,0.0,0.0,0.0,0.0,0.0,0.0,0.0,0.0,0.0,0.0,0.0,0.0,0.0,0.0,0.0,0.0,0.0,0.0,0.0,0.0,0.0,0.0,0.0,0.0,0.0,0.0,0.0,0.0,0.0,0.0,0.0,0.0,0.0,0.0,0.0,0.0,0.0,0.0,0.0,0.0,0.0,-0.6821,-0.8287,-1.0622,-1.2567,-1.4022,-1.4513,-1.4749,-1.4749,-1.3531,-1.1986,0.0,0.0,0.0,0.0,0.0,0.0,0.0,0.0,0.0,0.0,0.0,0.0,0.0,0.0,0.0,0.0,0.0,0.0,0.0,0.0,0.0,0.0,0.0,0.0,0.0,0.0,0.0,0.0,-0.4498,-0.4424,-0.3325,0.0,0.0,0.0,0.0,0.0,0.0,0.0,0.0,0.0,0.0,-1.124,-1.2989,-1.3935,0.0,0.0,-1.4125,-1.4261,-1.3902,-1.4906,-1.4804,-1.2155,-1.001,0.0,0.0,0.0,0.0,0.0,0.0,0.0,0.0,0.0,0.0,0.0,0.0,0.0,0.0,0.0,0.0,0.0,0.0,0.0,0.0,0.0,0.0,0.0,0.0,0.0,0.0,0.0,0.0,0.0,0.0,0.0,0.0,0.0,0.0,0.0,0.0,0.0,0.0,0.0,0.0,0.0,0.0,0.0,0.0,0.0,0.0,0.0,0.0,0.0,0.0,0.0,0.0,-0.7378,-0.8634,-1.1287,-1.3346,-1.4782,-1.5341,-1.5595,-1.5561,-1.4545,-1.3143,0.0,0.0,0.0,0.0,0.0,0.0,0.0,0.0,0.0,0.0,0.0,0.0,0.0,0.0,0.0,0.0,0.0,0.0,0.0,0.0,0.0,0.0,0.0,0.0,0.0,0.0,0.0,0.0,-0.4667,-0.4593,-0.3944,0.0,0.0,0.0,0.0,0.0,0.0,0.0,0.0,0.0,0.0,-1.1858,-1.4374,-1.5012,-1.4992,-1.4509,-1.4654,-1.4639,-1.406,-1.4971,-1.4959,-1.2655,0.0,0.0,0.0,0.0,0.0,0.0,0.0,0.0,0.0,0.0,0.0,0.0,0.0,0.0,0.0,0.0,0.0,0.0,0.0,0.0,0.0,0.0,0.0,0.0,0.0,0.0,0.0,0.0,0.0,0.0,0.0,0.0,0.0,0.0,0.0,0.0,0.0,0.0,0.0,0.0,0.0,0.0,0.0,0.0,0.0,0.0,0.0,0.0,0.0,0.0,0.0,0.0,0.0,-0.8605,-0.9402,-1.2005,-1.4108,-1.5547,-1.5595,-1.5646,-1.5646,-1.5561,-1.4494,-1.2219,0.0,0.0,0.0,0.0,0.0,0.0,0.0,0.0,0.0,0.0,0.0,0.0,0.0,0.0,0.0,0.0,0.0,0.0,0.0,0.0,0.0,0.0,0.0,0.0,0.0,0.0,-0.4666,-0.4438,-0.4675,0.0,0.0,0.0,0.0,0.0,0.0,0.0,0.0,0.0,0.0,-1.2234,-1.2725,-1.5039,-1.5894,-1.5971,-1.524,-1.5258,-1.5114,-1.4459,-1.4487,-1.4195,0.0,0.0,0.0,0.0,0.0,0.0,0.0,0.0,0.0,0.0,0.0,0.0,0.0,0.0,0.0,0.0,0.0,0.0,0.0,0.0,0.0,0.0,0.0,0.0,0.0,0.0,0.0,-0.392,-0.3265,0.0,0.0,0.0,0.0,0.0,0.0,0.0,0.0,0.0,0.0,0.0,-1.1209,-1.1296,0.0,0.0,0.0,0.0,0.0,0.0,0.0,0.0,0.0,0.0,0.0,0.0,-0.8976,-1.0248,-1.2857,-1.4962,-1.6467,-1.6956,-1.7211,-1.7236,-1.6697,-1.5255,-1.2874,0.0,0.0,0.0,0.0,0.0,0.0,0.0,0.0,0.0,0.0,0.0,0.0,0.0,0.0,0.0,0.0,0.0,0.0,0.0,0.0,0.0,0.0,0.0,0.0,0.0,-0.6215,0.0,0.0,0.0,0.0,0.0,0.0,0.0,0.0,0.0,0.0,0.0,-0.9991,-1.3704,-1.3667,-1.384,-1.5377,-1.6006,-1.5929,0.0,0.0,0.0,0.0,0.0,0.0,0.0,0.0,0.0,0.0,0.0,0.0,0.0,0.0,-1.0114,-0.7658,-0.7671,-0.8427,-0.9692,0.0,0.0,0.0,0.0,0.0,0.0,0.0,0.0,0.0,0.0,0.0,0.0,0.0,0.0,-0.6677,0.0,-0.4204,0.0,0.0,0.0,0.0,0.0,0.0,0.0,0.0,-1.0646,-1.1875,-1.3067,-1.3761,-1.3928,0.0,-1.2981,-1.1167,0.0,0.0,0.0,0.0,0.0,0.0,0.0,0.0,-1.0588,-1.158,-1.4125,-1.6102,-1.7363,-1.7855,-1.8074,-1.8095,-1.7287,-1.6018,-1.4338,-1.2735,-1.114,0.0,0.0,0.0,0.0,0.0,0.0,0.0,0.0,0.0,0.0,0.0,0.0,0.0,0.0,0.0,0.0,0.0,0.0,0.0,0.0,0.0,0.0,0.0,-0.5994,0.0,0.0,0.0,0.0,0.0,0.0,0.0,0.0,0.0,-0.6373,-0.8383,-1.1355,-1.4989,-1.4786,-1.4709,-1.5802,0.0,0.0,0.0,0.0,0.0,0.0,0.0,-1.3192,-1.324,-1.4148,-1.4484,-1.3353,-1.2945,-1.3284,-1.4968,0.0,0.0,-1.0481,-0.9967,-1.0533,-1.2398,-1.1839,-1.1253,-1.1911,-1.2398,-1.2949,0.0,0.0,0.0,0.0,0.0,0.0,0.0,0.0,-0.9107,-0.9083,0.0,-0.7474,0.0,0.0,0.0,0.0,0.0,-0.9233,0.0,0.0,-1.2734,-1.4224,-1.5201,-1.6807,-1.7151,-1.6295,-1.6111,-1.5322,-1.3799,-0.9088,0.0,0.0,0.0,0.0,0.0,0.0,-1.3329,-1.3362,-1.5795,-1.7468,-1.8194,-1.8208,-1.8201,-1.8172,-1.7322,-1.6745,-1.6502,-1.5098,-1.364,-1.2058,-0.9849,0.0,0.0,0.0,0.0,0.0,0.0,0.0,0.0,0.0,0.0,0.0,0.0,0.0,0.0,0.0,0.0,0.0,0.0,0.0,0.0,-0.6656,0.0,0.0,0.0,0.0,0.0,0.0,0.0,0.0,0.0,0.0,-0.9596,-1.0891,-1.3116,-1.6103,0.0,0.0,0.0,0.0,-1.6423,-1.6293,-1.5775,-1.5082,-1.4108,-1.4023,-1.4061,-1.4112,0.0,0.0,-1.5016,-1.4374,-1.4535,-1.6228,-1.609,-1.5174,-1.3574,-1.271,-1.2893,-1.4626,-1.4186,-1.367,-1.4156,-1.4541,-1.4917,-1.189,0.0,0.0,0.0,0.0,-1.0777,-1.1174,-1.1433,-1.2576,-1.3021,-1.2787,-1.1213,0.0,0.0,0.0,0.0,0.0,0.0,-1.2852,-1.4335,-1.5695,-1.6842,-1.7794,-1.8291,-1.8342,-1.804,-1.7966,-1.7329,-1.6146,-1.4034,-1.1468,-0.8618,0.0,0.0,0.0,0.0,-1.3503,-1.5176,-1.6605,-1.7731,-1.862,-1.8526,-1.8403,-1.8211,-1.7885,-1.7637,-1.7429,-1.6517,-1.553,-1.4419,-1.2756,0.0,0.0,0.0,0.0,0.0,0.0,0.0,0.0,0.0,0.0,0.0,0.0,0.0,0.0,0.0,0.0,0.0,0.0,0.0,-0.8884,-0.8286,-0.6846,0.0,0.0,0.0,0.0,0.0,0.0,0.0,0.0,0.0,-1.4112,-1.4075,-1.4546,0.0,0.0,-1.6158,-1.6471,-1.6534,-1.6479,-1.6436,-1.586,0.0,-1.4158,-1.4494,-1.4854,-1.4881,-1.5624,-1.617,-1.607,-1.6203,-1.6654,-1.7576,-1.7634,-1.715,-1.5881,-1.5377,-1.58,-1.7135,-1.7268,-1.7016,-1.6964,-1.7353,-1.7922,-1.5878,-1.311,-1.2142,-1.219,-1.2973,-1.3476,-1.3786,-1.4024,-1.5455,-1.6006,-1.5806,-1.4465,-1.359,-1.3035,-1.1834,0.0,0.0,0.0,-1.5177,-1.6616,-1.7581,-1.833,-1.8888,-1.9245,-1.9372,-1.9297,-1.9218,-1.8983,-1.8584,-1.7651,-1.631,-1.4531,0.0,0.0,-1.2016,-1.3243,-1.4768,-1.6484,-1.7489,-1.8289,-1.8825,-1.8715,-1.8522,-1.8218,-1.8426,-1.8449,-1.8251,-1.8082,-1.7491,-1.6368,-1.5391,-1.3431,0.0,0.0,0.0,0.0,0.0,0.0,0.0,0.0,0.0,0.0,0.0,-0.4316,-0.3857,0.0,0.0,0.0,-0.4503,-0.6752,-1.0146,-0.9528,0.0,0.0,0.0,0.0,0.0,0.0,0.0,-1.1128,-1.1784,-1.3266,-1.6078,-1.5861,-1.5699,-1.6391,-1.6534,-1.6534,-1.6534,0.0,-1.6672,-1.7112,-1.6592,-1.5939,-1.5154,-1.5778,-1.638,-1.6367,-1.6817,-1.6974,-1.6597,-1.7174,-1.7953,-1.8581,-1.8589,-1.8164,-1.7479,-1.7352,-1.7619,-1.8643,-1.9256,-1.9342,-1.8687,-1.9017,-1.9526,-1.882,-1.7942,-1.6226,-1.5447,-1.5415,-1.6254,-1.67,-1.6881,-1.7808,-1.8206,-1.8135,-1.7208,-1.6678,-1.6366,-1.5473,0.0,-1.627,-1.6433,-1.6996,-1.7853,-1.869,-1.9062,-1.9049,-1.9886,-2.0251,-2.0193,-2.011,-2.0389,-2.0914,-2.0155,-2.0045,-2.0466,-1.6507,-1.4427,-1.4323,-1.5614,-1.671,-1.7507,-1.8503,-1.9021,-1.9075,-1.8914,-1.8635,-1.8312,-1.8891,-1.9092,-1.8927,-1.9596,-1.931,-1.7863,-1.7545,-1.6155,-1.3347,0.0,0.0,0.0,0.0,0.0,0.0,0.0,0.0,0.0,0.0,0.0,0.0,0.0,0.0,-0.2721,-0.797,0.0,-1.1182,-1.0611,0.0,0.0,0.0,-0.9513,-0.9315,-1.0927,-1.2387,-1.3351,0.0,0.0,-1.6346,-1.6522,-1.6534,-1.6541,-1.6534,-1.6534,-1.6534,-1.6622,-1.7024,-1.8003,-1.7765,-1.725,-1.6704,-1.7505,-1.8179,-1.8053,-1.8204,-1.779,-1.7011,-1.7551,-1.8618,-1.956,-1.9068,-1.8567,-1.8695,-1.8729,-1.8929,-1.9474,-2.0334,-2.0721,-1.9806,-1.9818,-2.0172,-1.9994,-1.9768,-1.9378,-1.8457,-1.7332,-1.8166,-1.8597,-1.8734,-1.9614,-1.9992,-1.9933,-1.9035,-1.827,-1.7577,-1.7284,-1.7645,-1.8434,-1.845,-1.891,-1.9722,-1.9858,-1.9907,-1.992,-2.069,-2.1007,-2.096,-2.1375,-2.1639,-2.1711,-2.1385,-2.1253,-2.1279,-2.0173,-1.9002,-1.7884,-1.7516,-1.7733,-1.8538,-1.9381,-2.0119,-2.0712,-2.0042,-1.9544,-1.9195,-1.9206,-1.9109,-1.891,-1.9546,-1.9446,-1.8435,-1.7859,-1.7127,-1.611,-1.3025,0.0,0.0,0.0,0.0,0.0,0.0,0.0,0.0,0.0,-0.4154,-0.5224,0.0,-0.5512,0.0,-1.1039,-1.3626,-1.276,-1.2464,0.0,0.0,-1.1952,-1.1847,-1.1913,-1.2648,-1.3852,-1.5539,-1.5166,-1.5191,-1.6328,-1.6534,-1.6685,-1.7099,-1.6798,-1.6534,-1.6504,-1.7287,-1.789,-1.8154,-1.8103,-1.7953,-1.7903,-1.8719,-1.912,-1.8329,-1.8216,-1.8103,-1.7852,-1.8367,-1.9045,-1.9648,-1.9826,-1.9786,-1.9823,-2.0034,-2.0426,-2.105,-2.1424,-2.1486,-2.1124,-2.1351,-2.1735,-2.0381,-2.041,-2.048,-1.9951,-1.9095,-1.9629,-1.9841,-1.9935,-2.0389,-2.0605,-2.0559,-2.0111,-1.9621,-1.9166,-1.9114,-1.9548,-2.0312,-2.0316,-2.0739,-2.1495,-2.1417,-2.1325,-2.134,-2.167,-2.1768,-2.1708,-2.1943,-2.2185,-2.2374,-2.2262,-2.23,-2.2511,-2.2108,-2.1396,-2.0419,-1.9308,-1.8914,-1.9306,-1.9754,-2.024,-2.0616,-1.9823,-1.9396,-1.9417,-1.9579,-1.974,-1.9824,-2.0471,-2.0281,-1.9064,-1.8693,-1.8079,-1.7092,-1.5081,-1.2787,0.0,0.0,0.0,0.0,0.0,0.0,0.0,0.0,0.0,0.0,0.0,-0.7112,-1.059,-1.3764,-1.509,-1.3799,-1.3661,-1.3763,-1.4137,-1.3964,-1.3914,-1.41,-1.4569,-1.5302,-1.6366,-1.5982,-1.5831,-1.6446,-1.6798,-1.6965,-1.7036,-1.7287,-1.7262,-1.676,-1.7614,-1.853,-1.8857,-1.8631,-1.8555,-1.8857,-1.9409,-1.961,-1.907,-1.8907,-1.892,-1.892,-1.9171,-1.9472,-1.9736,-1.9914,-2.0194,-2.063,-2.0693,-2.107,-2.2342,-2.2845,-2.272,-2.2094,-2.2217,-2.2526,-2.039,-2.0405,-2.0593,-2.0659,-2.0678,-2.0834,-2.0801,-2.0601,-2.0596,-2.0593,-2.0593,-2.0598,-2.0656,-2.0747,-2.0744,-2.1204,-2.1948,-2.1959,-2.2299,-2.2882,-2.2821,-2.2775,-2.2689,-2.2635,-2.2559,-2.2407,-2.2309,-2.2539,-2.3028,-2.2941,-2.3164,-2.3592,-2.2934,-2.241,-2.2011,-2.0823,-2.0187,-2.0068,-2.0043,-2.0085,-2.0176,-1.9225,-1.8939,-1.9433,-1.9986,-2.0509,-2.0985,-2.1625,-2.1199,-1.9586,-1.9574,-1.8835,-1.7065,-1.6511,-1.5186,0.0,-1.1023,0.0,0.0,0.0,0.0,0.0,0.0,0.0,0.0,-0.7513,-0.8883,-1.445,-1.5869,-1.5982,-1.4726,-1.4575,-1.4826,-1.5452,-1.5527,-1.559,-1.5793,-1.6233,-1.6534,-1.6534,-1.6534,-1.6547,-1.6654,-1.7219,-1.7334,-1.7092,-1.7928,-1.8242,-1.7363,-1.8103,-1.9095,-1.9736,-1.9271,-1.9083,-1.956,-1.9761,-1.9786,-1.9773,-1.9823,-1.9886,-1.9748,-1.9874,-1.9974,-2.0037,-2.0049,-2.0292,-2.1285,-2.1173,-2.16,-2.3339,-2.4184,-2.4213,-2.3146,-2.293,-2.3136,-2.0386,-2.0458,-2.1247,-2.1562,-2.1597,-2.232,-2.1847,-2.0605,-2.0601,-2.0593,-2.0593,-2.0607,-2.0974,-2.1557,-2.1574,-2.2032,-2.2831,-2.2803,-2.2827,-2.2893,-2.278,-2.2671,-2.2642,-2.3101,-2.3239,-2.3142,-2.3525,-2.3713,-2.3712,-2.3524,-2.3436,-2.3455,-2.3206,-2.2664,-2.1901,0.0,0.0,0.0,-2.1004,-2.1025,-2.1587,-2.0135,-1.9599,-2.0148,-2.0147,0.0,-2.0985,-2.1528,-2.1073,-1.9448,-1.9311,0.0,0.0,0.0,0.0,0.0,0.0,0.0,0.0,0.0,0.0,0.0,-1.2826,-1.112,-1.1181,-1.0881,-1.1844,-1.4639,-1.5869,-1.6366,-1.6132,-1.6107,-1.6158,-1.6283,-1.6308,-1.6278,-1.6371,-1.6459,-1.6534,-1.6534,-1.6534,-1.6748,-1.73,-1.7543,-1.7806,-1.8119,-1.8681,-1.902,-1.9133,-1.9346,-1.9635,-1.9761,-1.9623,-1.961,-1.9773,-1.9798,-1.9811,-1.9849,-2.0213,-2.0288,-1.9999,-2.0363,-2.084,-2.1091,-2.0928,-2.0832,-2.1278,-2.1729,-2.2365,-2.3568,-2.4922,-2.5559,-2.4383,-2.4375,-2.4634,-2.1735,0.0,-2.222,-2.2429,0.0,-2.2912,-2.2615,-2.1831,-2.1833,-2.1819,-2.1832,-2.1825,-2.2071,-2.2429,-2.2406,-2.2863,-2.3679,-2.3611,-2.3806,-2.4138,-2.4005,-2.3875,-2.3752,-2.395,-2.3961,-2.3798,-2.3933,-2.3903,-2.3684,-2.3495,-2.3336,-2.3161,-2.3095,-2.276,-2.2262,-2.2262,-2.2129,-2.1866,-2.1074,-2.0882,-2.1237,-2.0027,-1.9651,-2.0271,-2.0533,0.0,0.0,0.0,0.0,0.0,0.0,0.0,0.0,0.0,0.0,-1.7747,-1.6321,-1.533,-1.497,-1.4984,-1.578,-1.7547,-1.5882,-1.4681,-1.4475,-1.3766,-1.3993,-1.5558,-1.6208,-1.6534,-1.6534,-1.6534,-1.6534,-1.6534,-1.6534,-1.6534,-1.6534,-1.6534,-1.6534,-1.6572,-1.6779,-1.7142,-1.7564,-1.8062,-1.8311,-1.847,-1.902,-1.9497,-1.9736,-1.9798,-1.9798,-1.9798,-1.9798,-1.9798,-1.9798,-1.9798,-1.9936,-2.0188,-2.0476,-2.0693,-2.0652,-2.0953,-2.1486,-2.2255,-2.2375,-2.2242,-2.2116,-2.2192,-2.2609,-2.3998,-2.5177,-2.5861,-2.5403,-2.527,-2.5206,-2.3112,-2.3112,-2.3254,-2.3319,-2.3338,-2.3497,-2.3554,-2.3532,0.0,0.0,0.0,-2.3079,-2.3178,-2.3305,-2.3227,-2.3684,-2.4469,-2.4432,-2.4757,-2.5351,-2.5233,-2.5056,-2.4861,-2.4654,-2.4444,-2.4247,-2.3958,-2.3685,-2.3435,-2.3241,-2.3047,-2.2876,-2.2825,-2.279,-2.2712,-2.2712,-2.2427,-2.1873,-2.1022,-2.0625,-2.0655,-1.9824,-1.9682,-2.0339,-2.0909,-2.1451,-2.1994,-2.1811,-2.1229,-2.0166,-1.9447,-1.8308,-1.6719,-1.8588,-1.9777,-1.9615,-1.8015,-1.7804,-1.954,-1.7812,-1.7369,-1.9037,-1.8148,-1.7507,-1.7325,-1.6084,-1.5663,-1.6562,-1.6552,-1.6534,-1.6534,-1.6534,-1.6534,-1.6534,-1.6534,-1.6559,-1.6647,-1.6672,-1.6748,-1.6804,-1.7235,-1.7597,-1.7793,-1.8449,-1.8919,-1.8707,-1.9258,-1.9798,-1.9798,-1.9798,-1.9798,-1.9798,-1.9798,-1.9798,-1.9823,-2.0075,-2.0238,-2.0618,-2.0869,-2.1091,-2.1393,-2.1713,-2.2363,-2.358,-2.3852,-2.3664,-2.3332,-2.276,-2.2903,-2.4477,-2.5244,-2.5757,-2.6105,-2.5945,-2.5697,-2.311,-2.3174,-2.3918,-2.4217,-2.4282,-2.5022,-2.533,-2.5224,-2.3767,-2.3104,-2.3104,-2.3046,-2.3432,-2.4125,-2.4055,-2.4471,-2.5236,-2.5216,-2.5226,-2.522,-2.5094,-2.494,-2.4719,-2.4461,-2.4229,-2.4036,-2.3707,-2.3417,-2.3151,-2.297,-2.279,-2.2672,-2.2657,-2.2685,-2.2764,-2.2738,-2.2686,-2.2617,-2.1807,-2.1335,-2.1361,-2.0457,-2.0309,-2.1002,-2.1147,-2.1458,-2.1948,-2.1811,-2.1229,-2.0231,-2.0161,-1.9412,-1.7912,-1.9204,-1.9935,-1.9726,-1.9491,-1.9512,-1.9711,-1.937,-1.9212,-1.9221,-1.8864,-1.8352,-1.7828,-1.722,-1.6946,-1.706,-1.6778,-1.6534,-1.6534,-1.6522,-1.6534,-1.6559,-1.6547,-1.671,-1.72,-1.7262,-1.7426,-1.784,-1.8041,-1.8229,-1.8432,-1.8833,-1.9171,-1.9446,-1.9648,-1.9798,-1.9798,-1.9798,-1.9798,-1.9798,-1.9798,-1.9798,-1.9936,-2.0665,-2.0991,-2.0756,-2.1455,-2.1845,-2.1656,-2.2432,-2.347,-2.4624,-2.4778,-2.4654,-2.4306,-2.38,-2.3922,-2.4835,-2.5467,-2.5948,-2.6283,-2.6526,-2.6864,-2.4505,-2.4551,-2.4949,-2.5111,-2.5135,-2.5527,-2.5697,-2.5626,-2.483,-2.4462,-2.4447,-2.4374,-2.4554,-2.4878,-2.4876,-2.5023,-2.535,-2.5313,-2.522,-2.5082,-2.4921,-2.4749,-2.4526,-2.4266,-2.4018,-2.3756,-2.344,-2.3151,-2.2944,-2.2738,-2.2569,-2.2483,-2.2532,-2.2623,-2.2738,-2.2694,-2.2703,-2.2668,-2.1867,-2.1439,-2.1422,-2.0967,-2.0858,-2.1213,-2.1586,-2.186,-2.201,-2.1827,-2.1425,-2.0825,-2.0701,-2.0198,-1.9357,-1.9844,-2.0131,-2.001,-1.9884,-1.9762,-1.9726,-1.9705,-1.9632,-1.9465,-1.9213,-1.895,-1.8567,-1.8055,-1.7733,-1.7693,-1.7227,-1.6863,-1.6778,-1.6607,-1.6672,-1.7219,-1.7345,-1.7539,-1.7765,-1.7827,-1.7928,-1.8191,-1.8468,-1.8656,-1.8706,-1.9133,-1.9497,-1.9773,-1.9798,-1.9798,-1.9798,-1.9798,-1.9798,-1.9798,-1.9798,-1.9962,-2.0238,-2.0928,-2.143,-2.1518,-2.1882,-2.2221,-2.2297,-2.3005,-2.3891,-2.516,-2.5605,-2.5495,-2.5077,-2.4523,-2.4607,-2.516,-2.5784,-2.6165,-2.6404,-2.6893,-2.7335,-2.569,-2.5681,-2.5693,-2.57,-2.5703,-2.5697,-2.5696,-2.5699,-2.5625,-2.5585,-2.5579,-2.5518,-2.5471,-2.5382,-2.5378,-2.5332,-2.5233,-2.5176,-2.5069,-2.4926,-2.4727,-2.454,-2.4355,-2.4077,-2.3816,-2.3562,-2.323,-2.2952,-2.2764,-2.2569,-2.246,-2.2405,-2.246,-2.2569,-2.2712,-2.2712,-2.2685,-2.2598,-2.1987,-2.1643,-2.1626,-2.1507,-2.1472,-2.1492,-2.2006,-2.2237,-2.2061,-2.1857,-2.1648,-2.1419,-2.1087,-2.0761,-2.0441,-2.0407,-2.0373,-2.027,-2.001,-1.9797,-1.9726,-1.9705,-1.969,-1.9647,-1.9465,-1.9339,-1.9213,-1.876,-1.8464,-1.8347,-1.7855,-1.7406,-1.7157,-1.6863,-1.6972,-1.7715,-1.8286,-1.8505,-1.8417,-1.8355,-1.8405,-1.8555,-1.8945,-1.9133,-1.9108,-1.9447,-1.9761,-1.9786,-1.9798,-1.9798,-1.9798,-1.9798,-1.9823,-1.9949,-1.9899,-2.0112,-2.0781,-2.1468,-2.1945,-2.2334,-2.2334,-2.2502,-2.2937,-2.31,-2.3872,-2.5425,-2.6272,-2.6204,-2.5742,-2.5314,-2.5272,-2.577,-2.6258,-2.6592,-2.6736,-2.7063,-2.7452,-2.5617,-2.5609,-2.5651,-2.5694,-2.5703,-2.5699,-2.5701,-2.5675,-2.562,-2.555,-2.5498,-2.5507,-2.5432,-2.5303,-2.5293,-2.5239,-2.5125,-2.5,-2.4847,-2.4719,-2.4578,-2.4426,-2.421,-2.3939,-2.3728,-2.3463,-2.3102,-2.2799,-2.2632,-2.2487,-2.2405,-2.2405,-2.246,-2.2552,-2.2685,-2.2712,-2.2685,-2.2703,-2.25,-2.2358,-2.232,-2.2248,-2.2209,-2.2209,-2.226,-2.2254,-2.2168,-2.1974,-2.1811,-2.1664,-2.1402,-2.1087,-2.0794,-2.0761,-2.0628,-2.0339,-2.027,-2.008,-1.9777,-1.9705,-1.969,-1.9675,-1.9596,-1.9611,-1.9617,-1.9398,-1.9191,-1.9008,-1.8662,-1.8109,-1.7529,-1.7253,-1.7273,-1.7753,-1.8828,-1.9472,-1.9032,-1.8733,-1.892,-1.9597,-1.9623,-1.9723,-1.9648,-1.9736,-1.9786,-1.9798,-1.9798,-1.9798,-1.9811,-1.9899,-2.01,-2.0363,-2.0188,-2.0376,-2.1242,-2.2309,-2.2623,-2.2472,-2.2664,-2.2987,-2.3173,-2.3305,-2.3767,-2.5756,-2.6698,-2.6788,-2.6457,-2.615,-2.6165,-2.6365,-2.6736,-2.713,-2.7299,-2.7395,-2.7578,-2.5556,-2.5604,-2.5621,-2.5659,-2.5703,-2.5698,-2.5671,-2.563,-2.556,-2.5506,-2.5426,-2.5451,-2.5398,-2.5302,-2.5231,-2.5122,-2.5032,-2.4865,-2.47,-2.4578,-2.4445,-2.4284,-2.4075,-2.3816,-2.3558,-2.3319,-2.2952,-2.2712,-2.2542,-2.2405,-2.2349,-2.2377,-2.2432,-2.2487,-2.2552,-2.2579,-2.2569,-2.2515,-2.246,-2.2422,-2.2366,-2.2293,-2.2327,-2.2327,-2.2327,-2.2254,-2.2197,-2.2032,-2.1911,-2.1827,-2.1617,-2.145,-2.1294,-2.1087,-2.0793,-2.0339,-2.0096,-1.9869,-1.9741,-1.9705,-1.9705,-1.9705,-1.9647,-1.9647,-1.969,-1.9523,-1.9543,-1.9872,-1.9348,-1.886,-1.8836,-1.79,-1.7596,-1.8588,-1.9383,-1.971,-1.9522,-1.9409,-1.951,-1.9761,-1.9798,-1.9798,-1.9798,-1.9798,-1.9798,-1.9798,-1.9798,-1.9798,-1.9823,-2.0162,-2.0652,-2.1029,-2.1104,-2.1355,-2.1933,-2.2598,-2.2937,-2.2899,-2.2975,-2.3138,-2.3628,-2.4028,-2.4751,-2.6165,-2.6803,-2.7115,-2.6893,-2.6855,-2.6855,-2.6945,-2.7049,-2.7335,-2.7401,-2.778,-2.8077,-2.5537,-2.5595,-2.56,-2.5651,-2.5702,-2.5697,-2.5662,-2.5595,-2.5523,-2.5466,-2.5401,-2.5397,-2.5341,-2.5271,-2.5157,-2.505,-2.494,-2.4753,-2.4613,-2.4479,-2.4339,-2.4154,-2.3978,-2.3714,-2.3468,-2.3199,-2.2868,-2.2623,-2.246,-2.2366,-2.2338,-2.2349,-2.2394,-2.2432,-2.2443,-2.2487,-2.2443,-2.2405,-2.2405,-2.2366,-2.231,-2.2327,-2.2327,-2.2327,-2.2327,-2.2299,-2.2225,-2.2089,-2.2032,-2.1974,-2.1857,-2.1768,-2.1724,-2.1419,-2.1006,-2.0373,-1.9975,-1.9762,-1.9726,-1.9705,-1.9705,-1.969,-1.9669,-1.9647,-1.9654,-1.956,-1.9948,-2.0812,-2.0355,-2.0117,-1.9751,-1.9014,-1.8837,-1.9577,-1.9749,-1.9798,-1.985,-1.9862,-1.9773,-1.9798,-1.9798,-1.9798,-1.9798,-1.9798,-1.9798,-1.9798,-1.9798,-1.9899,-2.0062,-2.0564,-2.1091,-2.1606,-2.1907,-2.2191,-2.2472,-2.2908,-2.3173,-2.3138,-2.3198,-2.3378,-2.4041,-2.462,-2.5397,-2.6326,-2.6907,-2.7218,-2.7167,-2.7233,-2.7284,-2.7335,-2.7386,-2.7527,-2.7831,-2.8271,-2.8622,-2.5518,-2.5593,-2.5663,-2.5693,-2.5702,-2.5697,-2.5662,-2.5604,-2.5518,-2.5464,-2.5401,-2.5397,-2.5332,-2.5192,-2.513,-2.5006,-2.4808,-2.466,-2.4532,-2.4393,-2.4266,-2.4135,-2.3996,-2.3714,-2.3491,-2.3265,-2.2893,-2.2552,-2.2321,-2.231,-2.2327,-2.231,-2.2349,-2.2405,-2.2405,-2.246,-2.246,-2.2394,-2.2377,-2.2366,-2.231,-2.2327,-2.2327,-2.2327,-2.2327,-2.2327,-2.2299,-2.2225,-2.2168,-2.2185,-2.2061,-2.1998,-2.1953,-2.1811,-2.1261,-2.0426,-2.0111,-1.9884,-1.9726,-1.9705,-1.9705,-1.969,-1.969,-1.975,-1.996,-1.9737,-2.0186,-2.1588,-2.1713,-2.1321,-2.0415,-2.0492,-2.0489,-1.9891,-1.9812,-1.9876,-1.9978,-1.9862,-1.9798,-1.9798,-1.9798,-1.9798,-1.9798,-1.9798,-1.9798,-1.9798,-1.9798,-1.9974,-2.0501,-2.0815,-2.1362,-2.2015,-2.2394,-2.254,-2.2971,-2.3327,-2.3437,-2.3403,-2.339,-2.3437,-2.4086,-2.4791,-2.5674,-2.6433,-2.7063,-2.7423,-2.7437,-2.7488,-2.7524,-2.7524,-2.7524,-2.7709,-2.7912,-2.8412,-2.8801,-2.5544,-2.5604,-2.5682,-2.5696,-2.5703,-2.5703,-2.5656,-2.5599,-2.5525,-2.5461,-2.5404,-2.5351,-2.5283,-2.5209,-2.5118,-2.4993,-2.4808,-2.4594,-2.4409,-2.4339,-2.4247,-2.4113,-2.3917,-2.3753,-2.3513,-2.3206,-2.2919,-2.2623,-2.2338,-2.2327,-2.2327,-2.2327,-2.2338,-2.2321,-2.2338,-2.2366,-2.2349,-2.2338,-2.2321,-2.231,-2.231,-2.2327,-2.2327,-2.2327,-2.2327,-2.2327,-2.2327,-2.2299,-2.2271,-2.2254,-2.2237,-2.2192,-2.2135,-2.154,-2.0909,-2.0373,-2.0111,-1.9919,-1.9726,-1.9705,-1.9705,-1.9705,-1.9632,-2.0256,-2.1131,-2.0372,-1.9933,-2.1172,-2.1616,-2.1389,-2.1272,-2.1288,-2.1148,-2.0548,-2.0192,-2.0016,-1.999,-1.9875,-1.9798,-1.9798,-1.9798,-1.9798,-1.9798,-1.9798,-1.9798,-1.9798,-1.9798,-2.0075,-2.0756,-2.1556,-2.2322,-2.2533,-2.2878,-2.3262,-2.3539,-2.3747,-2.3878,-2.3713,-2.3641,-2.3806,-2.4274,-2.5174,-2.6056,-2.65,-2.7167,-2.7524,-2.7524,-2.7524,-2.756,-2.756,-2.756,-2.7679,-2.7874,-2.8472,-2.9041,-2.5568,-2.5619,-2.5675,-2.5691,-2.5702,-2.5681,-2.563,-2.5549,-2.5498,-2.5448,-2.5397,-2.5332,-2.5253,-2.5198,-2.5111,-2.5,-2.4823,-2.4575,-2.4409,-2.4303,-2.4228,-2.4114,-2.3958,-2.3816,-2.358,-2.3271,-2.2902,-2.2596,-2.2366,-2.231,-2.2327,-2.2327,-2.2327,-2.2327,-2.2327,-2.2327,-2.2327,-2.2327,-2.2327,-2.2327,-2.2327,-2.2327,-2.2327,-2.2327,-2.2327,-2.2327,-2.2327,-2.2327,-2.2327,-2.2327,-2.2299,-2.2254,-2.2135,-2.1324,-2.0677,-2.0339,-2.0096,-1.9884,-1.9726,-1.9705,-1.9705,-1.9705,-1.9619,-2.0401,-2.2248,-2.0927,-2.0476,-2.0982,-2.118,-2.1277,-2.152,-2.1458,-2.1264,-2.0871,-2.0472,-2.0182,-2.008,-1.9914,-1.9798,-1.9798,-1.9798,-1.9798,-1.9798,-1.9798,-1.9798,-1.9798,-1.9798,-2.0075,-2.0928,-2.2121,-2.305,-2.2946,-2.3326,-2.3702,-2.3982,-2.4144,-2.4261,-2.4144,-2.4112,-2.4216,-2.4721,-2.5619,-2.6272,-2.6645,-2.7063,-2.7408,-2.756,-2.756,-2.756,-2.756,-2.7604,-2.7694,-2.8098,-2.8622,-2.9131,-2.5652,-2.5704,-2.5693,-2.5703,-2.5697,-2.5636,-2.556,-2.5511,-2.543,-2.5404,-2.5398,-2.5322,-2.5264,-2.5212,-2.5138,-2.5038,-2.4884,-2.4692,-2.4515,-2.4303,-2.4247,-2.4135,-2.4074,-2.3878,-2.3685,-2.3435,-2.2876,-2.2552,-2.2405,-2.2321,-2.231,-2.2327,-2.231,-2.2327,-2.2327,-2.2327,-2.2327,-2.2327,-2.2327,-2.2327,-2.2327,-2.2327,-2.2327,-2.2327,-2.2327,-2.2327,-2.2327,-2.2327,-2.2299,-2.2282,-2.2225,-2.2152,-2.1911,-2.1214,-2.0628,-2.0304,-2.0025,-1.9833,-1.9726,-1.9705,-1.9705,-1.969,-1.9508,-2.019,-2.1685,-2.1572,-2.1083,-2.0805,-2.0785,-2.0934,-2.1375,-2.1423,-2.1277,-2.0997,-2.0573,-2.0233,-2.0182,-1.9965,-1.9798,-1.9811,-1.9811,-1.9798,-1.9798,-1.9798,-1.9798,-1.9798,-1.9911,-2.0263,-2.1192,-2.2334,-2.3072,-2.3352,-2.3649,-2.3969,-2.4261,-2.4478,-2.458,-2.458,-2.4607,-2.4664,-2.5384,-2.6165,-2.6683,-2.7115,-2.7218,-2.756,-2.756,-2.756,-2.756,-2.7575,-2.7685,-2.776,-2.8068,-2.8517,-2.9131,-2.5662,-2.5693,-2.5703,-2.5696,-2.5684,-2.5625,-2.5556,-2.5506,-2.5434,-2.5395,-2.5379,-2.5341,-2.5293,-2.5252,-2.5198,-2.5087,-2.4972,-2.4802,-2.4617,-2.4375,-2.4248,-2.4172,-2.4075,-2.3937,-2.3646,-2.3295,-2.2902,-2.2676,-2.2542,-2.2432,-2.2349,-2.2366,-2.2338,-2.2327,-2.2327,-2.2327,-2.2327,-2.2327,-2.2327,-2.2327,-2.2327,-2.2327,-2.2327,-2.2327,-2.2327,-2.2327,-2.2327,-2.2327,-2.2299,-2.2242,-2.2135,-2.1986,-2.1751,-2.0974,-2.0289,-1.994,-1.9904,-1.9833,-1.9726,-1.9705,-1.9705,-1.9669,-1.9508,-2.0229,-2.1597,-2.1616,-2.118,-2.0799,-2.0699,-2.0947,-2.1471,-2.152,-2.1375,-2.1166,-2.0785,-2.0498,-2.0347,-2.0195,-2.0067,-2.008,-1.9914,-1.9811,-1.9798,-1.9798,-1.9798,-1.9849,-2.0188,-2.074,-2.1137,-2.2297,-2.3148,-2.345,-2.3806,-2.4157,-2.4492,-2.4821,-2.5034,-2.5189,-2.5203,-2.5328,-2.5988,-2.6578,-2.7049,-2.7357,-2.7509,-2.756,-2.756,-2.756,-2.756,-2.756,-2.759,-2.7724,-2.7904,-2.8308,-2.8816,-2.5703,-2.5702,-2.5699,-2.5676,-2.5648,-2.5604,-2.5538,-2.5452,-2.541,-2.5397,-2.5361,-2.5313,-2.5293,-2.5282,-2.522,-2.5141,-2.5006,-2.4889,-2.4711,-2.4464,-2.4303,-2.4191,-2.4113,-2.3955,-2.3689,-2.3365,-2.307,-2.2842,-2.2712,-2.2569,-2.246,-2.2432,-2.2366,-2.2338,-2.231,-2.2327,-2.2327,-2.2327,-2.2327,-2.2327,-2.2327,-2.2327,-2.2327,-2.2327,-2.2327,-2.2327,-2.2327,-2.2327,-2.2282,-2.2197,-2.2049,-2.184,-2.1587,-2.0778,-2.0115,-1.9797,-1.9762,-1.9762,-1.9726,-1.9705,-1.9705,-1.972,-1.9842,-2.0457,-2.1467,-2.1554,-2.118,-2.0799,-2.0699,-2.1046,-2.1712,-2.1807,-2.1616,-2.1423,-2.1131,-2.0799,-2.0498,-2.0385,-2.0283,-2.0182,-2.0016,-1.9914,-1.9798,-1.9798,-1.9798,-1.9886,-2.02,-2.0673,-2.1049,-2.2163,-2.2845,-2.3378,-2.3675,-2.4144,-2.465,-2.5048,-2.5439,-2.5701,-2.592,-2.615,-2.6539,-2.6997,-2.7458,-2.7458,-2.756,-2.756,-2.756,-2.756,-2.756,-2.756,-2.756,-2.7649,-2.7769,-2.7925,-2.8308,-2.5698,-2.5703,-2.5705,-2.5671,-2.5595,-2.5535,-2.5479,-2.5406,-2.5387,-2.5361,-2.5313,-2.5313,-2.5293,-2.5273,-2.5222,-2.5126,-2.5006,-2.4907,-2.4768,-2.4564,-2.4393,-2.4229,-2.4133,-2.3937,-2.375,-2.3553,-2.3265,-2.307,-2.2944,-2.2755,-2.2596,-2.2525,-2.246,-2.2366,-2.231,-2.2327,-2.2327,-2.2327,-2.2327,-2.2327,-2.2327,-2.2327,-2.2327,-2.2327,-2.2327,-2.2327,-2.2327,-2.2282,-2.2225,-2.214,-2.1886,-2.1617,-2.1246,-2.0628,-2.0045,-1.9741,-1.9705,-1.9741,-1.9705,-1.9705,-1.9705,-1.975,-2.0317,-2.1017,-2.1503,-2.1465,-2.1229,-2.0848,-2.0749,-2.1095,-2.1888,-2.2231,-2.2137,-2.1935,-2.1602,-2.1166,-2.061,-2.0623,-2.0523,-2.0334,-2.0182,-2.0029,-1.985,-1.9798,-1.9811,-1.9836,-1.9962,-2.0464,-2.1137,-2.2138,-2.2865,-2.3318,-2.3675,-2.4144,-2.4664,-2.5118,-2.5564,-2.619,-2.6457,-2.6736,-2.6907,-2.7321,-2.756,-2.756,-2.756,-2.756,-2.756,-2.756,-2.756,-2.756,-2.756,-2.756,-2.7619,-2.779,-2.7859,-2.5703,-2.57,-2.569,-2.566,-2.5595,-2.5523,-2.5452,-2.539,-2.5397,-2.5361,-2.5313,-2.5313,-2.5303,-2.5293,-2.5233,-2.5149,-2.5056,-2.4921,-2.4749,-2.4599,-2.4411,-2.4247,-2.4113,-2.3958,-2.3795,-2.3646,-2.3458,-2.3289,-2.3193,-2.2944,-2.279,-2.2712,-2.2552,-2.2432,-2.2394,-2.2338,-2.231,-2.2327,-2.2327,-2.2327,-2.2327,-2.2327,-2.2327,-2.2327,-2.2327,-2.2327,-2.2282,-2.2106,-2.1961,-2.1814,-2.1603,-2.1277,-2.0909,-2.0273,-1.9833,-1.9762,-1.9705,-1.9705,-1.9705,-1.9705,-1.9705,-1.9765,-2.0429,-2.0874,-2.1012,-2.1324,-2.128,-2.1033,-2.0898,-2.1131,-2.203,-2.2509,-2.2692,-2.2768,-2.2217,-2.1616,-2.1313,-2.1118,-2.0921,-2.0649,-2.0523,-2.0271,-2.0016,-1.9875,-1.9926,-1.9938,-2.0213,-2.0774,-2.15,-2.2276,-2.3125,-2.3378,-2.3747,-2.4216,-2.4677,-2.5089,-2.5688,-2.6457,-2.6893,-2.7203,-2.7321,-2.7437,-2.7575,-2.756,-2.756,-2.756,-2.756,-2.756,-2.756,-2.756,-2.756,-2.756,-2.756,-2.7634,-2.7649,-2.5703,-2.5699,-2.5693,-2.564,-2.5595,-2.5511,-2.5456,-2.5412,-2.5379,-2.5322,-2.5293,-2.5313,-2.5303,-2.5293,-2.5233,-2.5149,-2.5056,-2.4888,-2.4731,-2.4599,-2.4375,-2.421,-2.4133,-2.4016,-2.3917,-2.3816,-2.362,-2.3504,-2.3407,-2.3168,-2.297,-2.2816,-2.2632,-2.2487,-2.2394,-2.2338,-2.2327,-2.2327,-2.2327,-2.2327,-2.2327,-2.2327,-2.2327,-2.2327,-2.231,-2.2282,-2.2225,-2.202,-2.1797,-2.1587,-2.1371,-2.1119,-2.0646,-2.008,-1.9741,-1.9705,-1.9705,-1.9705,-1.9705,-1.9705,-1.9705,-1.9884,-2.0533,-2.091,-2.1053,-2.1454,-2.1793,-2.141,-2.1118,-2.152,-2.2217,-2.2828,-2.3142,-2.3187,-2.2783,-2.2231,-2.1902,-2.1602,-2.1277,-2.0934,-2.0785,-2.0623,-2.022,-2.0144,-1.9978,-1.9925,-2.0087,-2.0849,-2.1738,-2.2527,-2.3125,-2.3378,-2.3628,-2.3969,-2.4549,-2.5075,-2.5784,-2.6563,-2.71,-2.7473,-2.7524,-2.7539,-2.7575,-2.756,-2.756,-2.756,-2.756,-2.756,-2.756,-2.756,-2.756,-2.756,-2.756,-2.756,-2.756,-2.5703,-2.5699,-2.5701,-2.5652,-2.5586,-2.5544,-2.5449,-2.5395,-2.5341,-2.5313,-2.5303,-2.5303,-2.5283,-2.5301,-2.5203,-2.5107,-2.4981,-2.4842,-2.47,-2.4512,-2.4321,-2.4209,-2.419,-2.4113,-2.4054,-2.3976,-2.3795,-2.3685,-2.3549,-2.3342,-2.3119,-2.2919,-2.2712,-2.2542,-2.2432,-2.2338,-2.2327,-2.2327,-2.2327,-2.2327,-2.2327,-2.2327,-2.2327,-2.2327,-2.2327,-2.2237,-2.2123,-2.1932,-2.1708,-2.1386,-2.1309,-2.1023,-2.0527,-2.001,-1.9726,-1.9705,-1.9705,-1.9705,-1.9705,-1.9705,-1.9705,-1.9884,-2.0786,-2.1315,-2.1235,-2.1901,-2.2324,-2.1888,-2.1616,-2.1935,-2.2692,-2.3187,-2.3363,-2.3363,-2.3246,-2.2933,-2.2449,-2.2077,-2.1712,-2.1229,-2.1144,-2.0997,-2.0799,-2.0485,-2.0156,-1.985,-2.0049,-2.0577,-2.1512,-2.2451,-2.289,-2.3138,-2.3437,-2.3734,-2.4421,-2.5048,-2.5865,-2.6616,-2.7152,-2.7524,-2.7575,-2.7575,-2.7575,-2.756,-2.756,-2.756,-2.756,-2.756,-2.756,-2.756,-2.756,-2.756,-2.756,-2.756,-2.756,-2.5703,-2.5699,-2.5701,-2.5655,-2.5595,-2.5531,-2.5461,-2.5385,-2.5322,-2.5313,-2.5303,-2.5302,-2.5262,-2.5203,-2.5133,-2.5041,-2.4896,-2.4752,-2.4588,-2.4375,-2.4247,-2.4209,-2.419,-2.4113,-2.4094,-2.4016,-2.3876,-2.3771,-2.3682,-2.3476,-2.3265,-2.3045,-2.279,-2.2605,-2.2487,-2.2366,-2.2327,-2.2327,-2.2327,-2.2327,-2.2327,-2.2327,-2.2327,-2.2327,-2.2327,-2.2209,-2.2061,-2.1915,-2.1648,-2.1388,-2.1215,-2.0957,-2.0494,-1.9995,-1.9726,-1.9705,-1.9705,-1.9705,-1.9705,-1.9705,-1.9705,-1.9824,-2.078,-2.1425,-2.1336,-2.2236,-2.262,-2.2431,-2.2231,-2.2449,-2.3157,-2.3319,-2.3407,-2.348,-2.3451,-2.3378,-2.3187,-2.2723,-2.2278,-2.1996,-2.1759,-2.152,-2.1277,-2.0871,-2.0459,-2.0003,-1.9987,-2.0275,-2.123,-2.2359,-2.2836,-2.3198,-2.3437,-2.3793,-2.4247,-2.4991,-2.5865,-2.6616,-2.7115,-2.7539,-2.7575,-2.756,-2.756,-2.756,-2.756,-2.756,-2.756,-2.756,-2.756,-2.756,-2.756,-2.756,-2.756,-2.756,-2.7709,-2.5703,-2.5699,-2.5701,-2.5655,-2.56,-2.5538,-2.5449,-2.5393,-2.5341,-2.5313,-2.5303,-2.5302,-2.5241,-2.5141,-2.5069,-2.4962,-2.4785,-2.4588,-2.4425,-2.4266,-2.419,-2.417,-2.419,-2.4133,-2.4094,-2.4112,-2.3976,-2.3855,-2.3707,-2.3504,-2.3265,-2.3003,-2.2764,-2.2579,-2.246,-2.2349,-2.231,-2.2327,-2.2327,-2.2327,-2.2327,-2.2327,-2.2327,-2.2327,-2.2282,-2.2192,-2.2015,-2.1869,-2.1631,-2.134,-2.1151,-2.094,-2.0494,-2.001,-1.9741,-1.9705,-1.9705,-1.9705,-1.9705,-1.9705,-1.9705,-1.972,-2.0855,-2.1312,-2.1706,-2.2481,-2.2951,-2.2814,-2.2646,-2.2828,-2.3377,-2.3451,-2.3494,-2.3566,-2.3566,-2.3538,-2.3494,-2.3142,-2.2783,-2.2495,-2.2263,-2.203,-2.1684,-2.1251,-2.0673,-2.0169,-1.9875,-2.015,-2.1121,-2.2178,-2.3014,-2.339,-2.3569,-2.3865,-2.4261,-2.4935,-2.5825,-2.6539,-2.7078,-2.7437,-2.7575,-2.7575,-2.756,-2.756,-2.756,-2.756,-2.756,-2.756,-2.756,-2.756,-2.756,-2.756,-2.756,-2.756,-2.7844,-2.5703,-2.5699,-2.5701,-2.5655,-2.56,-2.5531,-2.5464,-2.5393,-2.5322,-2.5313,-2.5303,-2.5292,-2.5209,-2.5115,-2.4998,-2.4845,-2.4639,-2.4426,-2.4284,-2.421,-2.4153,-2.417,-2.417,-2.4151,-2.4133,-2.417,-2.4054,-2.3896,-2.3689,-2.3486,-2.3223,-2.2927,-2.2694,-2.2552,-2.2405,-2.2338,-2.2327,-2.2327,-2.2327,-2.2327,-2.2327,-2.2327,-2.2327,-2.2327,-2.2282,-2.2192,-2.2015,-2.1853,-2.1631,-2.134,-2.1199,-2.0892,-2.0494,-2.003,-1.9705,-1.9705,-1.9705,-1.9705,-1.9705,-1.9705,-1.9705,-1.975,-2.0932,-2.1565,-2.1828,-2.2646,-2.3186,-2.3127,-2.2963,-2.3008,-2.3275,-2.3334,-2.3451,-2.3523,-2.3551,-2.3595,-2.3508,-2.3304,-2.3083,-2.2918,-2.2586,-2.2296,-2.1921,-2.1458,-2.0871,-2.0347,-2.0093,-2.0164,-2.1096,-2.2211,-2.3127,-2.3569,-2.376,-2.3975,-2.4255,-2.4821,-2.5715,-2.6351,-2.6959,-2.7284,-2.7524,-2.7575,-2.756,-2.756,-2.756,-2.756,-2.756,-2.756,-2.756,-2.756,-2.756,-2.756,-2.756,-2.756,-2.7874,-2.5703,-2.5699,-2.5701,-2.5655,-2.56,-2.5531,-2.5464,-2.5393,-2.5322,-2.5313,-2.5293,-2.5241,-2.5176,-2.5082,-2.4893,-2.4726,-2.4517,-2.4321,-2.4229,-2.421,-2.4171,-2.4171,-2.419,-2.417,-2.4133,-2.4113,-2.4016,-2.3896,-2.3707,-2.3504,-2.3199,-2.2919,-2.2685,-2.2542,-2.2405,-2.2338,-2.2327,-2.2327,-2.2327,-2.2327,-2.2327,-2.2327,-2.2327,-2.2327,-2.2327,-2.2192,-2.1998,-2.1869,-2.1648,-2.1356,-2.1183,-2.0892,-2.0494,-1.996,-1.9726,-1.9705,-1.9705,-1.9705,-1.9705,-1.9705,-1.9705,-1.9989,-2.0932,-2.1665,-2.1983,-2.2802,-2.336,-2.3363,-2.3201,-2.3201,-2.3275,-2.3246,-2.329,-2.3407,-2.3494,-2.3494,-2.3494,-2.3407,-2.3319,-2.3098,-2.2814,-2.2434,-2.1983,-2.1506,-2.0921,-2.0485,-2.0182,-2.0242,-2.092,-2.2216,-2.3508,-2.3819,-2.3949,-2.4119,-2.4334,-2.4862,-2.5536,-2.6162,-2.6707,-2.7167,-2.7372,-2.7524,-2.756,-2.756,-2.756,-2.756,-2.756,-2.756,-2.756,-2.756,-2.756,-2.756,-2.756,-2.7575,-2.7664,-2.5703,-2.5699,-2.5701,-2.5655,-2.558,-2.5531,-2.5464,-2.5401,-2.5322,-2.5293,-2.5292,-2.522,-2.5141,-2.5019,-2.4889,-2.4666,-2.443,-2.4266,-2.4209,-2.419,-2.4152,-2.4152,-2.419,-2.417,-2.4132,-2.4074,-2.3996,-2.3852,-2.3642,-2.3412,-2.3102,-2.2842,-2.2649,-2.2487,-2.2394,-2.231,-2.2327,-2.2327,-2.2327,-2.2327,-2.2327,-2.2327,-2.2327,-2.2327,-2.2282,-2.2192,-2.2015,-2.1869,-2.1617,-2.1341,-2.1135,-2.0843,-2.0426,-2.001,-1.9705,-1.9705,-1.9705,-1.9705,-1.9705,-1.972,-1.9869,-2.0408,-2.1192,-2.1749,-2.2226,-2.2969,-2.3537,-2.3494,-2.3334,-2.3157,-2.2963,-2.3008,-2.3142,-2.3231,-2.3319,-2.3363,-2.3407,-2.3363,-2.3231,-2.3098,-2.2799,-2.2388,-2.1963,-2.1485,-2.097,-2.0573,-2.0271,-2.0397,-2.0756,-2.2355,-2.3923,-2.4041,-2.4171,-2.4255,-2.4411,-2.4818,-2.537,-2.5932,-2.6467,-2.6878,-2.7218,-2.7423,-2.7524,-2.756,-2.756,-2.756,-2.756,-2.756,-2.756,-2.756,-2.756,-2.756,-2.756,-2.7604,-2.7679,-2.5703,-2.5699,-2.5701,-2.5655,-2.5595,-2.5531,-2.5456,-2.5393,-2.5341,-2.5293,-2.5282,-2.5209,-2.5118,-2.498,-2.4798,-2.4545,-2.4303,-2.4228,-2.419,-2.419,-2.4151,-2.4151,-2.417,-2.4132,-2.4074,-2.4016,-2.3915,-2.3768,-2.3571,-2.3319,-2.3003,-2.2738,-2.2542,-2.2422,-2.2338,-2.231,-2.2327,-2.2327,-2.2327,-2.2327,-2.2327,-2.2327,-2.2327,-2.2327,-2.2327,-2.2192,-2.1998,-2.1869,-2.1617,-2.131,-2.1054,-2.0826,-2.0323,-1.9904,-1.9726,-1.9705,-1.9705,-1.9705,-1.9705,-1.9705,-2.0019,-2.0767,-2.1262,-2.1817,-2.2384,-2.3003,-2.348,-2.3436,-2.326,-2.3068,-2.2843,-2.2873,-2.2949,-2.3038,-2.3038,-2.3068,-2.3172,-2.3127,-2.3008,-2.2828,-2.2663,-2.2296,-2.1868,-2.1375,-2.0809,-2.0573,-2.022,-2.0067,-2.0636,-2.2716,-2.4028,-2.4261,-2.439,-2.4447,-2.4532,-2.4704,-2.5203,-2.57,-2.6201,-2.6669,-2.7011,-2.7284,-2.7437,-2.7575,-2.756,-2.756,-2.756,-2.756,-2.756,-2.756,-2.756,-2.756,-2.756,-2.764,-2.7715,-2.5701,-2.5699,-2.5701,-2.5652,-2.5586,-2.5525,-2.5476,-2.5395,-2.5313,-2.5293,-2.5282,-2.5187,-2.5075,-2.4921,-2.4623,-2.4426,-2.4321,-2.4247,-2.419,-2.4208,-2.417,-2.417,-2.419,-2.4133,-2.4016,-2.3935,-2.3807,-2.3656,-2.3458,-2.3223,-2.2944,-2.2676,-2.2487,-2.2366,-2.2327,-2.2327,-2.2327,-2.2327,-2.2327,-2.2327,-2.2327,-2.2327,-2.2327,-2.2327,-2.2282,-2.2192,-2.2015,-2.1869,-2.1587,-2.123,-2.0974,-2.0662,-2.0289,-1.994,-1.9762,-1.9705,-1.9705,-1.9705,-1.9705,-1.9705,-1.9944,-2.0737,-2.1203,-2.1762,-2.2389,-2.2848,-2.3187,-2.2992,-2.2797,-2.2737,-2.2706,-2.2706,-2.2706,-2.2737,-2.2814,-2.2889,-2.2934,-2.2754,-2.2646,-2.2463,-2.2263,-2.2016,-2.165,-2.1202,-2.0746,-2.0459,-2.0271,-2.0067,-2.0614,-2.2644,-2.4019,-2.4209,-2.4567,-2.4677,-2.4791,-2.4892,-2.5133,-2.5577,-2.6,-2.6457,-2.675,-2.7078,-2.7386,-2.7524,-2.7575,-2.756,-2.756,-2.756,-2.756,-2.756,-2.756,-2.756,-2.756,-2.7655,-2.7685,-2.57,-2.5699,-2.5701,-2.5652,-2.5595,-2.5531,-2.5456,-2.5404,-2.5322,-2.5283,-2.5241,-2.5138,-2.5006,-2.4808,-2.4508,-2.4373,-2.4303,-2.4228,-2.419,-2.419,-2.4151,-2.4133,-2.4113,-2.4036,-2.3917,-2.3792,-2.3642,-2.341,-2.3265,-2.3067,-2.2825,-2.2605,-2.2477,-2.2366,-2.2327,-2.2327,-2.2327,-2.2327,-2.2327,-2.2327,-2.2327,-2.2327,-2.2327,-2.2327,-2.2327,-2.2209,-2.2015,-2.1869,-2.157,-2.1166,-2.0877,-2.0579,-2.0185,-1.9869,-1.9705,-1.9705,-1.9705,-1.9705,-1.9705,-1.9705,-1.9959,-2.0266,-2.0822,-2.1521,-2.2352,-2.2715,-2.2783,-2.2523,-2.2278,-2.2278,-2.2417,-2.2417,-2.2417,-2.2463,-2.2586,-2.2586,-2.2586,-2.2388,-2.2217,-2.2044,-2.1807,-2.1506,-2.1202,-2.0908,-2.051,-2.0271,-2.0144,-2.0003,-2.0805,-2.2502,-2.352,-2.4046,-2.4496,-2.4892,-2.5005,-2.5174,-2.5329,-2.5686,-2.5892,-2.6312,-2.6539,-2.6817,-2.7233,-2.7524,-2.7575,-2.756,-2.756,-2.756,-2.756,-2.756,-2.756,-2.756,-2.756,-2.7575,-2.7655,-2.5702,-2.5699,-2.5701,-2.5655,-2.56,-2.5517,-2.5464,-2.5393,-2.5351,-2.5264,-2.5182,-2.5084,-2.4915,-2.4685,-2.451,-2.4355,-2.4266,-2.4209,-2.417,-2.4151,-2.4112,-2.4054,-2.3996,-2.3915,-2.3792,-2.3628,-2.3463,-2.3242,-2.2989,-2.2824,-2.2685,-2.2552,-2.2449,-2.2366,-2.2327,-2.2327,-2.2327,-2.2327,-2.2327,-2.2327,-2.2327,-2.2327,-2.2327,-2.2327,-2.2282,-2.2209,-2.2027,-2.1869,-2.1554,-2.1166,-2.0877,-2.0561,-2.0096,-1.9833,-1.9741,-1.9705,-1.9705,-1.9705,-1.9705,-1.9705,-1.9705,-1.996,-2.0641,-2.1693,-2.257,-2.2646,-2.2263,-2.1996,-2.1746,-2.1746,-2.1949,-2.203,-2.2137,-2.2231,-2.2324,-2.2324,-2.2324,-2.2137,-2.1841,-2.1506,-2.1215,-2.0759,-2.056,-2.0459,-2.0271,-2.008,-1.9952,-1.9925,-2.0881,-2.2201,-2.2965,-2.3524,-2.4623,-2.5048,-2.5174,-2.5314,-2.5536,-2.5795,-2.6014,-2.6204,-2.6433,-2.6803,-2.7284,-2.7423,-2.756,-2.756,-2.756,-2.756,-2.756,-2.756,-2.756,-2.756,-2.756,-2.756,-2.7575,-2.5703,-2.5699,-2.5701,-2.5655,-2.56,-2.5529,-2.5459,-2.5401,-2.5388,-2.5303,-2.5171,-2.5006,-2.4865,-2.4673,-2.4512,-2.432,-2.421,-2.4134,-2.4056,-2.3996,-2.3955,-2.3915,-2.3852,-2.3747,-2.3616,-2.3463,-2.323,-2.2993,-2.279,-2.2527,-2.2453,-2.2398,-2.2321,-2.231,-2.2282,-2.2282,-2.2299,-2.2299,-2.2282,-2.2282,-2.2282,-2.2282,-2.2282,-2.2282,-2.2282,-2.2209,-2.2027,-2.1869,-2.1617,-2.1199,-2.0974,-2.061,-2.0131,-1.9833,-1.9726,-1.9705,-1.9705,-1.9705,-1.9705,-1.9705,-1.9705,-2.0102,-2.0847,-2.1873,-2.2622,-2.2231,-2.1807,-2.1471,-2.1166,-2.1277,-2.1423,-2.1616,-2.1855,-2.2091,-2.2184,-2.2184,-2.2137,-2.1949,-2.1602,-2.1082,-2.0673,-2.0372,-2.0156,-2.0118,-2.0169,-1.9978,-1.9939,-1.9874,-2.0347,-2.1429,-2.2215,-2.3123,-2.4557,-2.5189,-2.523,-2.5425,-2.5742,-2.5946,-2.6136,-2.6258,-2.6433,-2.6855,-2.7284,-2.7473,-2.756,-2.756,-2.756,-2.756,-2.756,-2.756,-2.756,-2.756,-2.756,-2.756,-2.756,-2.5696,-2.5691,-2.5687,-2.5664,-2.56,-2.5537,-2.5452,-2.5401,-2.5351,-2.5253,-2.5107,-2.4955,-2.4808,-2.4626,-2.4444,-2.4303,-2.4172,-2.4036,-2.3937,-2.3876,-2.3831,-2.3747,-2.3638,-2.3463,-2.3295,-2.3126,-2.2902,-2.2634,-2.2368,-2.2198,-2.2123,-2.2065,-2.2077,-2.2118,-2.2118,-2.218,-2.2225,-2.2242,-2.2225,-2.2225,-2.2135,-2.2225,-2.2242,-2.2242,-2.2265,-2.2192,-2.1998,-2.1869,-2.1617,-2.1309,-2.1071,-2.0677,-2.025,-1.9904,-1.9726,-1.9705,-1.9705,-1.9705,-1.9705,-1.9705,-1.9705,-1.9901,-2.0744,-2.1729,-2.2457,-2.2044,-2.1251,-2.0871,-2.0686,-2.0848,-2.0947,-2.1277,-2.1602,-2.1902,-2.2044,-2.2091,-2.1949,-2.1712,-2.1361,-2.0871,-2.0523,-2.022,-2.0016,-1.9862,-1.9914,-1.9914,-1.9888,-1.9938,-2.0322,-2.0733,-2.1537,-2.2497,-2.3904,-2.4914,-2.4983,-2.5398,-2.5879,-2.6042,-2.619,-2.6418,-2.6592,-2.6907,-2.7269,-2.7473,-2.756,-2.756,-2.756,-2.756,-2.756,-2.756,-2.756,-2.756,-2.756,-2.756,-2.756,-2.5705,-2.5698,-2.5664,-2.5643,-2.5595,-2.5531,-2.5456,-2.5393,-2.5341,-2.5212,-2.5049,-2.4921,-2.4764,-2.4578,-2.4374,-2.421,-2.4094,-2.3915,-2.381,-2.3682,-2.3571,-2.3499,-2.3342,-2.3175,-2.2952,-2.2747,-2.2517,-2.2265,-2.2051,-2.1895,-2.1781,-2.1724,-2.1784,-2.184,-2.2015,-2.2061,-2.2123,-2.2123,-2.2094,-2.2077,-2.1969,-2.2032,-2.2123,-2.2152,-2.2175,-2.2101,-2.1969,-2.184,-2.1648,-2.1356,-2.1103,-2.0777,-2.0407,-2.0061,-1.9777,-1.9705,-1.9705,-1.9705,-1.9705,-1.9705,-1.9705,-1.9818,-2.0568,-2.1513,-2.2079,-2.2044,-2.1299,-2.0105,-2.022,-2.0435,-2.0498,-2.0835,-2.1277,-2.152,-2.1902,-2.1949,-2.1712,-2.1471,-2.1118,-2.0723,-2.0422,-2.0246,-2.0067,-1.9914,-1.9862,-1.9862,-1.9862,-1.9888,-2.0105,-2.0515,-2.0992,-2.1996,-2.3054,-2.3958,-2.4709,-2.508,-2.5481,-2.5906,-2.6162,-2.663,-2.6907,-2.7115,-2.7321,-2.7524,-2.756,-2.756,-2.756,-2.756,-2.756,-2.756,-2.756,-2.756,-2.756,-2.756,-2.756,-2.5696,-2.5697,-2.5634,-2.5595,-2.5576,-2.5525,-2.5468,-2.5387,-2.5313,-2.5179,-2.4994,-2.4865,-2.4704,-2.4547,-2.4284,-2.4096,-2.3935,-2.3725,-2.3549,-2.3453,-2.3253,-2.3151,-2.3003,-2.285,-2.2642,-2.2446,-2.2198,-2.194,-2.1781,-2.1524,-2.1417,-2.1417,-2.1479,-2.1645,-2.1882,-2.1969,-2.1969,-2.1911,-2.1928,-2.1899,-2.1869,-2.1899,-2.1957,-2.2015,-2.2015,-2.1957,-2.1882,-2.1751,-2.1556,-2.1371,-2.0909,-2.0613,-2.0478,-1.9995,-1.9726,-1.9705,-1.9705,-1.9705,-1.9705,-1.9705,-1.9705,-1.9833,-2.0553,-2.1554,-2.2361,-2.217,-2.1299,-2.0156,-1.9952,-1.9901,-2.0067,-2.0334,-2.0785,-2.1277,-2.1664,-2.1759,-2.152,-2.1375,-2.1019,-2.0709,-2.0549,-2.041,-2.0182,-2.0016,-1.9862,-1.9862,-1.9798,-1.9862,-1.999,-2.0361,-2.0849,-2.1394,-2.2405,-2.3136,-2.3946,-2.4608,-2.5119,-2.5591,-2.604,-2.651,-2.6959,-2.7269,-2.7423,-2.7575,-2.756,-2.756,-2.756,-2.756,-2.756,-2.756,-2.756,-2.756,-2.756,-2.756,-2.756,-2.5628,-2.5639,-2.5568,-2.5544,-2.5525,-2.5471,-2.5418,-2.537,-2.525,-2.5075,-2.4915,-2.4746,-2.4543,-2.4356,-2.4135,-2.3896,-2.3725,-2.3504,-2.3336,-2.3168,-2.3003,-2.2876,-2.2764,-2.2579,-2.2388,-2.2101,-2.1794,-2.1554,-2.1324,-2.1166,-2.1087,-2.1087,-2.1355,-2.157,-2.1781,-2.1869,-2.184,-2.1811,-2.1797,-2.1738,-2.1708,-2.1735,-2.1794,-2.1869,-2.1844,-2.186,-2.1811,-2.1617,-2.1433,-2.123,-2.073,-2.0395,-2.0204,-1.9726,-1.9726,-1.9705,-1.9705,-1.9705,-1.9705,-1.9705,-1.9705,-2.0013,-2.0553,-2.1596,-2.2611,-2.2402,-2.1396,-2.0409,-1.9901,-1.9862,-2.0067,-2.0016,-2.0409,-2.1166,-2.1506,-2.1506,-2.1361,-2.1264,-2.1068,-2.0759,-2.0573,-2.0536,-2.0372,-2.0271,-2.0169,-2.0016,-1.9952,-1.9914,-2.0042,-2.0386,-2.0794,-2.1042,-2.1734,-2.2445,-2.3177,-2.4073,-2.4811,-2.5315,-2.5837,-2.6326,-2.6803,-2.7218,-2.7473,-2.7524,-2.756,-2.756,-2.7575,-2.7575,-2.756,-2.756,-2.756,-2.756,-2.756,-2.756,-2.756,-2.5585,-2.557,-2.5486,-2.5471,-2.5461,-2.5429,-2.5369,-2.5282,-2.5106,-2.4947,-2.479,-2.4588,-2.4372,-2.4154,-2.3899,-2.3685,-2.3481,-2.3223,-2.307,-2.2893,-2.2747,-2.2632,-2.2487,-2.2304,-2.2077,-2.1797,-2.1509,-2.123,-2.1023,-2.0893,-2.0925,-2.1119,-2.1309,-2.1587,-2.1768,-2.1811,-2.1768,-2.1738,-2.1694,-2.1617,-2.1587,-2.157,-2.1648,-2.1694,-2.1727,-2.1699,-2.1603,-2.1448,-2.1198,-2.0942,-2.0579,-2.017,-1.9869,-1.9705,-1.9705,-1.9705,-1.9705,-1.9705,-1.9705,-1.9632,-1.973,-2.0064,-2.0669,-2.1512,-2.2376,-2.231,-2.1458,-2.0623,-2.0016,-1.9965,-2.0016,-1.9914,-2.0422,-2.1229,-2.141,-2.141,-2.1361,-2.1277,-2.1082,-2.0822,-2.0673,-2.0636,-2.0623,-2.0536,-2.0485,-2.0321,-2.0156,-2.0118,-2.008,-2.0423,-2.0714,-2.0961,-2.1275,-2.1983,-2.2814,-2.3704,-2.4433,-2.5078,-2.5577,-2.6056,-2.65,-2.6907,-2.7218,-2.7423,-2.7423,-2.7423,-2.7524,-2.7575,-2.7423,-2.7423,-2.7423,-2.7473,-2.756,-2.7575,-2.7575,-2.5562,-2.5493,-2.5437,-2.5398,-2.5393,-2.536,-2.5252,-2.5101,-2.4953,-2.4827,-2.4692,-2.4424,-2.4174,-2.3943,-2.3635,-2.3405,-2.3253,-2.2952,-2.279,-2.2659,-2.2552,-2.2405,-2.2265,-2.2061,-2.1857,-2.1587,-2.1277,-2.1039,-2.0794,-2.081,-2.0909,-2.1199,-2.145,-2.1664,-2.1768,-2.1811,-2.1768,-2.1724,-2.165,-2.1573,-2.1526,-2.1482,-2.1559,-2.1589,-2.1606,-2.1544,-2.1433,-2.1246,-2.1023,-2.0761,-2.0475,-2.0115,-1.9869,-1.9741,-1.9705,-1.9705,-1.9705,-1.9705,-1.9705,-1.9596,-1.9841,-2.0226,-2.0599,-2.137,-2.1795,-2.1996,-2.1361,-2.0573,-1.9965,-1.9978,-1.9978,-2.0334,-2.0749,-2.1131,-2.1423,-2.1423,-2.1375,-2.1229,-2.1095,-2.0947,-2.0911,-2.0911,-2.1033,-2.097,-2.097,-2.0686,-2.0523,-2.0372,-2.0321,-2.0372,-2.0699,-2.0888,-2.1231,-2.1653,-2.2443,-2.3489,-2.4204,-2.4894,-2.5203,-2.5619,-2.6111,-2.6606,-2.6907,-2.7115,-2.7181,-2.7233,-2.7372,-2.7321,-2.7115,-2.7115,-2.7063,-2.7269,-2.7372,-2.7473,-2.7473,-2.549,-2.5434,-2.5404,-2.5369,-2.5303,-2.516,-2.5094,-2.5006,-2.4889,-2.4707,-2.4476,-2.4211,-2.3945,-2.3696,-2.3405,-2.3182,-2.2952,-2.2764,-2.2605,-2.2487,-2.2432,-2.2321,-2.218,-2.1974,-2.1721,-2.1448,-2.1135,-2.0844,-2.0679,-2.0662,-2.0974,-2.1262,-2.1542,-2.1738,-2.1857,-2.1911,-2.184,-2.1768,-2.1711,-2.1603,-2.1559,-2.1544,-2.1589,-2.162,-2.1526,-2.1464,-2.1309,-2.1119,-2.0844,-2.0561,-2.0289,-2.0045,-1.9955,-1.9812,-1.9705,-1.9705,-1.9705,-1.9705,-1.969,-1.956,-1.9715,-2.0186,-2.0438,-2.0771,-2.1239,-2.1423,-2.1153,-2.0472,-1.9965,-1.9965,-2.0233,-2.0586,-2.0983,-2.1375,-2.165,-2.1746,-2.1712,-2.1423,-2.1229,-2.1046,-2.101,-2.1207,-2.1326,-2.165,-2.1602,-2.1215,-2.0885,-2.0723,-2.0523,-2.0573,-2.0623,-2.0861,-2.1156,-2.1568,-2.2392,-2.3375,-2.4076,-2.4708,-2.4935,-2.5328,-2.6056,-2.65,-2.6712,-2.6803,-2.675,-2.6959,-2.7218,-2.7011,-2.663,-2.6645,-2.6592,-2.6907,-2.7167,-2.7218,-2.7269,-2.5437,-2.5395,-2.537,-2.5332,-2.5222,-2.5094,-2.4961,-2.487,-2.4738,-2.4528,-2.4265,-2.3963,-2.3696,-2.3468,-2.3182,-2.2902,-2.2685,-2.2579,-2.246,-2.2394,-2.2349,-2.2237,-2.2106,-2.1915,-2.1678,-2.1355,-2.1039,-2.0778,-2.0646,-2.0811,-2.1087,-2.1419,-2.1648,-2.1857,-2.1991,-2.2049,-2.2049,-2.1932,-2.1844,-2.1724,-2.1711,-2.168,-2.1711,-2.1664,-2.154,-2.1417,-2.1246,-2.1007,-2.0712,-2.0392,-2.0185,-2.001,-1.9919,-1.9762,-1.9705,-1.9705,-1.9705,-1.9705,-1.9705,-1.9545,-1.9685,-1.988,-2.0028,-2.0576,-2.0994,-2.1326,-2.0822,-2.0283,-2.0016,-1.9952,-2.0372,-2.0772,-2.1264,-2.1698,-2.1935,-2.2217,-2.1935,-2.1664,-2.1423,-2.1193,-2.1242,-2.1423,-2.1712,-2.2091,-2.2184,-2.1698,-2.1264,-2.1033,-2.0785,-2.0586,-2.0699,-2.0875,-2.1166,-2.1492,-2.2326,-2.2929,-2.3451,-2.4,-2.4654,-2.5106,-2.592,-2.634,-2.65,-2.6433,-2.6272,-2.6418,-2.6525,-2.6297,-2.6014,-2.5974,-2.5988,-2.6258,-2.6525,-2.6841,-2.6893,-2.5337,-2.537,-2.5322,-2.5252,-2.5195,-2.5044,-2.4851,-2.4676,-2.451,-2.432,-2.404,-2.3735,-2.3473,-2.3253,-2.2952,-2.2694,-2.2525,-2.2432,-2.2366,-2.2282,-2.2265,-2.2163,-2.2032,-2.184,-2.1648,-2.1309,-2.1023,-2.0811,-2.0843,-2.1006,-2.1277,-2.1603,-2.1827,-2.202,-2.2152,-2.218,-2.2168,-2.2123,-2.202,-2.1915,-2.1857,-2.1827,-2.1797,-2.1738,-2.1634,-2.1481,-2.123,-2.0958,-2.0662,-2.0373,-2.0131,-1.9919,-1.9797,-1.9726,-1.9726,-1.9705,-1.9705,-1.9705,-1.9669,-1.956,-1.945,-1.9482,-1.9495,-2.0188,-2.0749,-2.1156,-2.0723,-2.0283,-2.0016,-2.0156,-2.0523,-2.1166,-2.1698,-2.1983,-2.2263,-2.231,-2.2077,-2.1759,-2.1375,-2.1229,-2.1277,-2.1471,-2.1807,-2.2184,-2.237,-2.1983,-2.1746,-2.1423,-2.0983,-2.0699,-2.0649,-2.0775,-2.0964,-2.1223,-2.1615,-2.2165,-2.2533,-2.3157,-2.3987,-2.4881,-2.5674,-2.6071,-2.6286,-2.5948,-2.5605,-2.5564,-2.555,-2.537,-2.53,-2.5147,-2.5258,-2.5495,-2.5811,-2.6136,-2.6418,-2.4753,-2.5332,-2.5253,-2.5179,-2.5087,-2.498,-2.4712,-2.4441,-2.4229,-2.4041,-2.3878,-2.3598,-2.3301,-2.3052,-2.279,-2.2525,-2.2432,-2.2265,-2.2271,-2.2197,-2.2135,-2.2032,-2.1928,-2.1797,-2.1587,-2.1355,-2.1103,-2.0909,-2.099,-2.1199,-2.1481,-2.1797,-2.202,-2.2168,-2.2254,-2.2254,-2.2271,-2.2254,-2.2225,-2.2061,-2.1957,-2.1986,-2.2003,-2.1899,-2.1811,-2.1587,-2.1293,-2.1007,-2.0613,-2.0254,-2.0096,-1.9919,-1.9726,-1.9726,-1.9705,-1.9705,-1.9705,-1.9705,-1.9669,-1.9596,-1.9487,-1.956,-1.9666,-2.0034,-2.0398,-2.0765,-2.0782,-2.0333,-2.0246,-2.0435,-2.0822,-2.1492,-2.203,-2.2263,-2.2463,-2.231,-2.2123,-2.1746,-2.1326,-2.1326,-2.1326,-2.1568,-2.1902,-2.2137,-2.231,-2.2263,-2.2137,-2.1807,-2.1118,-2.0686,-2.0472,-2.0586,-2.0623,-2.0895,-2.1121,-2.1445,-2.1849,-2.2598,-2.3517,-2.446,-2.5425,-2.5453,-2.5439,-2.5174,-2.4892,-2.4892,-2.4835,-2.4637,-2.4523,-2.4478,-2.4593,-2.4878,-2.5048,-2.5314,-2.566,-2.3781,-2.4168,-2.411,-2.4055,-2.3933,-2.3763,-2.3739,-2.3762,-2.3509,-2.349,-2.3584,-2.3342,-2.3095,-2.2842,-2.2596,-2.2405,-2.2293,-2.2135,-2.2077,-2.2049,-2.1945,-2.1869,-2.1797,-2.1724,-2.1587,-2.1355,-2.1183,-2.1087,-2.1199,-2.134,-2.1617,-2.1915,-2.2094,-2.2242,-2.2299,-2.2299,-2.2271,-2.2254,-2.2282,-2.2163,-2.2044,-2.2089,-2.2163,-2.2077,-2.1911,-2.1675,-2.1339,-2.1055,-2.0646,-2.0239,-1.999,-1.9833,-1.9726,-1.9705,-1.9705,-1.9705,-1.9705,-1.9705,-1.9654,-1.9632,-1.956,-1.9634,-1.9482,-1.9672,-1.9265,-1.9581,-2.014,-1.983,-2.0357,-2.0649,-2.1118,-2.1746,-2.2123,-2.2463,-2.237,-2.2184,-2.1888,-2.1471,-2.1277,-2.1229,-2.1277,-2.1326,-2.1616,-2.1902,-2.2077,-2.2263,-2.2184,-2.1902,-2.1264,-2.0673,-2.0472,-2.0372,-2.0409,-2.0385,-2.0502,-2.0849,-2.125,-2.2057,-2.2955,-2.3928,-2.4693,-2.4657,-2.4536,-2.4376,-2.4332,-2.4403,-2.4274,-2.4144,-2.3956,-2.3897,-2.4086,-2.4332,-2.4376,-2.4549,-2.4821,-2.2714,-2.2765,-2.2748,-2.2637,-2.2517,-2.2424,-2.2663,-2.2994,-2.2844,-2.2948,-2.3224,-2.3028,-2.2842,-2.2649,-2.2388,-2.2265,-2.2123,-2.1932,-2.1886,-2.1811,-2.1751,-2.1661,-2.1648,-2.1634,-2.1526,-2.1433,-2.1294,-2.1262,-2.1325,-2.1511,-2.1708,-2.1915,-2.2094,-2.2242,-2.2271,-2.2242,-2.2197,-2.218,-2.218,-2.2118,-2.2118,-2.2163,-2.2163,-2.2101,-2.1965,-2.1744,-2.1415,-2.1055,-2.0712,-2.0323,-1.994,-1.9797,-1.9726,-1.9705,-1.9705,-1.9705,-1.9705,-1.9705,-1.9705,-1.9632,-1.9632,-1.9574,-1.9288,-1.9017,-1.8666,-1.8728,-1.9283,-1.9582,-2.0127,-2.0858,-2.1321,-2.1935,-2.231,-2.2402,-2.2231,-2.1996,-2.1568,-2.118,-2.1131,-2.1131,-2.1131,-2.1131,-2.1277,-2.1568,-2.1759,-2.1983,-2.1983,-2.1712,-2.1326,-2.0723,-2.0321,-2.022,-2.0169,-2.0156,-2.0041,-2.0322,-2.0758,-2.1285,-2.2159,-2.3184,-2.399,-2.4107,-2.4028,-2.3734,-2.3688,-2.3878,-2.3878,-2.3747,-2.3628,-2.3497,-2.3616,-2.3793,-2.3923,-2.4041,-2.4131,-2.2122,-2.271,-2.264,-2.2494,-2.2376,-2.2801,-2.3021,-2.2922,-2.3169,-2.3252,-2.3,-2.2738,-2.2542,-2.246,-2.2243,-2.2073,-2.1886,-2.1721,-2.1587,-2.1479,-2.1448,-2.1402,-2.1433,-2.1526,-2.1448,-2.1417,-2.1433,-2.1464,-2.1526,-2.1678,-2.1873,-2.2123,-2.2225,-2.2299,-2.2254,-2.2225,-2.2135,-2.2106,-2.2003,-2.1957,-2.1857,-2.1869,-2.2027,-2.1969,-2.1899,-2.1675,-2.1401,-2.1087,-2.0712,-2.0323,-1.9955,-1.9777,-1.9705,-1.9705,-1.9705,-1.9705,-1.9705,-1.9705,-1.9705,-1.9669,-1.969,-1.9654,-1.942,-1.925,-1.8917,-1.8574,-1.881,-1.8588,-1.9282,-2.0571,-2.1247,-2.2189,-2.2661,-2.2263,-2.203,-2.1602,-2.118,-2.0921,-2.0723,-2.0785,-2.0799,-2.0749,-2.0799,-2.0983,-2.1193,-2.1423,-2.1746,-2.1471,-2.1229,-2.0723,-2.0182,-2.0067,-2.0016,-1.9914,-1.9875,-2.0003,-2.036,-2.0767,-2.1511,-2.286,-2.3663,-2.3664,-2.3569,-2.3378,-2.339,-2.3509,-2.345,-2.345,-2.3318,-2.3258,-2.3198,-2.3258,-2.345,-2.3582,-2.3734]}]]